     2.10           OBSERVATION DATA    G (GPS)             RINEX VERSION / TYPE
teqc 2003Nov3 GPS Data Processor 20031211 22:42:11UTC       PGM / RUN BY / DATE
Solaris 2.7|Ultra 2|cc SC5.0|=+-|*Sparc                     COMMENT
2 OBSERVATION DATA                                          COMMENT
ASHTORIN USGS 23 - JUN - 92 15:26                           COMMENT
                                                            COMMENT
p229 P_229_1935_USC&GS                                      MARKER NAME
                                                            MARKER NUMBER
CHS USGS                                                    OBSERVER / AGENCY
099 ASHTECH L-XII 7A24                                      REC # / TYPE / VERS
1036 ASH700228D NONE                                        ANT # / TYPE
 -2746349.0000 -4015171.0000  4111252.0000                  APPROX POSITION XYZ
        1.3569        0.0000        0.0000                  ANTENNA: DELTA H/E/N
HI is vertical height to base of antenna                    COMMENT
     1     1                                                WAVELENGTH FACT L1/2
     3    L1    L2    C1                                    # / TYPES OF OBSERV
    30.0000                                                 INTERVAL
                                                            COMMENT
Receiver type modified to reflect codeless receiver         COMMENT
Original receiver designation: ASHTECH LM-XII3              COMMENT
                                                            COMMENT
                                                            COMMENT
  1992     6    11     0    13    0.0000000     GPS         TIME OF FIRST OBS
                                                            END OF HEADER
 92  6 11  0 13  0.0000000  0  2G 3G16
   -329569.93816   -181961.72131  24157724.545
    -80541.26916   -181828.72632  23245282.876
 92  6 11  0 13 30.0000000  0  6G20G 3G12G24G25G16
   -104774.57718   -110279.44831  21356415.012
   -401374.558 6   -237913.26422  24144056.318
    179205.53516    182727.14732  23562293.733
  -1423104.58918    113082.29432  21526844.236
 -10540535.56815   -111074.32932  24769978.481
   -155795.258 6   -240468.13525  23230962.239
 92  6 11  0 14  0.0010000  0  6G20G 3G12G24G25G16
   -156358.176 8   -150473.87824  21346600.766
   -472626.633 6   -293434.29223  24130495.116
    285451.323 6    265515.96124  23582508.979
  -1369356.858 8    154963.49225  21537072.435
 -10593833.675 5   -152605.29923  24759836.952
   -230280.052 6   -298508.16425  23216781.966
 92  6 11  0 14 30.0010000  0  6G20G 3G12G24G25G16
   -207058.828 8   -189980.84125  21336950.866
   -543309.333 6   -348511.66424  24117051.553
    392374.671 6    348832.74125  23602857.632
  -1314786.852 8    197485.58926  21547453.948
 -10646181.352 6   -193395.72524  24749880.184
   -303977.457 6   -355934.64325  23202754.287
 92  6 11  0 15  0.0010000  0  6G20G 3G12G24G25G16
   -256920.858 8   -228834.35526  21327464.444
   -613446.867 6   -403164.14124  24103695.829
    499954.005 6    432660.68225  23623330.818
  -1259433.779 8    240617.83826  21557990.214
 -10697603.408 6   -233464.84125  24740083.057
   -376908.640 6   -412764.07525  23188882.800
 92  6 11  0 15 30.0010000  0  6G20G 3G12G24G25G16
   -305922.410 8   -267017.36327  21318140.778
   -683012.356 6   -457370.95224  24090461.191
    608213.049 6    517018.28525  23643929.528
  -1203277.134 8    284376.27527  21568675.147
 -10748071.603 6   -272790.60725  24730483.043
   -449045.013 6   -468974.13525  23175150.687
 92  6 11  0 16  0.0010000  0  6G20G 3G12G24G25G16
   -354018.847 8   -304495.08827  21308983.168
   -751973.284 6   -511106.69424  24077338.735
    717181.532 6    601928.70125  23664667.791
  -1146280.550 8    328789.16927  21579515.492
 -10797540.239 6   -311337.61325  24721071.089
   -520375.611 6   -524556.36825  23161587.447
 92  6 11  0 16 30.0010000  0  6G20G 3G12G24G25G16
   -401184.208 8   -341247.29927  21300011.459
   -820318.382 6   -564362.53224  24064335.207
    826867.674 6    687398.29025  23685538.563
  -1088426.275 8    373870.41527  21590532.505
 -10846005.576 6   -349102.75725  24711846.265
   -590904.397 6   -579513.78825  23148169.036
 92  6 11  0 17  0.0010000  0  6G20G 3G12G24G25G16
   -447507.009 8   -377342.96627  21291197.111
   -888155.513 6   -617222.53925  24051428.213
    937160.345 6    773340.55425  23706522.896
  -1029828.485 8    419531.02327  21601682.596
 -10893583.585 6   -386176.48325  24702791.903
   -660732.285 6   -633925.05425  23134874.440
 92  6 11  0 17 30.0010000  0  6G20G 3G12G24G25G16
   -493009.479 8   -412799.41328  21282538.115
   -955530.267 6   -669722.22125  24038604.890
   1048010.994 6    859717.55325  23727623.518
   -970516.229 8    465748.36928  21612968.883
 -10940308.193 6   -422585.23925  24693900.089
   -729904.816 6   -687825.65825  23121709.324
 92  6 11  0 18  0.0010000  0  6G20G 3G12G24G25G16
   -537688.549 8   -447614.26128  21274034.203
  -1022428.895 6   -721850.94725  24025876.961
   1159430.000 6    946537.44925  23748823.282
   -910476.211 8    512532.77428  21624393.044
 -10986164.184 6   -458317.20725  24685174.299
   -798407.665 6   -741204.43125  23108679.234
 92  6 11  0 18 30.0010000  0  6G20G 3G12G24G25G16
   -581617.302 8   -481844.41928  21265676.229
  -1088908.258 6   -773653.04525  24013223.891
   1271358.159 6   1033754.06725  23770121.198
   -849769.694 8    559836.55128  21635943.898
 -11031208.347 6   -493416.52125  24676600.805
   -866273.042 6   -794086.47725  23095764.145
 92  6 11  0 19  0.0010000  0  6G20G 3G12G24G25G16
   -624847.047 8   -515529.91928  21257449.114
  -1155003.115 6   -825155.39725  24000648.047
   1383756.998 6   1121337.51325  23791510.130
   -788435.603 8    607629.35128  21647615.508
 -11075469.573 6   -527905.72525  24668177.506
   -933515.515 6   -846483.15025  23082962.947
 92  6 11  0 19 30.0010000  0  6G20G 3G12G24G25G16
   -667417.885 8   -548701.97828  21249350.161
  -1220734.359 6   -876374.38525  23988133.811
   1496602.967 6   1209269.30625  23812988.941
   -726490.117 8    655898.54928  21659405.895
 -11118968.482 6   -561800.94325  24659900.626
  -1000159.086 6   -898413.13325  23070282.866
 92  6 11  0 20  0.0010000  0  6G20G 3G12G24G25G16
   -709392.277 8   -581409.28028  21241360.512
  -1286148.391 6   -927346.31425  23975693.173
   1609846.215 6   1297510.69925  23834537.273
   -663996.655 8    704594.73328  21671296.144
 -11161759.745 6   -595144.75725  24651763.569
  -1066241.012 6   -949905.47525  23057708.640
 92  6 11  0 20 30.0010000  0  6G20G 3G12G24G25G16
   -750840.458 8   -613706.54328  21233472.343
  -1351338.955 6   -978144.06725  23963285.333
   1723390.133 6   1385986.38925  23856139.598
   -601047.902 8    753645.69628  21683274.951
 -11203939.904 6   -628012.40025  24643731.440
  -1131844.135 6  -1001024.71825  23045228.850
 92  6 11  0 21  0.0010000  0  6G20G 3G12G24G25G16
   -791672.478 8   -645523.69028  21225704.421
  -1416250.532 6  -1028724.43025  23950936.312
   1837287.600 6   1474737.50125  23877817.051
   -537595.747 8    803088.94028  21695350.262
 -11245458.549 6   -660364.53225  24635829.480
  -1196925.249 6  -1051737.20325  23032837.019
 92  6 11  0 21 30.0010000  0  6G20G 3G12G24G25G16
   -831848.072 8   -676829.32328  21218060.342
  -1480868.512 6  -1079076.05625  23938633.549
   1951549.461 6   1563772.64725  23899561.868
   -473631.834 8    852930.91628  21707522.855
 -11286300.148 6   -692189.20625  24628063.117
  -1261480.920 6  -1102040.30025  23020557.160
 92  6 11  0 22  0.0010000  0  6G20G 3G12G24G25G16
   -871356.848 8   -707615.36128  21210540.738
  -1545205.151 6  -1129208.39525  23926396.740
   2066160.684 6   1653079.93125  23921365.623
   -409168.803 8    903161.84628  21719788.683
 -11326465.425 5   -723486.75325  24620415.231
  -1325509.400 6  -1151932.54825  23008370.357
 92  6 11  0 22 30.0010000  0  6G20G 3G12G24G25G16
   -910160.116 8   -737851.65928  21203154.931
  -1609241.195 6  -1179106.52225  23914205.050
   2181137.417 6   1742672.12625  23943250.293
   -344187.106 8    953796.92928  21732154.642
 -11365927.216 6   -754236.18425  24612904.651
  -1388990.383 6  -1201398.18525  22996290.909
 92  6 11  0 23  0.0010000  0  6G20G 3G12G24G25G16
   -948373.905 8   -767628.60828  21195884.335
  -1673083.700 6  -1228853.82025  23902060.518
   2296369.523 6   1832463.21325  23965176.184
   -278799.769 8   1004748.10028  21744593.031
 -11404782.283 6   -784512.85025  24605512.788
  -1452038.234 6  -1250526.30225  22984288.058
 92  6 11  0 23 30.0010000  0  6G20G 3G12G24G25G16
   -985971.834 8   -796925.67928  21188728.079
  -1736689.485 6  -1278416.75125  23889954.748
   2411897.172 6   1922484.67925  23987159.125
   -212951.491 8   1056058.40928  21757125.226
 -11442966.909 6   -814267.07725  24598244.799
  -1514593.942 6  -1299271.00025  22972392.594
 92  6 11  0 24  0.0010000  0  6G20G 3G12G24G25G16
  -1023029.030 8   -825801.39828  21181677.650
  -1800122.065 6  -1327844.68525  23877885.764
   2527653.924 6   2012684.59825  24009187.695
   -146702.638 8   1107680.91128  21769735.306
 -11480537.428 5   -843542.75525  24591099.006
  -1576713.617 6  -1347675.86025  22960574.475
 92  6 11  0 24 30.0010000  0  6G20G 3G12G24G25G16
  -1059512.165 8   -854229.79728  21174735.056
  -1863334.519 6  -1377100.99925  23865858.180
   2643683.754 6   2103097.32525  24031264.532
    -80009.887 8   1159649.24928  21782425.431
 -11517454.198 6   -872309.06325  24584074.689
  -1638355.471 6  -1395708.41225  22948835.772
 92  6 11  0 25  0.0010000  0  6G20G 3G12G24G25G16
  -1095424.617 8   -882213.50428  21167901.197
  -1926310.376 6  -1426173.01925  23853871.249
   2759999.441 6   2193732.80025  24053400.877
    -12853.027 8   1211979.29328  21795205.523
 -11553707.628 5   -900558.45825  24577171.878
  -1699498.952 6  -1443352.64025  22937202.655
 92  6 11  0 25 30.0010000  0  6G20G 3G12G24G25G16
  -1130807.150 8   -909784.29128  21161168.458
  -1989081.969 6  -1475085.83725  23841925.029
   2876565.952 6   2284563.70125  24075589.356
     54733.755 8   1264644.27328  21808064.881
 -11589338.240 5   -928322.53725  24570390.093
  -1760163.714 6  -1490623.86425  22925658.757
 92  6 11  0 26  0.0010000  0  6G20G 3G12G24G25G16
  -1165690.185 8   -936965.87628  21154530.813
  -2051672.423 6  -1523857.59825  23830016.703
   2993357.327 5   2375569.85925  24097805.117
    122721.701 8   1317621.90528  21821006.472
 -11624395.280 5   -955639.64925  24563723.638
  -1820374.056 6  -1537540.94425  22914203.057
 92  6 11  0 26 30.0010000  0  6G20G 3G12G24G25G16
  -1200040.907 8   -963732.64028  21147992.879
  -2114050.270 6  -1572463.62225  23818148.789
   3110401.777 5   2466773.14225  24120081.405
    191137.190 8   1370932.64128  21834024.389
 -11658855.139 5   -982491.46525  24557168.226
  -1880104.917 6  -1584084.39525  22902833.428
 92  6 11  0 27  0.0010000  0  6G20G 3G12G24G25G16
  -1233840.564 9   -990070.00628  21141562.661
  -2176215.125 6  -1620903.70025  23806308.546
   3227696.343 5   2558171.44325  24142403.382
    259972.104 8   1424570.25628  21847121.692
 -11692710.340 5  -1008872.11825  24550724.697
  -1939358.204 6  -1630255.71725  22891560.422
 92  6 11  0 27 30.0010000  0  6G20G 3G12G24G25G16
  -1267072.559 8  -1015965.06128  21135237.699
  -2238173.312 6  -1669182.70525  23794529.700
   3345231.826 6   2649757.31625  24164769.248
    329216.456 8   1478526.84628  21860298.980
 -11725960.301 6  -1034780.55025  24544398.177
  -1998143.573 7  -1676062.45425  22880370.429
 92  6 11  0 28  0.0010000  0  6G20G 3G12G24G25G16
  -1299813.495 9  -1041477.45928  21129006.603
  -2300024.942 6  -1717378.67725  23782756.460
   3462905.390 6   2741450.94725  24187158.019
    398769.419 8   1532723.96828  21873531.699
 -11758691.895 5  -1060285.76825  24538169.569
  -2056570.218 7  -1721589.65125  22869259.911
 92  6 11  0 28 30.0010000  0  6G20G 3G12G24G25G16
  -1331970.988 9  -1066535.21828  21122887.090
  -2361701.308 6  -1765438.11625  23771022.434
   3580782.153 6   2833302.78725  24209591.968
    468688.214 8   1587206.13828  21886840.086
 -11790814.909 5  -1085316.62425  24532056.711
  -2114561.837 7  -1766777.84725  22858218.285
 92  6 11  0 29  0.0010000  0  6G20G 3G12G24G25G16
  -1363549.139 9  -1091141.55228  21116879.339
  -2423218.092 6  -1813373.25025  23759310.861
   3698843.751 6   2925298.74325  24232058.775
    538956.471 8   1641960.60828  21900212.239
 -11822342.760 5  -1109883.80925  24526056.844
  -2172108.706 7  -1811619.49625  22847268.575
 92  6 11  0 29 30.0010000  0  6G20G 3G12G24G25G16
  -1394556.050 8  -1115302.76228  21110980.472
  -2484575.076 6  -1861183.80025  23747636.913
   3817087.124 6   3017436.28225  24254562.636
    609589.039 8   1696998.96928  21913652.294
 -11853276.495 5  -1133987.94825  24520168.171
  -2229199.356 7  -1856105.65325  22836405.595
 92  6 11  0 30  0.0010000  0  6G20G 3G12G24G25G16
  -1424992.056 8  -1139019.11928  21105187.013
  -2545768.817 6  -1908867.13725  23735993.274
   3935512.874 6   3109715.96225  24277094.887
    680588.686 8   1752323.34428  21927163.071
 -11883615.083 5  -1157628.36625  24514393.778
  -2285821.105 7  -1900226.46625  22825627.487
 92  6 11  0 30 30.0010000  0  6G20G 3G12G24G25G16
  -1454875.772 8  -1162305.10428  21099497.072
  -2606800.507 6  -1956424.24225  23724379.164
   4054116.344 6   3202134.17825  24299668.629
    751956.801 8   1807934.85228  21940744.089
 -11913368.441 5  -1180812.79925  24508735.346
  -2341956.689 7  -1943968.40025  22814948.100
 92  6 11  0 31  0.0010000  0  6G20G 3G12G24G25G16
  -1484233.374 9  -1185181.15528  21093912.808
  -2667675.714 6  -2003859.35325  23712797.852
   4172889.157 6   3294684.26325  24322272.771
    823697.767 8   1863836.92428  21954396.128
 -11942549.627 5  -1203551.35225  24503181.061
  -2397608.757 7  -1987333.56926  22804354.094
 92  6 11  0 31 30.0010000  0  6G20G 3G12G24G25G16
  -1513072.795 8  -1207653.41228  21088428.315
  -2728386.125 6  -2051166.15725  23701238.544
   4291836.655 5   3387370.48225  24344902.395
    895812.676 8   1920030.30528  21968121.406
 -11971150.057 6  -1225837.34925  24497740.247
  -2452782.302 7  -2030325.89426  22793858.030
 92  6 11  0 32  0.0010000  0  6G20G 3G12G24G25G16
  -1541405.256 8  -1229730.63028  21083034.239
  -2788944.570 6  -2098354.48925  23689722.766
   4410942.824 5   3480180.30825  24367564.666
    968270.218 8   1976490.73128  21981906.223
 -11999186.347 5  -1247683.80925  24492398.635
  -2507495.687 7  -2072959.64626  22783447.168
 92  6 11  0 32 30.0010000  0  6G20G 3G12G24G25G16
  -1569233.511 8  -1251414.98428  21077737.536
  -2849355.282 6  -2145427.68325  23678220.869
   4530200.445 5   3573108.19525  24390256.916
   1041051.650 8   2033203.53128  21995756.635
 -12026664.157 5  -1269095.09425  24487172.173
  -2561748.393 7  -2115234.43826  22773125.134
 92  6 11  0 33  0.0010000  0  6G20G 3G12G24G25G16
  -1596545.702 8  -1272697.20128  21072538.235
  -2909619.584 6  -2192386.79325  23666759.204
   4649605.104 5   3666150.63525  24412979.176
   1114136.742 8   2090152.94328  22009662.897
 -12053586.779 6  -1290073.70225  24482048.900
  -2615562.323 7  -2157167.28326  22762882.155
 92  6 11  0 33 30.0010000  0  6G20G 3G12G24G25G16
  -1623320.319 8  -1293560.51928  21067446.560
  -2969741.260 6  -2239234.78925  23655311.808
   4769149.715 5   3759302.13125  24435733.664
   1187509.946 8   2147326.81428  22023627.110
 -12079949.073 6  -1310615.75925  24477032.203
  -2668953.282 7  -2198770.56926  22752720.329
 92  6 11  0 34  0.0010000  0  6G20G 3G12G24G25G16
  -1649540.091 8  -1313991.49228  21062456.395
  -3029720.036 6  -2285971.44725  23643900.328
   4888831.960 6   3852560.87225  24458505.659
   1261181.119 8   2204732.96227  22037647.054
 -12105745.013 6  -1330716.47625  24472130.986
  -2721910.517 6  -2240035.89825  22742643.765
 92  6 11  0 34 30.0010000  0  6G20G 3G12G24G25G16
  -1675205.411 8  -1333990.43828  21057570.857
  -3089558.955 6  -2332599.08725  23632509.144
   5008645.384 6   3945921.83425  24481309.072
   1335147.711 8   2262369.21128  22051721.441
 -12130961.890 6  -1350366.02125  24467327.502
  -2774427.883 7  -2280958.48225  22732651.683
 92  6 11  0 35  0.0010000  0  6G20G 3G12G24G25G16
  -1700326.403 8  -1353565.20428  21052793.514
  -3149270.141 6  -2379127.20225  23621146.351
   5128574.508 6   4039372.93425  24504132.122
   1409415.543 8   2320240.24927  22065854.677
 -12155594.067 6  -1369559.83125  24462643.694
  -2826523.583 7  -2321552.47426  22722736.467
 92  6 11  0 35 30.0010000  0  6G20G 3G12G24G25G16
  -1724902.745 8  -1372715.59628  21048115.313
  -3208853.235 6  -2425555.52525  23609810.238
   5248617.450 6   4132912.80025  24526977.027
   1484008.144 8   2378364.33127  22080047.271
 -12179629.727 6  -1388288.84925  24458067.932
  -2878172.169 7  -2361798.08726  22712908.551
 92  6 11  0 36  0.0010000  0  6G20G 3G12G24G25G16
  -1748942.522 8  -1391447.89028  21043540.180
  -3268302.348 6  -2471879.49225  23598497.930
   5368776.648 6   4226543.13825  24549845.945
   1558934.176 8   2436748.24327  22094305.820
 -12203070.087 6  -1406554.17025  24453607.200
  -2929350.348 7  -2401677.13926  22703170.992
 92  6 11  0 36 30.0010000  0  6G20G 3G12G24G25G16
  -1772447.693 8  -1409763.58228  21039068.746
  -3327613.086 6  -2518095.58925  23587211.044
   5489053.172 6   4320264.94925  24572724.937
   1634186.789 8   2495386.60627  22108626.696
 -12225914.431 6  -1424354.86625  24449260.569
  -2980052.553 7  -2441185.31726  22693522.921
 92  6 11  0 37  0.0010000  0  6G20G 3G12G24G25G16
  -1795411.310 8  -1427657.29028  21034698.851
  -3386783.950 6  -2564202.64425  23575949.220
   5609445.751 5   4414077.22225  24595630.489
   1709773.513 8   2554285.34527  22123011.188
 -12248179.727 6  -1441704.39825  24445020.934
  -3030275.471 7  -2480319.98726  22683962.120
 92  6 11  0 37 30.0010000  0  6G20G 3G12G24G25G16
  -1817841.763 8  -1445135.55928  21030430.286
  -3445821.224 6  -2610205.64025  23564710.450
   5729944.884 5   4507972.49025  24618565.842
   1785666.507 8   2613422.73727  22137452.431
 -12269896.543 6  -1458626.60825  24440884.308
  -3080013.561 7  -2519076.92426  22674498.182
 92  6 11  0 38  0.0010000  0  6G20G 3G12G24G25G16
  -1839749.309 8  -1462206.36328  21026261.282
  -3504731.217 6  -2656109.47525  23553502.440
   5850541.343 5   4601943.57625  24641515.044
   1861843.434 8   2672781.34427  22151950.274
 -12291076.496 6  -1475130.50925  24436856.806
  -3129279.721 7  -2557466.09025  22665124.931
 92  6 11  0 38 30.0010000  0  6G20G 3G12G24G25G16
  -1861127.494 8  -1478864.67828  21022194.388
  -3563516.167 6  -2701915.93925  23542318.082
   5971229.798 5   4695986.37225  24664482.204
   1938297.712 8   2732356.09827  22166498.392
 -12311705.545 6  -1491204.98025  24432935.701
  -3178078.438 7  -2595491.03025  22655839.429
 92  6 11  0 39  0.0010000  0  6G20G 3G12G24G25G16
  -1881972.022 8  -1495107.14728  21018228.313
  -3622177.004 6  -2747625.55925  23531157.259
   6092006.044 5   4790097.56825  24687468.281
   2015028.549 8   2792146.32427  22181100.264
 -12331777.476 6  -1506845.45425  24429113.167
  -3226417.312 7  -2633157.62426  22646638.289
 92  6 11  0 39 30.0010000  0  7G20G 3G12G24G25G16G17
  -1902280.969 8  -1510932.29928  21014362.759
  -3680714.655 6  -2793239.25225  23520016.222
   6212866.423 5   4884274.29325  24710468.928
   2092029.012 8   2852146.69727  22195750.851
 -12351271.737 6  -1522035.81325  24425404.314
  -3274306.397 7  -2670473.75726  22637523.998
   -570788.00315   -250890.44331  25282591.056
 92  6 11  0 40  0.0010000  0  7G20G 3G12G24G25G16G17
  -1922048.591 8  -1526335.61629  21010600.574
  -3739124.640 6  -2838753.45425  23508903.185
   6333812.227 5   4978517.63425  24733483.696
   2169308.225 8   2912364.23327  22210457.920
 -12370158.959 6  -1536753.08925  24421807.165
  -3321754.266 7  -2707446.10126  22628498.746
   -670669.720 5   -328720.11722  25263586.283
 92  6 11  0 40 30.0010000  0  7G20G 3G12G24G25G16G17
  -1941270.785 8  -1541313.93229  21006942.147
  -3797413.830 6  -2884173.57725  23497812.543
   6454833.538 5   5072819.71125  24756506.977
   2246857.305 8   2972792.07027  22225214.094
 -12388449.234 6  -1551005.17525  24418330.681
  -3368772.438 7  -2744083.60726  22619546.824
   -770408.804 5   -406438.69323  25244603.515
 92  6 11  0 41  0.0010000  0  7G20G 3G12G24G25G16G17
  -1959962.634 8  -1555878.99329  21003383.970
  -3855590.435 6  -2929505.91825  23486741.537
   6575918.963 5   5167171.90225  24779554.751
   2324668.179 8   3033423.90227  22240021.983
 -12406173.075 6  -1564816.07124  24414948.363
  -3415372.496 7  -2780395.27826  22610681.331
   -870025.475 5   -484061.89123  25225657.411
 92  6 11  0 41 30.0010000  0  7G20G 3G12G24G25G16G17
  -1978136.887 8  -1570040.73829  20999925.534
  -3913659.732 6  -2974754.65925  23475690.887
   6697060.527 5   5261567.67425  24802604.084
   2402736.907 8   3094256.65927  22254878.948
 -12423345.800 6  -1578197.40025  24411694.236
  -3461539.595 7  -2816369.60126  22601895.254
   -969529.226 5   -561597.13323  25206725.067
 92  6 11  0 42  0.0010000  0  7G20G 3G12G24G25G16G17
  -1995796.901 8  -1583801.77929  20996565.370
  -3971620.609 6  -3019918.89025  23464659.664
   6818255.914 5   5356005.53325  24825667.058
   2481061.791 8   3155289.02727  22269781.871
 -12439986.395 6  -1591164.01525  24408519.104
  -3507241.654 7  -2851981.55626  22593202.951
  -1068945.291 5   -639064.03523  25187800.009
 92  6 11  0 42 30.0010000  0  7G20G 3G12G24G25G16G17
  -2012929.072 8  -1597151.49929  20993306.506
  -4029470.567 7  -3064996.72425  23453653.144
   6939504.759 5   5450484.94825  24848740.915
   2559645.422 8   3216522.98727  22284736.328
 -12456105.078 6  -1603724.01825  24405459.872
  -3552452.331 7  -2887210.60826  22584597.199
  -1168281.460 5   -716468.64923  25168891.289
 92  6 11  0 43  0.0010000  0  7G20G 3G12G24G25G16G17
  -2029527.637 8  -1610085.44129  20990148.732
  -4087205.637 6  -3109985.02325  23442665.301
   7060808.221 5   5545006.95525  24871821.127
   2638486.593 8   3277957.62927  22299739.681
 -12471686.487 6  -1615865.38825  24402486.830
  -3597146.823 7  -2922037.43426  22576089.149
  -1267529.809 5   -793804.79422  25150005.054
 92  6 11  0 43 30.0010000  0  6G20G 3G12G24G25G16
  -2045577.199 8  -1622591.57929  20987093.338
  -4144824.970 6  -3154883.15725  23431699.972
   7182163.583 5   5639569.39725  24894919.746
   2717570.935 8   3339581.80127  22314788.363
 -12486715.200 6  -1627576.05625  24399627.769
  -3641313.613 7  -2956453.10026  22567685.127
 92  6 11  0 44  0.0010000  0  6G20G 3G12G24G25G16
  -2061065.713 8  -1634660.54529  20984144.039
  -4202331.183 6  -3199693.12725  23420757.217
   7303565.741 5   5734168.30425  24918022.382
   2796887.924 8   3401387.20927  22329879.316
 -12501181.960 6  -1638848.82625  24396874.145
  -3684966.582 7  -2990468.38026  22559383.484
 92  6 11  0 44 30.0010000  0  6G20G 3G12G24G25G16
  -2075991.065 8  -1646290.68029  20981304.765
  -4259723.371 6  -3244414.23325  23409835.868
   7425012.100 5   5828801.67725  24941122.650
   2876441.391 8   3463376.88327  22345019.105
 -12515076.200 6  -1649675.53225  24394234.173
  -3728136.066 7  -3024106.90826  22551162.455
 92  6 11  0 45  0.0010000  0  6G20G 3G12G24G25G16
  -2090367.586 8  -1657493.15629  20978568.080
  -4316998.126 6  -3289043.89725  23398939.461
   7546503.430 5   5923470.05625  24964244.473
   2956237.062 8   3525555.35926  22360206.411
 -12528396.747 6  -1660055.19724  24391697.119
  -3770824.158 7  -3057370.32426  22543041.317
 92  6 11  0 45 30.0010000  0  6G20G 3G12G24G25G16
  -2104199.982 8  -1668271.63629  20975940.279
  -4374144.940 7  -3333573.81925  23388065.419
   7668046.994 5   6018179.16025  24987383.654
   3036301.701 8   3587943.32827  22375441.474
 -12541144.034 6  -1669988.04325  24389274.527
  -3813034.911 7  -3090261.79226  22535007.749
 92  6 11  0 46  0.0010000  0  6G20G 3G12G24G25G16
  -2117497.759 8  -1678633.52429  20973409.641
  -4431163.030 7  -3378003.42925  23377212.303
   7789640.573 5   6112927.18525  25010516.420
   3116653.124 8   3650554.77927  22390734.397
 -12553324.759 6  -1679479.54125  24386957.011
  -3854779.591 7  -3122790.07626  22527066.187
 92  6 11  0 46 30.0010000  0  7G20G 3G12G24G25G16G17
  -2130262.382 8  -1688579.98329  20970976.705
  -4488051.374 7  -3422331.93325  23366385.868
   7911282.157 5   6207712.64125  25033659.288
   3197293.771 8   3713391.65726  22406078.704
 -12564941.946 6  -1688531.92225  24384736.508
  -3896046.340 7  -3154945.93226  22519215.252
     -4904.32315    -19890.63731  25018457.502
 92  6 11  0 47  0.0010000  0  7G20G 3G12G24G25G16G17
  -2142484.683 8  -1698103.83929  20968652.054
  -4544807.714 7  -3466557.63025  23355588.902
   8032970.805 5   6302534.76625  25056817.536
   3278223.743 8   3776453.96526  22421476.375
 -12575988.146 6  -1697139.30225  24382644.526
  -3936815.786 7  -3186714.28926  22511454.674
   -103026.099 5    -96345.94321  24999798.749
 92  6 11  0 47 30.0010000  0  7G20G 3G12G24G25G16G17
  -2154134.749 8  -1707181.80129  20966436.348
  -4601428.730 7  -3510677.87325  23344811.333
   8154706.962 5   6397393.89125  25079986.966
   3359430.947 8   3839732.27127  22436929.837
 -12586453.497 6  -1705294.11525  24380654.114
  -3977099.541 7  -3218104.20126  22503789.701
   -200985.223 5   -172677.49422  24981148.091
 92  6 11  0 48  0.0010000  0  7G20G 3G12G24G25G16G17
  -2165188.589 8  -1715795.17729  20964331.625
  -4657911.521 7  -3554690.38225  23334063.534
   8276490.570 5   6492290.06225  25103158.555
   3440893.854 8   3903209.83326  22452435.492
 -12596321.731 6  -1712983.65725  24378776.124
  -4016881.163 7  -3249102.85526  22496218.172
   -298796.719 5   -248894.06223  24962532.898
 92  6 11  0 48 30.0010000  0  7G20G 3G12G24G25G16G17
  -2175635.521 8  -1723935.64429  20962346.220
  -4714251.990 7  -3598591.96625  23323339.298
   8398322.265 5   6587223.59925  25126345.073
   3522599.795 7   3966876.78226  22467981.050
 -12605578.942 6  -1720197.09825  24377012.176
  -4056142.478 7  -3279696.03326  22488744.076
   -396466.399 5   -325000.11323  24943948.134
 92  6 11  0 49  0.0010000  0  7G20G 3G12G24G25G16G17
  -2185477.022 8  -1731604.33929  20960472.667
  -4770456.401 7  -3642387.60525  23312647.470
   8520193.196 5   6682187.81225  25149537.527
   3604532.280 7   4030720.29126  22483571.277
 -12614230.531 6  -1726938.52925  24375360.379
  -4094889.232 7  -3309888.30726  22481372.720
   -494010.954 5   -401008.68124  24925391.910
 92  6 11  0 49 30.0010000  0  7G20G 3G12G24G25G16G17
  -2194720.376 8  -1738806.94329  20958711.416
  -4826532.950 7  -3686083.56825  23301974.978
   8642092.181 5   6777173.82125  25172732.860
   3686671.999 8   4094725.21826  22499202.486
 -12622280.659 5  -1733211.36725  24373825.981
  -4133117.908 7  -3339676.85126  22474098.975
   -591444.214 5   -476930.46824  24906859.370
 92  6 11  0 50  0.0010000  0  7G20G 3G12G24G25G16G17
  -2203382.081 8  -1745556.32229  20957061.658
  -4882488.696 7  -3729685.37325  23291328.449
   8764008.973 5   6872173.74925  25195934.577
   3769032.629 7   4158902.28826  22514873.507
 -12629731.139 6  -1739016.98625  24372414.798
  -4170811.607 7  -3369048.54326  22466926.201
   -688761.319 5   -552761.80725  24888338.072
 92  6 11  0 50 30.0010000  0  7G20G 3G12G24G25G16G17
  -2211466.613 8  -1751855.95229  20955523.723
  -4938319.953 6  -3773190.19525  23280702.065
   8885944.161 5   6967187.98825  25219137.015
   3851628.396 8   4223262.63726  22530594.414
 -12636590.116 6  -1744361.57325  24371112.260
  -4207973.831 7  -3398006.09426  22459855.685
   -785937.299 5   -628483.17325  24869838.479
 92  6 11  0 51  0.0010000  0  7G20G 3G12G24G25G16G17
  -2218969.507 8  -1757702.37329  20954096.621
  -4994017.742 7  -3816591.05825  23270104.252
   9007904.070 5   7062221.44425  25242354.232
   3934474.235 8   4287817.84426  22546356.242
 -12642864.701 6  -1749250.86225  24369909.433
  -4244596.553 7  -3426543.25026  22452887.849
   -882943.426 5   -704072.20125  24851380.287
 92  6 11  0 51 30.0020000  0  7G20G 3G12G24G25G16G17
  -2225905.095 8  -1763106.73129  20952779.153
  -5049587.293 7  -3859891.95425  23259528.893
   9129885.734 5   7157271.90725  25265559.847
   4017577.683 8   4352573.67926  22562172.903
 -12648567.864 6  -1753694.96224  24368828.201
  -4280691.460 7  -3454669.13226  22446016.846
   -979760.656 5   -779514.02825  24832946.499
 92  6 11  0 52  0.0020000  0  7G20G 3G12G24G25G16G17
  -2232282.048 8  -1768075.78529  20951567.751
  -5105022.810 7  -3903088.40425  23248981.685
   9251880.416 5   7252332.45125  25288769.539
   4100941.993 8   4417532.90726  22578035.791
 -12653716.524 6  -1757706.86025  24367846.981
  -4316269.719 7  -3482392.40426  22439247.322
  -1076376.570 5   -854798.94125  24814577.765
 92  6 11  0 52 30.0020000  0  7G20G 3G12G24G25G16G17
  -2238104.794 8  -1772612.97229  20950456.811
  -5160322.715 7  -3946179.17125  23238452.554
   9373892.804 5   7347406.87725  25311998.118
   4184543.931 7   4482677.25526  22593943.648
 -12658311.707 6  -1761287.50025  24366976.773
  -4351329.079 7  -3509711.36726  22432577.090
  -1172800.096 5   -929933.92625  24796209.511
 92  6 11  0 53  0.0020000  0  6G20G 3G24G25G16G17
  -2243361.644 8  -1776709.23529  20949453.675
  -5215482.254 7  -3989160.61825  23227961.257
   4268389.666 8   4548011.53926  22609899.772
 -12662335.491 6  -1764422.91024  24366205.527
  -4385857.717 7  -3536616.77526  22426004.920
  -1269044.552 5  -1004929.45124  24777908.291
 92  6 11  0 53 30.0020000  0  6G20G 3G24G25G16G17
  -2248047.526 8  -1780360.55429  20948564.401
  -5270498.394 7  -4032030.29025  23217494.573
   4352474.776 7   4613532.43926  22625897.837
 -12665770.135 6  -1767099.27924  24365555.367
  -4419845.842 7  -3563100.99326  22419536.958
  -1365130.864 5  -1079801.76224  24759607.790
 92  6 11  0 54  0.0020000  0  6G20G 3G24G25G16G17
  -2252152.350 8  -1783559.11929  20947782.722
  -5325374.583 7  -4074790.90525  23207046.476
   4436781.178 8   4679225.69126  22641944.138
 -12668605.090 6  -1769308.28225  24365019.668
  -4453282.151 7  -3589155.23526  22413174.732
  -1461079.855 5  -1154567.00124  24741360.952
 92  6 11  0 54 30.0020000  0  7G20G 3G12G24G25G16G17
  -2255669.212 8  -1786299.53429  20947111.816
  -5380124.467 7  -4117453.12025  23196630.067
      6102.09515     20270.89131  25404893.218
   4521286.182 7   4745073.70926  22658024.436
 -12670846.079 6  -1771054.50425  24364588.896
  -4486161.986 7  -3614775.86026  22406917.104
  -1556896.479 5  -1229229.14524  24723117.862
 92  6 11  0 55  0.0020000  0  7G20G 3G12G24G25G16G17
  -2258584.554 8  -1788571.22429  20946560.168
  -5434751.792 7  -4160019.84725  23186235.783
    128151.307 5    115376.08321  25428120.239
   4605999.033 7   4811083.70226  22674145.446
 -12672508.667 6  -1772350.06424  24364275.523
  -4518500.175 7  -3639974.44126  22400766.952
  -1652572.303 5  -1303781.53524  24704915.753
 92  6 11  0 55 30.0020000  0  7G20G 3G12G24G25G16G17
  -2260897.741 8  -1790373.69929  20946117.585
  -5489252.842 7  -4202488.13925  23175862.694
    250190.606 5    210471.50521  25451340.454
   4690911.507 7   4877249.24526  22690303.300
 -12673602.867 6  -1773202.66025  24364064.409
  -4550291.479 7  -3664746.84226  22394714.981
  -1748083.682 5  -1378205.81624  24686745.182
 92  6 11  0 56  0.0020000  0  7G20G 3G12G24G25G16G17
  -2262591.042 8  -1791693.15429  20945798.216
  -5543622.185 7  -4244853.79825  23165516.856
    372222.608 5    305561.17122  25474567.774
   4776045.696 8   4943587.55226  22706505.074
 -12674129.161 6  -1773612.73825  24363960.831
  -4581541.247 7  -3689097.30526  22388768.118
  -1843401.608 5  -1452479.42024  24668611.905
 92  6 11  0 56 30.0020000  0  7G20G 3G12G24G25G16G17
  -2263673.416 8  -1792536.56629  20945590.280
  -5597863.784 7  -4287119.93325  23155196.621
    494240.206 5    400639.57422  25497783.912
   4861416.336 7   5010110.10926  22722750.647
 -12674098.578 6  -1773588.96424  24363969.495
  -4612264.124 7  -3713037.21526  22382921.716
  -1938527.694 5  -1526603.46224  24650503.571
 92  6 11  0 57  0.0020000  0  7G20G 3G12G24G25G16G17
  -2264175.973 8  -1792928.15929  20945492.727
  -5651987.322 7  -4329294.12025  23144896.532
    616230.713 5    495696.92222  25521000.049
   4947020.605 7   5076814.68826  22739038.341
 -12673508.786 6  -1773129.38024  24364082.756
  -4642479.520 7  -3736581.63626  22377173.165
  -2033473.513 5  -1600587.06824  24632443.624
 92  6 11  0 57 30.0020000  0  7G20G 3G12G24G25G16G17
  -2264107.337 8  -1792874.67529  20945508.166
  -5705986.836 7  -4371371.59525  23134619.466
    738197.127 5    590735.43023  25544211.390
   5032863.434 7   5143705.22226  22755372.923
 -12672339.140 6  -1772217.94925  24364307.331
  -4672173.537 7  -3759719.79926  22371522.617
  -2128241.133 5  -1674431.76325  24614404.422
 92  6 11  0 58  0.0020000  0  7G20G 3G12G24G25G16G17
  -2263457.865 8  -1792368.59129  20945632.550
  -5759851.312 7  -4413343.86725  23124368.213
    860147.275 5    685761.26523  25567417.725
   5118957.860 7   5210791.73926  22771759.069
 -12670564.489 6  -1770835.08524  24364646.037
  -4701337.753 7  -3782445.15026  22365971.090
  -2222825.417 5  -1748133.66025  24596409.050
 92  6 11  0 58 30.0020000  0  7G20G 3G12G24G25G16G17
  -2262248.795 8  -1791426.46229  20945861.142
  -5813585.880 7  -4455214.90925  23114145.980
    982073.063 5    780768.22923  25590618.124
   5205274.015 7   5278051.00126  22788182.480
 -12668194.367 6  -1768988.30924  24365089.849
  -4729968.205 7  -3804754.58226  22360524.491
  -2317235.876 5  -1821700.05225  24578441.799
 92  6 11  0 59  0.0020000  0  6G20G 3G24G25G16G17
  -2260486.769 8  -1790053.45129  20946197.149
  -5867194.588 7  -4496987.89725  23103940.475
   5291786.065 7   5345463.00226  22804644.263
 -12665243.794 6  -1766689.11325  24365654.269
  -4758064.691 7  -3826647.90626  22355176.583
  -2411463.635 5  -1895124.11425  24560514.150
 92  6 11  0 59 30.0020000  0  6G20G 3G24G25G16G17
  -2258147.436 8  -1788230.59429  20946642.101
  -5920666.450 7  -4538654.27525  23093766.388
   5378500.160 7   5413032.40126  22821148.588
 -12661718.840 6  -1763942.42925  24366328.352
  -4785610.502 7  -3848112.15026  22349933.873
  -2505498.489 5  -1968397.83325  24542608.566
 92  6 11  1  0  0.0020000  0  6G20G 3G24G25G16G17
  -2255219.021 8  -1785948.72229  20947198.366
  -5974000.109 7  -4580212.88125  23083620.152
   5465408.995 7   5480753.55326  22837685.589
 -12657632.737 6  -1760758.52424  24367105.054
  -4812602.096 7  -3869144.54626  22344797.379
  -2599331.027 5  -2041513.91425  24524753.227
 92  6 11  1  0 30.0020000  0  6G20G 3G24G25G16G17
  -2251699.524 8  -1783206.26229  20947871.250
  -6027194.611 7  -4621663.15025  23073496.671
   5552507.329 7   5548622.33926  22854260.784
 -12652996.909 6  -1757146.11825  24367985.695
  -4839022.906 7  -3889732.16826  22339768.960
  -2692958.228 5  -2114469.98425  24506944.685
 92  6 11  1  1  0.0020000  0  6G20G 3G24G25G16G17
  -2247567.147 8  -1779986.21529  20948654.009
  -6080246.521 7  -4663002.24825  23063399.751
   5639810.820 7   5616651.00226  22870872.285
 -12647787.328 6  -1753086.73025  24368968.864
  -4864858.320 7  -3909863.61826  22334855.841
  -2786374.788 5  -2187261.92525  24489171.220
 92  6 11  1  1 30.0020000  0  6G20G 3G24G25G16G17
  -2242818.376 8  -1776285.88829  20949560.071
  -6133165.095 7  -4704237.45425  23053330.471
   5727316.975 7   5684837.58426  22887521.918
 -12641996.417 6  -1748574.38525  24370084.572
  -4890107.903 7  -3929538.59526  22330050.318
  -2879600.505 5  -2259905.14325  24471430.581
 92  6 11  1  2  0.0020000  0  6G20G 3G24G25G16G17
  -2237440.533 8  -1772095.35429  20950583.353
  -6185937.731 7  -4745358.93525  23043287.154
   5815036.202 7   5753190.21026  22904217.600
 -12635597.575 6  -1743588.26225  24371299.540
  -4914761.860 7  -3948749.45926  22325364.412
  -2972627.629 5  -2332393.62425  24453714.586
 92  6 11  1  2 30.0020000  0  6G20G 3G24G25G16G17
  -2231428.835 8  -1767410.92129  20951727.151
  -6238559.575 7  -4786362.98025  23033272.647
   5902975.686 7   5821714.45226  22920952.525
 -12628575.960 6  -1738116.85825  24372639.493
  -4938811.655 7  -3967489.52026  22320781.784
  -3065456.860 5  -2404727.92825  24436058.129
 92  6 11  1  3  0.0020000  0  6G20G 3G24G25G16G17
  -2224778.234 8  -1762228.63329  20952992.365
  -6291031.075 7  -4827249.81125  23023289.648
   5991145.518 7   5890418.20326  22937729.210
 -12620932.091 6  -1732160.65625  24374089.169
  -4962275.993 7  -3985773.40526  22316317.995
  -3158091.617 5  -2476910.72625  24418431.082
 92  6 11  1  3 30.0020000  0  6G20G 3G24G25G16G17
  -2217506.555 8  -1756562.39829  20954377.017
  -6343349.438 7  -4868017.33225  23013335.369
   6079538.361 7   5959295.69726  22954550.745
 -12612689.468 6  -1725737.81825  24375654.356
  -4985164.133 7  -4003608.31226  22311958.083
  -3250541.385 5  -2548949.32425  24400836.772
 92  6 11  1  4  0.0020000  0  6G20G 3G24G25G16G17
  -2209628.350 8  -1750423.53729  20955872.951
  -6395514.024 7  -4908665.04025  23003409.811
   6168147.021 7   6028341.36626  22971411.433
 -12603854.264 6  -1718853.26525  24377349.292
  -5007474.401 7  -4020992.92626  22307713.921
  -3342790.949 5  -2620831.97625  24383279.697
 92  6 11  1  4 30.0020000  0  6G20G 3G24G25G16G17
  -2201143.697 8  -1743812.12129  20957491.441
  -6447528.564 7  -4949195.81925  22993508.445
   6256959.986 7   6097546.26426  22988313.941
 -12594440.091 6  -1711517.61625  24379131.049
  -5029204.103 7  -4037925.13226  22303581.462
  -3434831.229 5  -2692551.58425  24365766.301
 92  6 11  1  5  0.0020000  0  6G20G 3G24G25G16G17
  -2192058.425 8  -1736732.68829  20959219.534
  -6499401.873 7  -4989616.52725  22983641.856
   6345959.435 7   6166896.44026  23005250.896
 -12584462.382 6  -1703742.73925  24381035.930
  -5050364.675 7  -4054413.87926  22299553.540
  -3526664.336 5  -2764109.65425  24348292.238
 92  6 11  1  5 30.0020000  0  6G20G 3G24G25G16G17
  -2182386.044 8  -1729195.76729  20961059.151
  -6551142.288 7  -5029933.69225  22973790.496
   6435121.851 7   6236373.63126  23022214.982
 -12573922.017 5  -1695529.48825  24383035.696
  -5070954.137 7  -4070457.58326  22295633.034
  -3618290.710 5  -2835506.70925  24330860.925
 92  6 11  1  6  0.0020000  0  6G20G 3G24G25G16G17
  -2172116.878 8  -1721193.81529  20963013.318
  -6602752.826 7  -5070149.67925  22963969.655
   6524449.719 7   6305979.70526  23039215.823
 -12562810.750 6  -1686871.35025  24385150.042
  -5090982.602 7  -4086064.15326  22291825.730
  -3709694.782 5  -2906730.53625  24313470.924
 92  6 11  1  6 30.0020000  0  6G20G 3G24G25G16G17
  -2161248.164 8  -1712724.69529  20965081.976
  -6654236.772 7  -5110266.99725  22954172.827
   6613948.316 7   6375718.82326  23056246.073
 -12551143.238 6  -1677779.80825  24387372.463
  -5110458.701 7  -4101240.31026  22288115.828
  -3800890.366 5  -2977791.89025  24296111.382
 92  6 11  1  7  0.0020000  0  6G20G 3G24G25G16G17
  -2149786.093 8  -1703793.21229  20967266.054
  -6705592.978 7  -5150284.77225  22944403.430
   6703635.270 7   6445604.78226  23073311.369
 -12538911.606 6  -1668248.63425  24389696.544
  -5129376.306 7  -4115981.29126  22284519.578
  -3891877.844 5  -3048691.09325  24278793.511
 92  6 11  1  7 30.0020000  0  6G20G 3G24G25G16G17
  -2137748.263 8  -1694413.08329  20969553.110
  -6756820.981 7  -5190202.66025  22934651.481
   6793514.839 7   6515640.75526  23090414.768
 -12526111.047 5  -1658274.18125  24392131.459
  -5147727.100 7  -4130280.60026  22281027.715
  -3982654.115 5  -3119425.71225  24261513.983
 92  6 11  1  8  0.0020000  0  6G20G 3G24G25G16G17
  -2125122.726 8  -1684574.99529  20971954.688
  -6807915.638 7  -5230016.66625  22924927.203
   6883586.505 7   6585826.44626  23107557.261
 -12512738.318 6  -1647853.93025  24394676.637
  -5165492.694 7  -4144123.89626  22277645.697
  -4073224.999 5  -3190000.27625  24244281.463
 92  6 11  1  8 30.0020000  0  6G20G 3G24G25G16G17
  -2111895.476 8  -1674268.06529  20974475.433
  -6858875.036 7  -5269725.25925  22915230.026
   6973838.780 7   6656152.84826  23124731.352
 -12498776.186 6  -1636974.31525  24397330.729
  -5182647.611 7  -4157491.33426  22274378.828
  -4163604.083 5  -3260425.46725  24227083.449
 92  6 11  1  9  0.0020000  0  6G20G 3G24G25G16G17
  -2098065.720 8  -1663491.63029  20977104.882
  -6909705.832 7  -5309333.60425  22905558.872
   7064246.611 7   6726600.46926  23141935.871
 -12484210.506 6  -1625624.41425  24400103.540
  -5199196.640 7  -4170386.65126  22271231.697
  -4253801.929 5  -3330709.31525  24209921.800
 92  6 11  1  9 30.0020000  0  6G20G 3G24G25G16G17
  -2083620.040 8  -1652235.25629  20979854.789
  -6960408.435 7  -5348842.12025  22895911.580
   7154788.245 7   6797152.39125  23159162.126
 -12469039.607 6  -1613803.03825  24402987.303
  -5215152.372 7  -4182819.67426  22268196.388
  -4343829.195 5  -3400860.31925  24192795.676
 92  6 11  1 10  0.0020000  0  6G20G 3G24G25G16G17
  -2068522.313 8  -1640470.80029  20982727.730
  -7010973.143 7  -5388243.15425  22886287.793
   7245480.958 7   6867822.02525  23176421.717
 -12453259.628 6  -1601506.93125  24405998.269
  -5230511.443 7  -4194787.76026  22265271.074
  -4433678.792 5  -3470872.85125  24175695.574
 92  6 11  1 10 30.0020000  0  6G20G 3G24G25G16G17
  -2052776.888 8  -1628201.64129  20985725.804
  -7061393.853 7  -5427531.99125  22876692.186
   7336354.954 7   6938632.84926  23193714.586
 -12436889.613 6  -1588751.08325  24409107.986
  -5245292.312 7  -4206305.29226  22262458.001
  -4523320.051 5  -3540723.04525  24158631.747
 92  6 11  1 11  0.0020000  0  6G20G 3G24G25G16G17
  -2036404.927 8  -1615444.27129  20988839.719
  -7111672.493 7  -5466710.10625  22867129.346
   7427430.247 7   7009600.55525  23211043.339
 -12419964.906 5  -1575563.05625  24412333.393
  -5259512.062 7  -4217385.61726  22259753.004
  -4612728.884 5  -3610392.13425  24141619.275
 92  6 11  1 11 30.0020000  0  6G20G 3G24G25G16G17
  -2019420.594 8  -1602209.74229  20992070.822
  -7161809.950 7  -5505778.23525  22857585.693
   7518713.470 7   7080730.38525  23228416.282
 -12402512.474 6  -1561963.77325  24415649.068
  -5273170.043 7  -4228028.16726  22257154.762
  -4701877.174 5  -3679858.20025  24124654.979
 92  6 11  1 12  0.0020000  0  6G20G 3G24G25G16G17
  -2001840.864 8  -1588511.24629  20995417.945
  -7211810.421 7  -5544739.60725  22848069.321
   7610203.216 7   7152021.02425  23245825.830
 -12384559.409 6  -1547974.34025  24419069.610
  -5286266.083 7  -4238232.85326  22254661.478
  -4790756.380 6  -3749114.59325  24107744.436
 92  6 11  1 12 30.0020000  0  6G20G 3G24G25G16G17
  -1983681.137 8  -1574360.83229  20998871.014
  -7261675.575 7  -5583595.53925  22838580.590
   7701873.976 7   7223452.74425  23263269.464
 -12366101.153 6  -1533591.39225  24422579.160
  -5298798.051 7  -4247998.00326  22252279.447
  -4879371.418 6  -3818165.16725  24090877.453
 92  6 11  1 13  0.0020000  0  6G20G 3G24G25G16G17
  -1964927.961 8  -1559747.95829  21002439.773
  -7311396.123 7  -5622338.78125  22829118.930
   7793694.829 7   7295001.42125  23280742.327
 -12347104.776 6  -1518789.00625  24426192.919
  -5310732.072 7  -4257297.26626  22250008.819
  -4967733.834 6  -3887018.95625  24074062.393
 92  6 11  1 13 30.0020000  0  6G20G 3G24G25G16G17
  -1945558.555 8  -1544654.93829  21006124.223
  -7360962.688 7  -5660962.04525  22819688.508
   7885647.632 7   7366652.92825  23298241.783
 -12327542.574 6  -1503545.74825  24429924.375
  -5322045.681 8  -4266113.04226  22247855.920
  -5055855.869 6  -3955685.33525  24057294.162
 92  6 11  1 14  0.0020000  0  6G20G 3G24G25G16G17
  -1925574.379 8  -1529082.85729  21009927.390
  -7410380.246 7  -5699469.21025  22810285.878
   7977729.467 6   7438404.96225  23315768.339
 -12307401.372 6  -1487851.41525  24433757.012
  -5332745.552 8  -4274450.55426  22245819.190
  -5143767.526 6  -4024187.83225  24040566.582
 92  6 11  1 14 30.0020000  0  6G20G 3G24G25G16G17
  -1904974.955 8  -1513031.36329  21013850.444
  -7459650.851 7  -5737861.84525  22800908.250
   8069942.497 7   7510259.20926  23333312.164
 -12286666.174 6  -1471694.07725  24437697.844
  -5342819.245 7  -4282300.19026  22243901.447
  -5231467.657 6  -4092525.46525  24023867.063
 92  6 11  1 15  0.0020000  0  6G20G 3G24G25G16G17
  -1883747.969 8  -1496490.87029  21017889.608
  -7508772.535 7  -5776138.47425  22791561.800
   8162309.928 7   7582233.78826  23350886.418
 -12265339.876 6  -1455076.20625  24441759.732
  -5352268.401 7  -4289663.16726  22242102.093
  -5318949.292 6  -4160692.93425  24007231.220
 92  6 11  1 15 30.0020000  0  6G20G 3G24G25G16G17
  -1861885.860 8  -1479455.46729  21022048.239
  -7557739.974 7  -5814294.88725  22782242.482
   8254862.071 6   7654352.33225  23368499.644
 -12243427.069 6  -1438001.37125  24445925.018
  -5361111.885 7  -4296554.17126  22240421.157
  -5406206.384 6  -4228685.38025  23990624.396
 92  6 11  1 16  0.0020000  0  6G20G 3G24G25G16G17
  -1839394.965 8  -1461930.10029  21026329.215
  -7606557.462 7  -5852334.45325  22772953.742
   8347603.507 6   7726618.33125  23386147.167
 -12220937.876 6  -1420477.86925  24450202.517
  -5369366.986 8  -4302986.70526  22238847.486
  -5493234.712 6  -4296499.59525  23974065.000
 92  6 11  1 16 30.0020000  0  6G20G 3G24G25G16G17
  -1816260.327 8  -1443903.11629  21030731.997
  -7655218.853 7  -5890252.38325  22763691.115
   8440528.758 7   7799027.58125  23403833.723
 -12197880.026 6  -1402510.64625  24454589.260
  -5377022.542 7  -4308952.06226  22237390.345
  -5580021.911 6  -4364125.87625  23957547.695
 92  6 11  1 17  0.0020000  0  6G20G 3G24G25G16G17
  -1792486.180 8  -1425377.81329  21035256.525
  -7703725.577 7  -5928049.80725  22754461.764
   8533626.457 7   7871571.21725  23421550.618
 -12174255.122 6  -1384101.72925  24459084.078
  -5384102.512 7  -4314468.90126  22236043.617
  -5666567.978 5  -4431564.30925  23941076.827
 92  6 11  1 17 30.0020000  0  6G20G 3G24G25G16G17
  -1768093.056 8  -1406370.20629  21039897.042
  -7752081.717 7  -5965729.90025  22745260.744
   8626878.848 6   7944235.35125  23439293.475
 -12150066.217 6  -1365253.21925  24463692.428
  -5390601.509 7  -4319533.06126  22234806.164
  -5752874.775 6  -4498816.21125  23924652.128
 92  6 11  1 18  0.0020000  0  6G20G 3G24G25G16G17
  -1743084.847 8  -1386883.29229  21044658.106
  -7800288.174 7  -6003293.32926  22736087.064
   8720276.591 7   8017012.76325  23457066.161
 -12125311.600 6  -1345963.88425  24468403.277
  -5396489.927 7  -4324121.40926  22233687.668
  -5838925.305 6  -4565868.51825  23908281.661
 92  6 11  1 18 30.0020000  0  6G20G 3G24G25G16G17
  -1717472.627 8  -1366925.73829  21049527.455
  -7848348.899 7  -6040743.21725  22726941.626
   8813816.714 7   8089901.12325  23474865.978
 -12099992.731 6  -1326235.03025  24473218.363
  -5401760.078 7  -4328228.03626  22232685.372
  -5924719.609 5  -4632721.11625  23891954.484
 92  6 11  1 19  0.0020000  0  6G20G 3G24G25G16G17
  -1691279.018 8  -1346515.13229  21054513.034
  -7896271.197 7  -6078085.25425  22717822.659
   8907493.970 7   8162896.40425  23492695.146
 -12074115.744 6  -1306071.12825  24478146.292
  -5406419.079 7  -4331858.40626  22231799.995
  -6010268.177 5  -4699382.19425  23875675.993
 92  6 11  1 19 30.0020000  0  6G20G 3G24G25G16G17
  -1664499.522 8  -1325648.00129  21059610.765
  -7944054.467 7  -6115318.92226  22708729.953
   9001323.600 7   8236010.35525  23510548.506
 -12047694.631 6  -1285483.21925  24483176.630
  -5410435.149 7  -4334987.80726  22231033.816
  -6095579.442 6  -4765858.43525  23859440.283
 92  6 11  1 20  0.0020000  0  6G20G 3G24G25G16G17
  -1637126.157 8  -1304318.11129  21064821.488
  -7991693.327 7  -6152440.08426  22699665.009
   9095306.472 7   8309243.74725  23528433.434
 -12020724.666 6  -1264467.76125  24488309.886
  -5413810.120 7  -4337617.64426  22230392.320
  -6180646.867 6  -4832144.62325  23843253.229
 92  6 11  1 20 30.0020000  0  6G20G 3G24G25G16G17
  -1609147.013 8  -1282516.18929  21070144.842
  -8039181.504 7  -6189443.82726  22690626.416
   9189439.779 7   8382594.30525  23546344.475
 -11993205.657 5  -1243024.40725  24493540.934
  -5416558.491 7  -4339759.23126  22229871.041
  -6265468.029 6  -4898238.92725  23827111.594
 92  6 11  1 21  0.0020000  0  6G20G 3G24G25G16G17
  -1580545.960 8  -1260229.67129  21075584.307
  -8086517.414 7  -6226328.93426  22681620.441
   9283714.249 7   8456054.86125  23564286.994
 -11965138.826 6  -1221154.15725  24498883.626
  -5418689.885 7  -4341420.03526  22229461.914
  -6350036.726 6  -4964136.55825  23811022.032
 92  6 11  1 21 30.0020000  0  6G20G 3G24G25G16G17
  -1551301.092 8  -1237441.46029  21081151.123
  -8133692.920 7  -6263089.02826  22672642.136
   9378132.431 7   8529627.50525  23582253.586
 -11936510.872 5  -1198846.72825  24504329.056
  -5420206.049 7  -4342601.43926  22229175.012
  -6434331.027 6  -5029820.32725  23794975.731
 92  6 11  1 22  0.0020000  0  6G20G 3G24G25G16G17
  -1521415.063 8  -1214153.67229  21086838.785
  -8180723.213 7  -6299736.00726  22663694.831
   9472657.398 7   8603283.32125  23600242.212
 -11907338.632 6  -1176115.16025  24509877.315
  -5421146.467 8  -4343334.24626  22228997.685
  -6518362.912 6  -5095299.59925  23778986.840
 92  6 11  1 22 30.0020000  0  6G20G 3G24G25G16G17
  -1490873.502 8  -1190355.05729  21092652.211
  -8227610.338 7  -6336271.39926  22654770.489
   9567296.531 7   8677028.03725  23618252.454
 -11877630.861 6  -1152966.21725  24515529.332
  -5421509.323 7  -4343616.98926  22228928.193
  -6602143.202 6  -5160582.85025  23763045.406
 92  6 11  1 23  0.0020000  0  6G20G 3G24G25G16G17
  -1459698.397 8  -1166062.77829  21098582.195
  -8274363.109 7  -6372702.10226  22645872.409
   9662057.161 6   8750867.41925  23636278.975
 -11847392.216 6  -1129403.77825  24521289.305
  -5421287.166 7  -4343443.89026  22228969.325
  -6685693.720 6  -5225687.04325  23747145.163
 92  6 11  1 23 30.0020000  0  6G20G 3G24G25G16G17
  -1427903.423 8  -1141287.49028  21104632.097
  -8320972.196 7  -6409020.84026  22637005.477
   9756960.657 6   8824818.19725  23654343.149
 -11816626.286 6  -1105430.29025  24527138.226
  -5420455.788 7  -4342796.04926  22229129.684
  -6769015.116 6  -5290612.72725  23731290.999
 92  6 11  1 24  0.0020000  0  6G20G 3G24G25G16G17
  -1395500.850 8  -1116038.75028  21110797.569
  -8367436.172 8  -6445226.53526  22628161.929
   9852012.321 7   8898884.34025  23672431.427
 -11785331.070 5  -1081044.39425  24533091.774
  -5419000.855 8  -4341662.33926  22229404.234
  -6852117.478 6  -5355367.69625  23715479.555
 92  6 11  1 24 30.0020000  0  6G20G 3G24G25G16G17
  -1362516.232 8  -1090336.44528  21117075.163
  -8413751.900 7  -6481316.68126  22619349.890
   9947219.180 6   8973071.49225  23690547.825
 -11753493.542 6  -1056236.05925  24539154.537
  -5416905.727 7  -4340029.75826  22229800.230
  -6934989.560 6  -5419943.24425  23699699.679
 92  6 11  1 25  0.0020000  0  6G20G 3G24G25G16G17
  -1328972.962 8  -1064198.84628  21123460.593
  -8459917.841 7  -6517290.11226  22610559.555
  10042561.716 6   9047364.31425  23708692.164
 -11721120.259 6  -1031010.12725  24545312.933
  -5414172.928 7  -4337900.31026  22230322.228
  -7017620.630 6  -5484330.99525  23683981.621
 92  6 11  1 25 30.0020000  0  6G20G 3G24G25G16G17
  -1294854.965 8  -1037613.40528  21129950.320
  -8505940.438 8  -6553151.86726  22601807.654
  10138006.784 6   9121737.04325  23726853.771
 -11688223.684 6  -1005376.39425  24551579.046
  -5410815.224 8  -4335283.91226  22230963.154
  -7100002.346 6  -5548524.42625  23668302.745
 92  6 11  1 26  0.0020000  0  6G20G 3G24G25G16G17
  -1260161.590 8  -1010579.61928  21136551.810
  -8551832.882 7  -6588912.20026  22593072.691
  10233519.034 6   9196162.14925  23745028.959
 -11654811.964 6   -979341.41325  24557935.125
  -5406859.292 7  -4332201.36126  22231713.085
  -7182129.052 6  -5612519.17825  23652677.472
 92  6 11  1 26 30.0020000  0  6G20G 3G24G25G16G17
  -1224883.788 8   -983090.42628  21143265.212
  -8597596.203 7  -6624571.89126  22584363.660
  10329099.254 6   9270640.14225  23763217.427
 -11620900.252 6   -952916.68425  24564388.068
  -5402314.316 7  -4328659.82826  22232578.706
  -7263991.119 6  -5676307.72325  23637096.569
 92  6 11  1 27  0.0020000  0  6G20G 3G24G25G16G17
  -1189011.091 8   -955137.70428  21150089.897
  -8643235.967 7  -6660135.33926  22575679.153
  10424743.322 6   9345167.98125  23781419.206
 -11586492.526 6   -926105.47325  24570932.627
  -5397187.822 8  -4324665.15626  22233555.730
  -7345600.490 6  -5739899.35225  23621563.812
 92  6 11  1 27 30.0020000  0  6G20G 3G24G25G16G17
  -1152530.133 8   -926710.97928  21157034.710
  -8688748.755 7  -6695599.82126  22567019.917
  10520470.159 6   9419760.23925  23799634.116
 -11551572.654 6   -898895.29525  24577585.861
  -5391479.713 7  -4320217.27026  22234641.038
  -7426947.271 6  -5803286.33825  23606091.403
 92  6 11  1 28  0.0020000  0  6G20G 3G24G25G16G17
  -1115456.566 8   -897822.51628  21164089.306
  -8734125.896 7  -6730958.60626  22558381.398
  10616312.036 6   9494442.14625  23817871.481
 -11516131.726 6   -871278.97225  24584327.744
  -5385187.656 7  -4315314.37226  22235841.887
  -7508032.018 6  -5866469.16125  23590657.817
 92  6 11  1 28 30.0020000  0  6G20G 3G24G25G16G17
  -1077785.852 8   -868468.71628  21171258.663
  -8779358.797 7  -6766204.99026  22549775.076
  10712284.368 6   9569225.76425  23836130.820
 -11480158.561 6   -843247.95525  24591168.109
  -5378299.058 7  -4309946.63126  22237150.631
  -7588863.700 6  -5929454.78125  23575276.186
 92  6 11  1 29  0.0020000  0  6G20G 3G24G25G16G17
  -1039525.022 8   -838655.10328  21178539.092
  -8824447.587 7  -6801339.09926  22541193.307
  10808373.365 6   9644100.22725  23854421.488
 -11443657.844 6   -814805.95225  24598111.722
  -5370820.105 8  -4304118.88426  22238576.114
  -7669443.942 6  -5992244.51425  23559944.140
 92  6 11  1 29 30.0020000  0  6G20G 3G24G25G16G17
  -1000677.909 8   -808384.63828  21185932.604
  -8869393.693 7  -6836362.00126  22532641.517
  10904575.732 6   9719063.10525  23872727.355
 -11406647.596 6   -785966.76525  24605163.200
  -5362760.395 7  -4297838.56026  22240106.015
  -7749767.666 6  -6054834.34025  23544658.982
 92  6 11  1 30  0.0020000  0  6G20G 3G24G25G16G17
   -961244.256 8   -777657.12228  21193432.422
  -8914194.877 7  -6871271.98126  22524117.938
  11000885.284 6   9794109.48525  23891052.229
 -11369126.986 6   -756729.95325  24612303.747
  -5354110.569 7  -4291098.42726  22241751.006
  -7829838.788 6  -6117227.33425  23529427.726
 92  6 11  1 30 30.0020000  0  6G20G 3G24G25G16G17
   -921203.971 8   -746456.91528  21201053.086
  -8958842.363 8  -6906062.22426  22515622.689
  11097294.155 6   9869233.22425  23909398.658
 -11331093.922 6   -727093.90025  24619543.015
  -5344855.305 7  -4283886.53326  22243515.015
  -7909646.886 6  -6179415.36425  23514237.782
 92  6 11  1 31  0.0020000  0  6G20G 3G24G25G16G17
   -880557.182 8   -714784.11128  21208789.950
  -9003339.066 8  -6940734.94826  22507153.882
  11193797.475 6   9944430.52625  23927766.462
 -11292554.506 6   -697063.22525  24626874.949
  -5334987.577 7  -4276197.38426  22245392.135
  -7989196.648 6  -6241402.09425  23499100.901
 92  6 11  1 31 30.0020000  0  6G20G 3G24G25G16G17
   -839317.757 8   -682649.51128  21216635.969
  -9047694.923 7  -6975297.92926  22498710.917
  11290393.693 6  10019700.28425  23946147.337
 -11253507.839 6   -666637.27625  24634306.085
  -5324499.964 8  -4268025.20326  22247385.216
  -8068504.129 6  -6303200.04225  23484007.430
 92  6 11  1 32  0.0020000  0  6G20G 3G24G25G16G17
   -797488.754 8   -650055.48728  21224596.867
  -9091911.198 8  -7009752.12826  22490298.051
  11387075.260 6  10095036.50825  23964544.281
 -11213959.308 5   -635820.33125  24641825.389
  -5313380.999 7  -4259361.07326  22249505.168
  -8147578.885 6  -6364816.65325  23468958.688
 92  6 11  1 32 30.0020000  0  6G20G 3G24G25G16G17
   -755056.184 8   -616991.16528  21232671.118
  -9135984.091 8  -7044094.64426  22481912.826
  11483849.632 6  10170444.97725  23982957.354
 -11173922.360 6   -604622.71925  24649448.872
  -5301619.953 7  -4250196.59426  22251741.920
  -8226415.259 6  -6426247.49625  23453958.572
 92  6 11  1 33  0.0020000  0  6G20G 3G24G25G16G17
   -712023.052 8   -583458.86228  21240861.298
  -9179912.644 8  -7078324.65426  22473552.214
  11580721.481 6  10245929.54125  24001392.702
 -11133394.341 6   -573042.56124  24657159.534
  -5289226.929 7  -4240539.68826  22254098.258
  -8304993.821 6  -6487477.41725  23438999.408
 92  6 11  1 33 30.0020000  0  6G20G 3G24G25G16G17
   -668389.022 8   -549458.33328  21249165.549
  -9223693.455 8  -7112439.54626  22465224.489
  11677692.528 6  10321491.49225  24019846.396
 -11092378.192 5   -541081.87925  24664961.662
  -5276221.513 7  -4230405.62826  22256571.966
  -8383293.888 6  -6548490.39525  23424099.843
 92  6 11  1 34  0.0020000  0  6G20G 3G24G25G16G17
   -624149.750 8   -514986.20228  21257583.991
  -9267332.395 8  -7146443.88426  22456917.300
  11774761.350 6  10397129.42925  24038314.511
 -11050895.471 6   -508757.68524  24672865.151
  -5262622.513 8  -4219808.98326  22259162.592
  -8461313.857 6  -6609285.06425  23409253.131
 92  6 11  1 34 30.0020000  0  6G20G 3G24G25G16G17
   -579306.334 8   -480043.30428  21266116.744
  -9310821.923 8  -7180331.80526  22448641.739
  11871936.495 6  10472850.17325  24056806.789
 -11008923.751 5   -476052.58724  24680838.431
  -5248432.870 8  -4208752.12326  22261861.504
  -8539037.962 6  -6669849.22125  23394459.932
 92  6 11  1 35  0.0020000  0  6G20G 3G24G25G16G17
   -533880.562 8   -444646.61528  21274758.801
  -9354163.989 8  -7214104.82226  22440393.909
  11969199.049 6  10548639.09325  24075315.286
 -10966461.588 6   -442965.23124  24688925.543
  -5233662.502 8  -4197242.72726  22264671.219
  -8616472.087 6  -6730187.45925  23379735.236
 92  6 11  1 35 30.0020000  0  6G20G 3G24G25G16G17
   -487880.706 8   -408802.59128  21283513.160
  -9397364.432 8  -7247767.46426  22432173.240
  12066540.706 6  10624489.66625  24093840.331
 -10923521.200 5   -409505.15724  24697100.493
  -5218303.313 7  -4185274.52326  22267595.934
  -8693641.291 6  -6790319.21925  23365047.084
 92  6 11  1 36  0.0020000  0  6G20G 3G24G25G16G17
   -441317.627 8   -372519.70028  21292372.507
  -9440427.333 8  -7281322.98126  22423979.552
  12163955.327 6  10700397.18525  24112377.039
 -10880105.311 5   -375674.77324  24705356.657
  -5202346.099 7  -4172840.32726  22270631.812
  -8770560.019 6  -6850255.80725  23350408.009
 92  6 11  1 36 30.0020000  0  6G20G 3G24G25G16G17
   -394197.149 8   -335802.45528  21301338.071
  -9483352.284 8  -7314770.96126  22415805.801
  12261431.328 6  10776352.47525  24130923.819
 -10836200.396 5   -341463.13324  24713713.012
  -5185785.589 8  -4159936.05626  22273783.980
  -8847240.661 6  -6910006.87025  23335812.073
 92  6 11  1 37  0.0020000  0  6G20G 3G24G25G16G17
   -346502.864 8   -298638.09428  21310415.966
  -9526138.804 8  -7348111.06026  22407668.204
  12358967.803 6  10852354.79925  24149484.690
 -10791813.539 5   -306875.98724  24722165.151
  -5168621.763 7  -4146561.63326  22277046.801
  -8923678.604 6  -6969568.81925  23321269.681
 92  6 11  1 37 30.0020000  0  6G20G 3G24G25G16G17
   -298218.554 8   -261013.98328  21319607.093
  -9568774.574 8  -7381333.73326  22399554.231
  12456596.852 6  10928429.31525  24168063.908
 -10746932.977 5   -271904.26324  24730695.836
  -5150841.868 7  -4132707.16626  22280430.889
  -8999851.311 6  -7028924.11425  23306774.566
 92  6 11  1 38  0.0020000  0  6G20G 3G24G25G16G17
   -249342.883 8   -222929.05928  21328907.435
  -9611253.238 8  -7414433.96526  22391471.437
  12554319.429 6  11004576.71525  24186660.963
 -10701555.088 5   -236544.84124  24739333.876
  -5132447.011 8  -4118373.51026  22283934.053
  -9075745.490 6  -7088062.33925  23292329.995
 92  6 11  1 38 30.0020000  0  6G20G 3G24G25G16G17
   -199862.325 8   -184372.79628  21338323.316
  -9653565.314 8  -7447404.38926  22383420.181
  12652135.225 6  11080796.75325  24205274.837
 -10655677.454 5   -200796.04624  24748070.637
  -5113422.945 8  -4103549.56126  22287552.878
  -9151337.799 6  -7146965.37125  23277946.853
 92  6 11  1 39  0.0020000  0  6G20G 3G24G25G16G17
   -149786.595 8   -145352.77228  21347850.091
  -9695716.805 8  -7480249.66926  22375398.154
  12750024.275 6  11157073.88025  24223907.778
 -10609328.124 5   -164679.82324  24756888.463
  -5093784.959 8  -4088247.21426  22291291.710
  -9226615.640 6  -7205623.35525  23263618.962
 92  6 11  1 39 30.0020000  0  6G20G 3G24G25G16G17
    -99125.446 8   -105876.57728  21357493.065
  -9737711.005 8  -7512972.41926  22367404.938
  12847974.978 6  11233399.03225  24242543.536
 -10562519.005 5   -128205.19224  24765792.688
  -5073544.771 8  -4072475.64326  22295142.094
  -9301597.517 6  -7264050.74725  23249353.398
 92  6 11  1 40  0.0020000  0  6G20G 3G24G25G16G17
    -47875.590 8    -65941.64428  21367246.363
  -9779553.111 8  -7545576.62826  22359442.870
  12945959.555 6  11309750.58925  24261189.698
 -10515250.669 5    -91372.87823  24774781.606
  -5052715.588 8  -4056245.12726  22299104.151
  -9376300.886 6  -7322261.09425  23235138.378
 92  6 11  1 40 30.0020000  0  6G20G 3G24G25G16G17
      3965.206 8    -25546.23828  21377110.374
  -9821242.562 8  -7578061.88726  22351510.541
  13043975.688 6  11386126.75625  24279845.003
 -10467521.814 5    -54181.55924  24783875.300
  -5031299.904 7  -4039557.58426  22303181.479
  -9450736.747 6  -7380262.97125  23220971.476
 92  6 11  1 41  0.0020000  0  6G20G 3G24G25G16G17
     56394.974 8     15308.09828  21387086.118
  -9862776.239 8  -7610425.78226  22343608.762
  13142046.989 5  11462545.92425  24298505.135
 -10419328.382 5    -16628.23624  24793042.084
  -5009310.082 8  -4022422.65326  22307366.192
  -9524919.550 6  -7438067.68925  23206854.519
 92  6 11  1 41 30.0020000  0  6G20G 3G24G25G16G17
    109391.980 8     56604.45528  21397171.466
  -9904158.978 8  -7642672.04626  22335732.344
  13240199.759 5  11539028.51125  24317181.426
 -10370670.771 5     21286.61723  24802301.144
  -4986735.706 7  -4004832.23226  22311656.612
  -9598857.727 6  -7495681.77525  23192789.426
 92  6 11  1 42  0.0020000  0  6G20G 3G24G25G16G17
    162937.549 8     98328.25828  21407361.352
  -9945389.607 8  -7674799.78626  22327885.307
  13338447.088 5  11615584.79525  24335882.389
 -10321550.119 5     59562.52224  24811645.735
  -4963561.662 8  -3986774.54626  22316070.276
  -9672538.673 6  -7553095.42425  23178764.955
 92  6 11  1 42 30.0020000  0  5G20G 3G25G16G17
    217018.172 8    140468.96828  21417653.647
  -9986471.640 8  -7706811.74826  22320069.118
 -10271985.876 5     98183.93124  24821076.756
  -4939788.870 7  -3968250.29826  22320594.804
  -9745958.841 6  -7610305.87325  23164796.635
 92  6 11  1 43  0.0020000  0  5G20G 3G25G16G17
    271646.922 8    183036.80428  21428047.122
 -10027395.365 8  -7738700.33626  22312282.218
 -10221976.303 5    137152.29024  24830601.013
  -4915407.394 8  -3949251.72526  22325235.441
  -9819085.249 6  -7667287.43125  23150878.051
 92  6 11  1 43 30.0020000  0  5G20G 3G25G16G17
    326823.138 8    226031.24728  21438546.933
 -10068159.622 8  -7770464.68326  22304525.119
 -10171519.753 5    176469.07924  24840201.147
  -4890407.499 8  -3929771.31826  22329992.098
  -9891904.409 6  -7724029.59025  23137019.964
 92  6 11  1 44  0.0020000  0  5G20G 3G25G16G17
    382563.158 8    269465.00228  21449153.200
 -10108768.193 8  -7802107.70126  22296797.398
 -10120608.568 5    216140.08523  24849887.651
  -4864808.258 8  -3909823.84226  22334864.595
  -9964427.932 6  -7780541.36525  23123220.098
 92  6 11  1 44 30.0020000  0  5G20G 3G25G16G17
    438888.662 8    313354.97228  21459873.449
 -10149216.871 8  -7833626.15126  22289099.687
 -10069244.206 5    256164.15723  24859663.613
  -4838610.514 7  -3889410.01526  22339848.195
 -10036651.963 6  -7836819.75325  23109474.853
 92  6 11  1 45  0.0020000  0  5G20G 3G25G16G17
    495797.715 8    357699.67628  21470702.972
 -10189507.971 8  -7865021.79826  22281433.005
 -10017416.618 5    296549.25924  24869519.890
  -4811802.394 8  -3868520.60026  22344951.142
 -10108571.005 6  -7892860.50025  23095791.276
 92  6 11  1 45 30.0020000  0  5G20G 3G25G16G17
    553259.069 8    402474.73328  21481637.932
 -10229653.895 8  -7896304.31526  22273794.023
  -9965143.175 5    337281.69623  24879469.732
  -4784400.651 7  -3847168.56926  22350165.912
 -10180214.059 6  -7948686.20625  23082155.846
 92  6 11  1 46  0.0020000  0  5G20G 3G25G16G17
    611273.503 8    447680.76028  21492672.662
 -10269648.502 8  -7927468.95126  22266184.002
  -9912429.864 5    378356.96324  24889495.181
  -4756404.491 7  -3825353.37826  22355497.301
 -10251582.202 6  -8004297.69225  23068576.327
 92  6 11  1 46 30.0020000  0  5G20G 3G25G16G17
    669830.587 8    493309.64028  21503820.175
 -10309487.339 8  -7958512.18026  22258602.910
  -9859291.396 5    419763.52024  24899611.797
  -4727803.081 8  -3803066.57026  22360934.187
 -10322663.690 6  -8059685.80225  23055048.282
 92  6 11  1 47  0.0020000  0  5G20G 3G25G16G17
    728913.964 8    539348.60128  21515061.523
 -10349165.399 8  -7989430.13526  22251052.487
  -9805722.908 5    461505.12124  24909801.383
  -4698596.646 8  -3780308.29826  22366493.269
 -10393460.095 6  -8114851.76825  23041571.082
 92  6 11  1 47 30.0020000  0  5G20G 3G25G16G17
    788527.263 8    585800.49928  21526407.138
 -10388676.161 8  -8020217.72426  22243529.945
  -9751727.189 5    503579.69624  24920082.676
  -4668804.211 7  -3757093.42526  22372161.055
 -10463977.545 6  -8169800.38425  23028159.447
 92  6 11  1 48  0.0020000  0  5G20G 3G25G16G17
    848700.836 8    632688.97228  21537857.262
 -10428011.720 8  -8050868.79326  22236044.547
  -9697288.818 5    545999.11724  24930436.638
  -4638415.378 7  -3733413.82126  22377943.332
 -10534206.007 6  -8224523.78825  23014796.168
 92  6 11  1 48 30.0020000  0  5G20G 3G25G16G17
    909445.723 8    680022.62928  21549418.218
 -10467178.114 8  -8081388.04726  22228593.535
  -9642415.923 5    588757.16724  24940884.225
  -4607435.051 7  -3709273.33126  22383841.509
 -10604149.540 6  -8279025.18525  23001483.464
 92  6 11  1 49  0.0020000  0  5G20G 3G25G16G17
    970760.960 8    727800.71028  21561083.473
 -10506186.677 8  -8111784.31726  22221170.464
  -9587113.287 5    631850.10224  24951400.615
  -4575888.993 7  -3684691.97626  22389843.054
 -10673819.709 6  -8333313.56625  22988227.481
 92  6 11  1 49 30.0020000  0  5G20G 3G25G16G17
   1032667.877 8    776039.83628  21572866.126
 -10545040.852 8  -8142060.28726  22213776.622
  -9531385.183 6    675274.47424  24962012.788
  -4543776.740 8  -3659669.44426  22395953.064
 -10743214.171 6  -8387387.10125  22975023.362
 92  6 11  1 50  0.0020000  0  5G20G 3G25G16G17
   1095168.745 8    824741.78428  21584758.053
 -10583741.019 8  -8172216.26526  22206413.240
  -9475240.555 5    719023.50824  24972700.269
  -4511086.480 8  -3634196.51026  22402176.816
 -10812324.587 6  -8441239.31425  22961870.508
 92  6 11  1 50 30.0020000  0  5G20G 3G25G16G17
   1158250.920 8    873896.71328  21596761.293
 -10622278.508 8  -8202245.45826  22199079.867
  -9418673.728 5    763101.50724  24983456.553
  -4477809.836 7  -3608266.68326  22408505.195
 -10881132.934 6  -8494856.17025  22948775.124
 92  6 11  1 51  0.0020000  0  5G20G 3G25G16G17
   1221880.219 8    923477.95228  21608872.279
 -10660658.333 8  -8232151.81426  22191777.492
  -9361692.718 5    807502.21324  24994304.423
  -4443945.048 7  -3581878.53326  22414951.242
 -10949634.189 6  -8548233.70125  22935740.537
 92  6 11  1 51 30.0020000  0  5G20G 3G25G16G17
   1286045.610 8    973476.93928  21621081.477
 -10698880.075 8  -8261934.97226  22184503.628
  -9304307.400 5    852218.04224  25005226.402
  -4409475.287 7  -3555018.99526  22421510.102
 -11017833.259 6  -8601375.77325  22922762.672
 92  6 11  1 52  0.0020000  0  5G20G 3G25G16G17
   1350718.825 8   1023871.62328  21633386.428
 -10736939.399 8  -8291591.57527  22177261.631
  -9246523.240 5    897244.55424  25016218.442
  -4374400.182 7  -3527687.76426  22428183.871
 -11085726.136 6  -8654279.27125  22909843.296
 92  6 11  1 52 30.0020000  0  5G20G 3G25G16G17
   1415886.667 8   1074651.73028  21645788.572
 -10774832.311 8  -8321118.52126  22170053.032
  -9188333.111 5    942587.45824  25027297.063
  -4338720.303 7  -3499885.26526  22434971.832
 -11153312.420 6  -8706943.86425  22896980.730
 92  6 11  1 53  0.0020000  0  5G20G 3G25G16G17
   1481554.375 8   1125821.34828  21658285.061
 -10812557.546 8  -8350514.79327  22162869.824
  -9129752.955 5    988234.33624  25038444.036
  -4302448.128 7  -3471621.20326  22441877.641
 -11220604.413 6  -8759379.11425  22884178.513
 92  6 11  1 53 30.0020000  0  5G20G 3G25G16G17
   1547732.559 8   1177388.73228  21670878.473
 -10850119.487 8  -8379783.82627  22155722.682
  -9070792.715 5   1034177.26024  25049657.923
  -4265603.374 7  -3442911.02726  22448889.487
 -11287613.710 6  -8811594.11225  22871426.541
 92  6 11  1 54  0.0020000  0  5G20G 3G25G16G17
   1614421.673 8   1229354.24628  21683571.026
 -10887515.975 8  -8408923.94327  22148607.978
  -9011452.979 5   1080415.95024  25060949.576
  -4228201.739 7  -3413766.89126  22456004.132
 -11354331.575 6  -8863581.99125  22858730.480
 92  6 11  1 54 30.0020000  0  5G20G 3G25G16G17
   1681650.572 8   1281740.36928  21696363.740
 -10924741.458 8  -8437930.79827  22141521.604
  -8951726.821 5   1126955.77624  25072321.363
  -4190244.005 7  -3384189.46126  22463226.582
 -11420754.572 6  -8915340.13625  22846089.282
 92  6 11  1 55  0.0020000  0  5G20G 3G25G16G17
   1749437.877 8   1334561.62328  21709259.522
 -10961792.389 8  -8466801.62727  22134471.474
  -8891617.725 5   1173793.88624  25083757.516
  -4151721.749 7  -3354172.12126  22470557.377
 -11486880.513 6  -8966866.79325  22833510.500
 92  6 11  1 55 30.0020000  0  5G20G 3G25G16G17
   1817779.565 8   1387814.86828  21722268.267
 -10998669.209 8  -8495536.80927  22127453.902
  -8831108.698 5   1220943.80724  25095264.570
  -4112623.957 8  -3323706.30026  22477997.956
 -11552711.012 6  -9018163.23825  22820977.226
 92  6 11  1 56  0.0020000  0  5G20G 3G25G16G17
   1886672.723 8   1441497.81328  21735377.261
 -11035370.429 8  -8524135.14727  22120470.807
  -8770187.432 5   1268414.83724  25106865.069
  -4072945.533 7  -3292788.08926  22485549.788
 -11618252.409 6  -9069234.40925  22808504.721
 92  6 11  1 56 30.0020000  0  5G20G 3G25G16G17
   1956122.142 8   1495614.21728  21748592.083
 -11071887.246 8  -8552589.79627  22113522.007
  -8708848.876 5   1316211.03224  25118534.940
  -4032666.158 7  -3261401.56226  22493214.432
 -11683501.287 6  -9120077.65225  22796092.743
 92  6 11  1 57  0.0020000  0  5G20G 3G25G16G17
   2026115.556 8   1550154.51328  21761910.933
 -11108219.294 8  -8580900.45627  22106606.755
  -8647099.255 5   1364327.58724  25130287.764
  -3991784.197 7  -3229545.49226  22500992.577
 -11748455.114 7  -9170690.94225  22783730.112
 92  6 11  1 57 30.0020000  0  5G20G 3G25G16G17
   2096638.417 8   1605107.35927  21775331.142
 -11144371.293 8  -8609070.83627  22099727.777
  -8584948.820 5   1412756.43624  25142110.769
  -3950320.518 7  -3197236.15626  22508885.033
 -11813105.605 6  -9221067.92325  22771428.728
 92  6 11  1 58  0.0020000  0  5G20G 3G25G16G17
   2167686.740 8   1660469.65027  21788852.082
 -11180339.416 8  -8637097.93227  22092884.834
  -8522419.135 5   1461480.79724  25154013.639
  -3908273.542 7  -3164472.29026  22516886.254
 -11877435.765 6  -9271195.28325  22759182.656
 92  6 11  1 58 30.0020000  0  5G20G 3G25G16G17
   2239255.493 8   1716237.47927  21802471.803
 -11216126.511 8  -8664983.95127  22086071.661
  -8459526.158 5   1510488.23124  25165976.137
  -3865638.680 8  -3131250.29826  22525000.497
 -11941432.620 6  -9321062.90925  22747007.634
 92  6 11  1 59  0.0020000  0  5G20G 3G25G16G17
   2311339.421 8   1772406.74827  21816189.676
 -11251738.308 8  -8692733.40227  22079297.311
  -8396272.708 5   1559776.53523  25178015.802
  -3822435.916 7  -3097585.81726  22533218.108
 -12005102.630 6  -9370675.86125  22734890.203
 92  6 11  1 59 30.0020000  0  5G20G 3G25G16G17
   2383936.763 8   1828976.06927  21830003.003
 -11287169.561 8  -8720342.15227  22072553.929
  -8332652.021 5   1609351.05624  25190126.968
  -3778659.367 7  -3063474.23226  22541549.190
 -12068447.792 7  -9420035.68125  22722834.739
 92  6 11  2  0  0.0020000  0  5G20G 3G25G16G17
   2457049.327 8   1885946.86427  21843916.221
 -11322417.985 8  -8747808.42827  22065844.694
  -8268659.666 5   1659215.24624  25202300.221
  -3734300.086 7  -3028908.57026  22549992.395
 -12131481.510 7  -9469152.82425  22710840.252
 92  6 11  2  0 30.0020000  0  5G20G 3G25G16G17
   2530677.342 8   1943319.31227  21857927.981
 -11357486.863 8  -8775134.81927  22059173.922
  -8204289.971 5   1709373.27323  25214552.708
  -3689383.270 7  -2993908.48226  22558537.260
 -12194217.492 7  -9518037.94326  22698903.866
 92  6 11  2  1  0.0020000  0  5G20G 3G25G16G17
   2604811.610 8   2001086.24127  21872032.797
 -11392373.701 8  -8802319.35727  22052534.928
  -8139541.336 5   1759826.78623  25226864.615
  -3643920.354 8  -2958482.84726  22567191.428
 -12256665.191 7  -9566698.45326  22687022.071
 92  6 11  2  1 30.0020000  0  5G20G 3G25G16G17
   2679454.633 8   2059249.60127  21886240.411
 -11427073.635 8  -8829358.25127  22045931.010
  -8074421.203 5   1810569.81823  25239258.485
  -3597893.625 7  -2922617.88526  22575949.625
 -12318805.375 7  -9615119.34926  22675194.899
 92  6 11  2  2  0.0020000  0  5G20G 3G25G16G17
   2754607.394 8   2117810.15027  21900539.072
 -11461585.538 8  -8856250.60627  22039363.096
  -8008934.423 5   1861598.12822  25251724.425
  -3551308.715 7  -2886317.95526  22584813.079
 -12380629.204 7  -9663293.71426  22663427.745
 92  6 11  2  2 30.0020000  0  5G20G 3G25G16G17
   2830263.857 8   2176763.22427  21914937.235
 -11495916.041 8  -8883001.64627  22032831.488
  -7943091.329 5   1912904.51722  25264258.748
  -3504170.261 7  -2849586.71326  22593785.328
 -12442130.481 7  -9711216.74026  22651727.835
 92  6 11  2  3  0.0020000  0  5G20G 3G25G16G17
   2906412.955 8   2236100.13227  21929428.243
 -11530068.938 8  -8909614.25927  22026331.298
  -7876902.571 5   1964480.34422  25276848.892
  -3456458.150 7  -2812408.46326  22602864.483
 -12503306.607 7  -9758886.40826  22640086.055
 92  6 11  2  3 30.0020000  0  5G20G 3G25G16G17
   2983053.624 8   2295820.10427  21944012.306
 -11564049.904 8  -8936092.90927  22019865.614
  -7810374.797 5   2016320.32722  25289507.898
  -3408180.638 8  -2774789.63826  22612052.192
 -12564161.004 7  -9806305.37726  22628504.023
 92  6 11  2  4  0.0020000  0  5G20G 3G25G16G17
   3060177.923 8   2355916.94027  21958686.308
 -11597854.509 8  -8962434.15227  22013432.638
  -7743501.851 5   2068429.12922  25302238.735
  -3359349.966 7  -2736739.75626  22621342.970
 -12624714.089 7  -9853489.54726  22616984.198
 92  6 11  2  4 30.0020000  0  5G20G 3G25G16G17
   3137765.399 8   2416374.67427  21973453.425
 -11631481.047 8  -8988636.63327  22007034.707
  -7676288.624 5   2120803.32722  25315028.600
  -3309960.419 7  -2698254.42726  22630740.924
 -12684973.980 7  -9900445.25926  22605517.586
 92  6 11  2  5  0.0020000  0  5G20G 3G25G16G17
   3215795.010 8   2477176.93027  21988302.055
 -11664931.610 8  -9014701.99327  22000668.644
  -7608747.825 5   2173432.61223  25327878.844
  -3260024.432 7  -2659343.33026  22640240.747
 -12744964.209 7  -9947190.86826  22594101.129
 92  6 11  2  5 30.0020000  0  5G20G 3G25G16G17
   3294276.669 8   2538331.43827  22003234.718
 -11698196.552 8  -9040622.70527  21994339.546
  -7540878.048 5   2226318.14423  25340800.769
  -3209552.090 7  -2620014.22726  22649850.775
 -12804677.825 7  -9993720.90526  22582738.006
 92  6 11  2  6  0.0020000  0  5G20G 3G25G16G17
   3373223.816 8   2599848.65727  22018260.076
 -11731265.781 8  -9066390.94627  21988044.893
  -7472685.068 5   2279455.30422  25353771.169
  -3158535.656 7  -2580261.16126  22659558.024
 -12864100.920 7 -10040024.58226  22571429.864
 92  6 11  2  6 30.0020000  0  5G20G 3G25G16G17
   3452662.095 8   2661748.58227  22033375.282
 -11764140.067 8  -9092007.25927  21981789.784
  -7404169.704 5   2332843.91623  25366807.135
  -3106978.816 7  -2540087.03226  22669368.403
 -12923212.993 7 -10086085.90926  22560180.242
 92  6 11  2  7  0.0020000  0  5G20G 3G25G16G17
   3532626.658 8   2724058.59327  22048590.468
 -11796821.585 8  -9117473.35427  21975569.600
  -7335336.813 5   2386479.90722  25379903.808
  -3054898.976 8  -2499505.34026  22679279.841
 -12982010.798 7 -10131902.33126  22548992.287
 92  6 11  2  7 30.0020000  0  5G20G 3G25G16G17
   3613145.814 8   2786800.76027  22063917.238
 -11829305.707 8  -9142785.66827  21969389.288
  -7266178.797 5   2440369.09023  25393071.293
  -3002292.945 7  -2458513.63126  22689288.323
 -13040473.644 7 -10177457.76326  22537865.011
 92  6 11  2  8  0.0020000  0  5G20G 3G25G16G17
   3694218.553 8   2849974.26627  22079341.170
 -11861584.547 8  -9167937.99327  21963246.571
  -7196687.173 5   2494518.40223  25406294.928
  -2949148.291 7  -2417102.26326  22699401.851
 -13098598.759 7 -10222750.01826  22526804.678
 92  6 11  2  8 30.0020000  0  4G20G 3G16G17
   3775829.450 8   2913567.14327  22094872.668
 -11893653.049 8  -9192926.43127  21957143.486
  -2895452.729 7  -2375261.60326  22709620.277
 -13156385.757 7 -10267778.80926  22515810.119
 92  6 11  2  9  0.0020000  0  4G20G 3G16G17
   3857945.999 8   2977554.03827  22110498.480
 -11925511.241 8  -9217750.99927  21951082.012
  -2841201.653 7  -2332988.03326  22719941.082
 -13213846.105 7 -10312553.07426  22504870.932
 92  6 11  2  9 30.0020000  0  4G20G 3G16G17
   3940523.865 8   3041900.39027  22126214.261
 -11957160.616 8  -9242412.83627  21945058.642
  -2786385.726 8  -2290274.31426  22730371.761
 -13270968.350 7 -10357063.88326  22494003.725
 92  6 11  2 10  0.0020000  0  4G20G 3G16G17
   4023537.542 8   3106586.32227  22142011.045
 -11988597.908 8  -9266909.41727  21939077.393
  -2730999.814 7  -2247116.51126  22740913.004
 -13327746.662 7 -10401306.68826  22483198.576
 92  6 11  2 10 30.0020000  0  4G20G 3G16G17
   4106973.300 8   3171601.17327  22157889.672
 -12019831.921 8  -9291247.61227  21933129.870
  -2675058.328 7  -2203525.74426  22751557.255
 -13384187.084 7 -10445286.20326  22472461.599
 92  6 11  2 11  0.0020000  0  4G20G 3G16G17
   4190830.448 8   3236944.36727  22173843.068
 -12050869.175 8  -9315432.49027  21927225.997
  -2618579.761 7  -2159516.49326  22762308.382
 -13440297.282 7 -10489008.40626  22461782.092
 92  6 11  2 11 30.0020000  0  5G20G 3G23G16G17
   4275114.659 8   3302620.33727  22189883.463
 -12081714.798 8  -9339468.02327  21921359.509
   -124280.58715   -109805.38631  25630808.301
  -2561577.990 7  -2115099.55926  22773155.592
 -13496087.010 7 -10532480.86926  22451163.713
 92  6 11  2 12  0.0020000  0  5G20G 3G23G16G17
   4359843.030 8   3368642.40227  22206007.351
 -12112370.144 8  -9363355.31027  21915525.308
   -225033.199 5   -188313.69023  25611631.027
  -2504069.543 7  -2070287.79426  22784096.968
 -13551585.143 7 -10575726.13626  22440603.194
 92  6 11  2 12 30.0020000  0  5G20G 3G23G16G17
   4445032.840 8   3435024.05127  22222217.759
 -12142831.976 8  -9387091.79627  21909729.930
   -325766.585 6   -266806.99924  25592469.072
  -2446052.905 7  -2025079.99326  22795137.545
 -13606800.085 7 -10618750.72626  22430095.798
 92  6 11  2 13  0.0020000  0  5G20G 3G23G16G17
   4530703.812 8   3501780.60427  22238521.492
 -12173089.991 8  -9410669.45427  21903969.537
   -426476.870 5   -345282.37425  25573299.953
  -2387507.071 7  -1979459.93126  22806276.573
 -13661729.548 7 -10661552.88226  22419643.864
 92  6 11  2 13 30.0020000  0  5G20G 3G23G16G17
   4616857.574 8   3568913.36727  22254916.422
 -12203133.171 8  -9434079.72327  21898257.532
   -527153.532 5   -423731.46625  25554148.521
  -2328419.965 7  -1933418.08026  22817519.540
 -13716358.151 7 -10704120.58426  22409251.288
 92  6 11  2 14  0.0020000  0  5G20G 3G23G16G17
   4703490.664 7   3636419.62827  22271400.750
 -12232954.413 8  -9457317.04227  21892580.452
   -627783.223 5   -502143.98625  25534996.460
  -2268787.947 8  -1886951.55226  22828871.181
 -13770665.808 7 -10746438.20726  22398911.836
 92  6 11  2 14 30.0020000  0  5G20G 3G23G16G17
   4790593.889 8   3704292.22127  22287978.494
 -12262557.931 8  -9480384.70727  21886941.296
   -728356.304 5   -580512.40724  25515856.570
  -2208612.597 7  -1840061.64426  22840321.365
 -13824633.401 7 -10788490.85826  22388649.251
 92  6 11  2 15  0.0020000  0  5G20G 3G23G16G17
   4878143.728 8   3772512.83627  22304636.881
 -12291948.682 8  -9503286.57727  21881350.886
   -828864.703 5   -658830.46324  25496722.856
  -2147909.583 7  -1792760.60026  22851874.317
 -13878253.030 7 -10830272.33926  22378443.356
 92  6 11  2 15 30.0020000  0  5G20G 3G23G16G17
   4966120.980 8   3841066.50527  22321377.142
 -12321135.429 8  -9526029.50027  21875796.751
   -929304.757 5   -737095.29924  25477615.284
  -2086707.515 7  -1745070.78526  22863519.635
 -13931525.078 7 -10871782.98726  22368304.645
 92  6 11  2 16  0.0020000  0  5G20G 3G23G16G17
   5054526.915 7   3909954.20327  22338201.465
 -12350121.665 8  -9548616.15727  21870283.058
  -1029676.104 5   -815306.50423  25458515.716
  -2025015.877 7  -1696999.36226  22875257.259
 -13984458.376 7 -10913029.69426  22358232.428
 92  6 11  2 16 30.0030000  0  5G20G 3G23G16G17
   5143365.792 8   3979179.24327  22355107.631
 -12378901.878 8  -9571042.28227  21864803.811
  -1129979.945 5   -893465.17323  25439427.511
  -1962815.833 7  -1648531.80026  22887098.222
 -14037056.875 7 -10954015.50826  22348220.769
 92  6 11  2 17  0.0030000  0  5G20G 3G23G16G17
   5232630.234 8   4048735.90327  22372093.692
 -12407469.613 8  -9593302.85427  21859368.694
  -1230226.279 5   -971578.89423  25420355.164
  -1900106.832 7  -1599667.68326  22899027.293
 -14089333.417 7 -10994750.43726  22338274.015
 92  6 11  2 17 30.0030000  0  5G20G 3G23G16G17
   5322347.049 8   4118645.09227  22389164.924
 -12435819.239 8  -9615393.46027  21853974.318
  -1330430.657 5  -1049659.99623  25401275.623
  -1836879.504 7  -1550399.66126  22911058.804
 -14141290.461 7 -11035236.43026  22328385.480
 92  6 11  2 18  0.0030000  0  5G20G 3G23G16G17
   5412515.265 7   4188905.97827  22406323.095
 -12463948.373 8  -9637312.24827  21848620.805
  -1430598.691 5  -1127712.87324  25382227.020
  -1773124.142 7  -1500720.19426  22923189.606
 -14192919.067 7 -11075466.48126  22318561.042
 92  6 11  2 18 30.0030000  0  5G20G 3G23G16G17
   5503130.297 8   4259515.04827  22423567.637
 -12491850.167 8  -9659053.90127  21843309.561
  -1530718.208 5  -1205727.86724  25363162.198
  -1708834.160 7  -1450624.09426  22935424.226
 -14244221.760 7 -11115442.55526  22308800.339
 92  6 11  2 19  0.0030000  0  5G20G 3G23G16G17
   5594200.779 7   4330479.01427  22440899.239
 -12519520.814 8  -9680615.42827  21838043.467
  -1630774.019 5  -1283693.23824  25344133.052
  -1644014.935 7  -1400115.63026  22947759.607
 -14295189.812 7 -11155157.89126  22299103.192
 92  6 11  2 19 30.0030000  0  5G20G 3G23G16G17
   5685710.380 7   4401785.15327  22458312.444
 -12546967.445 8  -9702002.39828  21832822.402
  -1730743.151 5  -1361591.03625  25325107.593
  -1578677.802 7  -1349203.62326  22960193.739
 -14345813.140 7 -11194604.60726  22289469.931
 92  6 11  2 20  0.0030000  0  5G20G 3G23G16G17
   5777638.044 7   4473417.04927  22475806.803
 -12574189.401 8  -9723214.28528  21827640.519
  -1830610.897 5  -1439409.86425  25306100.061
  -1512818.309 7  -1297884.54026  22972725.903
 -14396102.469 7 -11233791.07126  22279900.226
 92  6 11  2 20 30.0030000  0  5G20G 3G23G16G17
   5869982.789 7   4545373.94527  22493379.797
 -12601184.257 8  -9744249.25228  21822507.442
  -1930373.296 5  -1517146.59025  25287114.235
  -1446433.153 7  -1246155.88126  22985355.110
 -14446068.223 7 -11272725.37426  22270389.580
 92  6 11  2 21  0.0030000  0  5G20G 3G23G16G17
   5962748.618 7   4617658.95327  22511032.447
 -12627954.524 8  -9765109.16928  21817411.540
  -2030033.646 5  -1594803.84725  25268155.570
  -1379538.362 7  -1194030.07126  22998089.004
 -14495703.580 7 -11311402.25026  22260947.017
 92  6 11  2 21 30.0030000  0  5G20G 3G23G16G17
   6055918.252 7   4690258.60327  22528757.766
 -12654511.475 8  -9785802.88928  21812358.119
  -2129619.373 5  -1672402.92325  25249195.646
  -1312169.083 7  -1141534.56226  23010911.038
 -14545037.513 7 -11349844.26526  22251556.858
 92  6 11  2 22  0.0030000  0  5G20G 3G23G16G17
   6149489.832 7   4763171.47627  22546563.459
 -12680860.040 8  -9806334.23628  21807343.760
  -2229154.873 5  -1749962.88925  25230263.662
  -1244343.323 7  -1088683.34826  23023814.765
 -14594086.518 7 -11388064.22826  22242226.177
 92  6 11  2 22 30.0030000  0  5G20G 3G23G16G17
   6243468.531 7   4836401.57027  22564448.687
 -12706996.579 8  -9826700.34728  21802369.783
  -2328634.493 5  -1827479.32625  25211333.897
  -1176076.215 7  -1035488.23726  23036805.371
 -14642835.037 7 -11426050.05226  22232947.661
 92  6 11  2 23  0.0030000  0  5G20G 3G23G16G17
   6337845.846 7   4909942.29526  22582408.954
 -12732922.365 8  -9846902.24728  21797436.429
  -2428063.951 5  -1904956.65625  25192405.001
  -1107381.942 7   -981960.22826  23049878.781
 -14691289.876 7 -11463807.04526  22223725.235
 92  6 11  2 23 30.0030000  0  5G20G 3G23G16G17
   6432606.236 7   4983781.50926  22600440.061
 -12758642.167 8  -9866943.64128  21792541.807
  -2527458.764 5  -1982406.95925  25173493.763
  -1038251.505 7   -928092.34426  23063034.663
 -14739459.251 7 -11501341.59826  22214561.179
 92  6 11  2 24  0.0030000  0  5G20G 3G23G16G17
   6527729.416 7   5057903.40326  22618541.260
 -12784154.212 8  -9886823.15128  21787689.816
  -2626800.251 5  -2059815.70025  25154587.681
   -968662.201 7   -873866.93826  23076276.406
 -14787332.611 7 -11538645.47826  22205451.356
 92  6 11  2 24 30.0030000  0  5G20G 3G23G16G17
   6623215.349 7   5132307.97426  22636715.068
 -12809449.795 8  -9906533.98628  21782872.871
  -2726072.291 5  -2137170.39825  25135704.474
   -898593.325 7   -819267.87126  23089609.616
 -14834901.686 7 -11575712.26726  22196398.373
 92  6 11  2 25  0.0030000  0  5G20G 3G23G16G17
   6719066.418 7   5206997.07826  22654949.735
 -12834525.565 8  -9926073.52428  21778105.331
  -2825273.158 5  -2214469.63325  25116827.862
   -828036.570 7   -764288.59826  23103038.579
 -14882158.048 7 -11612535.37926  22187403.100
 92  6 11  2 25 30.0030000  0  5G20G 3G23G16G17
   6815284.398 7   5281972.10026  22673264.326
 -12859377.773 8  -9945438.88228  21773373.617
  -2924379.866 5  -2291695.45325  25097958.895
   -756987.989 7   -708926.09426  23116556.041
 -14929074.144 7 -11649093.34127  22178477.859
 92  6 11  2 26  0.0030000  0  5G20G 3G23G16G17
   6911877.480 7   5357239.37626  22691641.424
 -12883999.082 8  -9964624.29328  21768688.850
  -3023373.857 5  -2368833.47325  25079131.628
   -685453.620 7   -653185.08626  23130170.426
 -14975632.809 7 -11685372.79527  22169617.073
 92  6 11  2 26 30.0030000  0  5G20G 3G23G16G17
   7008872.615 7   5432819.93426  22710099.435
 -12908382.667 8  -9983624.46928  21764046.414
  -3122260.720 5  -2445888.07325  25060301.244
   -613442.064 7   -597072.14226  23143872.710
 -15021821.859 7 -11721364.24227  22160826.229
 92  6 11  2 27  0.0030000  0  5G20G 3G23G16G17
   7106272.327 7   5508715.78726  22728634.943
 -12932527.346 8 -10002438.51028  21759451.645
  -3221045.400 5  -2522863.02025  25041514.480
   -540965.383 7   -540596.86326  23157662.474
 -15067633.615 7 -11757061.67927  22152109.524
 92  6 11  2 27 30.0030000  0  5G20G 3G23G16G17
   7204061.168 7   5584914.81926  22747244.260
 -12956437.003 8 -10021069.39628  21754903.943
  -3319735.817 5  -2599764.47625  25022728.286
   -468025.181 7   -483760.36226  23171544.394
 -15113093.586 7 -11792485.00727  22143458.503
 92  6 11  2 28  0.0030000  0  5G20G 3G23G16G17
   7302235.807 7   5661414.47526  22765925.408
 -12980113.718 8 -10039518.77128  21750401.840
  -3418346.157 5  -2676603.59625  25003967.394
   -394626.885 7   -426566.89326  23185511.125
 -15158231.243 7 -11827657.17627  22134871.757
 92  6 11  2 28 30.0030000  0  5G20G 3G23G16G17
   7400782.247 7   5738203.87426  22784678.505
 -13003564.540 8 -10057792.12128  21745936.252
  -3516875.527 5  -2753379.62425  24985210.279
   -320779.186 7   -369023.23826  23199563.956
 -15203069.916 7 -11862596.39127  22126335.737
 92  6 11  2 29  0.0030000  0  5G20G 3G23G16G17
   7499692.578 7   5815276.77126  22803502.594
 -13026784.738 8 -10075885.79028  21741517.790
  -3615294.706 5  -2830069.76425  24966486.051
   -246478.475 7   -311126.61826  23213702.708
 -15247619.039 7 -11897309.96427  22117861.893
 92  6 11  2 29 30.0030000  0  5G20G 3G23G16G17
   7598967.848 7   5892634.05426  22822393.536
 -13049769.216 8 -10093795.75128  21737142.769
  -3713585.442 5  -2906659.78825  24947782.060
   -171728.229 7   -252879.67626  23227927.620
 -15291885.299 7 -11931803.12027  22109437.425
 92  6 11  2 30  0.0030000  0  5G20G 3G23G16G17
   7698616.317 7   5970282.16226  22841356.968
 -13072514.672 8 -10111519.47128  21732815.775
  -3811733.266 5  -2983138.51725  24929100.163
    -96536.713 7   -194288.94226  23242233.986
 -15335854.810 7 -11966065.04627  22101067.849
 92  6 11  2 30 30.0030000  0  5G20G 3G23G16G17
   7798637.212 7   6048220.45926  22860390.191
 -13095021.958 8 -10129057.62028  21728531.890
  -3909734.186 5  -3059502.68025  24910451.483
    -20901.782 7   -135352.60626  23256629.630
 -15379516.719 7 -12000087.29227  22092757.992
 92  6 11  2 31  0.0030000  0  5G20G 3G23G16G17
   7899023.474 7   6126443.44826  22879492.667
 -13117294.134 8 -10146412.54128  21724290.756
  -4007609.197 5  -3135768.75825  24891829.395
     55172.306 6    -76074.10426  23271104.659
 -15422868.185 7 -12033867.61627  22084513.429
 92  6 11  2 31 30.0030000  0  5G20G 3G23G16G17
   7999768.577 7   6204946.07826  22898666.013
 -13139327.774 8 -10163581.59028  21720099.868
  -4105379.962 5  -3211953.61825  24873226.703
    131693.102 7    -16447.58826  23285666.808
 -15465891.390 7 -12067392.16227  22076324.628
 92  6 11  2 32  0.0030000  0  5G20G 3G23G16G17
   8100868.043 7   6283724.79926  22917900.068
 -13161118.488 8 -10180561.37528  21715949.181
  -4203048.392 5  -3288058.69925  24854643.079
    208672.793 7     43536.55926  23300315.867
 -15508574.557 7 -12100651.76527  22068203.671
 92  6 11  2 32 30.0030000  0  5G20G 3G23G16G17
   8202308.117 7   6362768.95126  22937204.184
 -13182662.745 8 -10197349.09828  21711854.076
  -4300623.049 5  -3364090.75925  24836070.846
    286104.801 7    103873.22026  23315048.358
 -15550914.866 7 -12133644.18127  22060145.309
 92  6 11  2 33  0.0030000  0  5G20G 3G23G16G17
   8304073.765 7   6442066.81726  22956569.907
 -13203958.165 8 -10213942.91528  21707800.882
  -4398106.295 5  -3440051.63225  24817521.727
    363974.289 7    164550.69026  23329866.619
 -15592919.808 7 -12166375.26127  22052151.313
 92  6 11  2 33 30.0030000  0  5G20G 3G23G16G17
   8406151.294 7   6521607.65926  22975995.170
 -13225010.404 8 -10230347.23628  21703797.364
  -4495485.209 5  -3515931.14825  24798991.465
    442269.104 7    225559.58826  23344766.814
 -15634593.513 8 -12198848.26927  22044219.644
 92  6 11  2 34  0.0030000  0  5G20G 3G23G16G17
   8508548.939 7   6601397.96826  22995481.799
 -13245822.157 8 -10246564.19328  21699833.628
  -4592740.270 5  -3591714.20225  24780485.517
    520976.642 7    286890.14026  23359744.445
 -15675951.148 8 -12231074.97127  22036350.212
 92  6 11  2 34 30.0030000  0  5G20G 3G23G16G17
   8611271.714 7   6681441.64726  23015030.546
 -13266393.470 8 -10262593.78328  21695918.848
  -4689869.360 6  -3667399.06225  24762001.483
    600097.546 7    348542.78526  23374803.170
 -15716999.342 8 -12263060.53227  22028540.379
 92  6 11  2 35  0.0030000  0  5G20G 3G23G16G17
   8714341.072 7   6761755.35126  23034640.240
 -13286711.603 8 -10278426.05528  21692055.183
  -4786848.259 6  -3742966.91825  24743543.831
    679654.713 7    410535.32525  23389943.769
 -15757722.443 8 -12294792.81327  22020787.416
 92  6 11  2 35 30.0030000  0  5G20G 3G23G16G17
   8817774.328 7   6842352.61726  23054326.322
 -13306772.192 8 -10294057.68928  21688230.670
  -4883660.819 6  -3818405.15225  24725118.886
    759651.275 7    472870.28325  23405163.812
 -15798112.899 8 -12326265.88727  22013103.256
 92  6 11  2 36  0.0030000  0  5G20G 3G23G16G17
   8921569.279 7   6923231.76926  23074074.521
 -13326568.986 8 -10309483.74528  21684470.733
  -4980320.567 6  -3893724.30725  24706730.576
    840082.478 7    535543.93725  23420471.335
 -15838179.419 8 -12357486.51727  22005478.634
 92  6 11  2 36 30.0030000  0  5G20G 3G23G16G17
   9025682.661 7   7004358.98526  23093888.284
 -13346106.546 8 -10324707.80528  21680749.110
  -5076852.950 6  -3968944.23525  24688357.676
    920943.297 7    598552.31026  23435857.463
 -15877922.500 8 -12388455.12627  21997916.849
 92  6 11  2 37  0.0030000  0  5G20G 3G23G16G17
   9130104.591 7   7085726.65626  23113758.318
 -13365379.966 8 -10339726.03728  21677083.068
  -5173257.042 6  -4044064.18125  24670011.786
   1002225.955 7    661889.39926  23451323.996
 -15917337.755 8 -12419168.29327  21990417.900
 92  6 11  2 37 30.0030000  0  5G20G 3G23G16G17
   9234822.079 7   7167324.65526  23133686.722
 -13384382.188 8 -10354532.95228  21673467.061
  -5269531.673 5  -4119083.26325  24651693.598
   1083940.928 7    725563.36326  23466872.852
 -15956428.508 8 -12449628.59127  21982978.731
 92  6 11  2 38  0.0030000  0  5G20G 3G23G16G17
   9339829.398 7   7249148.45026  23153667.470
 -13403111.365 8 -10369127.10328  21669901.629
  -5365678.370 5  -4194002.65125  24633399.782
   1166100.691 7    789584.01625  23482510.326
 -15995184.826 8 -12479828.29927  21975605.755
 92  6 11  2 38 30.0030000  0  5G20G 3G23G16G17
   9445147.806 7   7331214.66126  23173711.174
 -13421567.261 9 -10383508.30728  21666391.689
  -5461672.753 5  -4268803.34225  24615128.541
   1248715.842 7    853959.38125  23498230.304
 -16033593.320 8 -12509756.96727  21968295.046
 92  6 11  2 39  0.0030000  0  5G20G 3G23G16G17
   9550814.173 7   7413552.03226  23193817.384
 -13439743.762 9 -10397671.81728  21662935.052
  -5557489.962 5  -4343465.95025  24596894.984
   1331778.907 7    918683.82025  23514035.662
 -16071648.097 8 -12539410.01027  21961051.221
 92  6 11  2 39 30.0030000  0  5G20G 3G23G16G17
   9656835.466 7   7496165.94226  23213994.046
 -13457642.809 8 -10411619.10028  21659525.123
  -5653121.212 6  -4417983.65825  24578703.338
   1415273.265 7    983744.30925  23529923.853
 -16109349.387 8 -12568787.63527  21953876.917
 92  6 11  2 40  0.0030000  0  5G20G 3G23G16G17
   9763209.906 7   7579055.04826  23234235.374
 -13475270.333 9 -10425354.82528  21656173.623
  -5748560.790 5  -4492352.05025  24560533.726
   1499166.825 7   1049115.91225  23545884.923
 -16146699.529 8 -12597891.61427  21946769.138
 92  6 11  2 40 30.0030000  0  5G20G 3G23G16G17
   9869912.646 7   7662199.99926  23254540.197
 -13492633.900 8 -10438884.87228  21652868.171
  -5843814.146 6  -4566575.29925  24542409.713
   1583429.305 7   1114774.95425  23561925.109
 -16183712.648 8 -12626732.98627  21939725.124
 92  6 11  2 41  0.0030000  0  5G20G 3G23G16G17
   9976912.994 7   7745576.79826  23274901.711
 -13509738.480 9 -10452213.10928  21649613.744
  -5938898.120 6  -4640666.57025  24524315.919
   1668038.366 6   1180704.04325  23578024.713
 -16220398.818 8 -12655319.58127  21932745.806
 92  6 11  2 41 30.0030000  0  5G20G 3G23G16G17
  10084196.036 7   7829173.91426  23295319.046
 -13526581.641 9 -10465337.64328  21646407.554
  -6033815.809 6  -4714628.28025  24506255.612
   1753001.347 7   1246908.92026  23594193.150
 -16256768.500 8 -12683659.57027  21925826.656
 92  6 11  2 42  0.0030000  0  5G20G 3G23G16G17
  10191752.481 7   7912984.07626  23315784.738
 -13543156.314 9 -10478252.95328  21643254.307
  -6128570.146 6  -4788462.73925  24488223.096
   1838342.263 7   1313408.31126  23610432.817
 -16292823.402 8 -12711754.29427  21918959.310
 92  6 11  2 42 30.0030000  0  5G20G 3G23G16G17
  10299588.865 6   7997012.33926  23336305.052
 -13559459.260 9 -10490956.55628  21640149.506
  -6223171.087 6  -4862177.64025  24470222.298
   1924070.553 6   1380209.53226  23626745.275
 -16328566.276 8 -12739605.86427  21912163.525
 92  6 11  2 43  0.0030000  0  5G20G 3G23G16G17
  10407715.190 6   8081266.54426  23356884.515
 -13575483.855 9 -10503443.24628  21637104.514
  -6317609.236 6  -4935765.68225  24452255.106
   2010208.936 7   1447330.32925  23643135.468
 -16363999.651 8 -12767216.26127  21905417.955
 92  6 11  2 43 30.0030000  0  5G20G 3G23G16G17
  10516129.748 6   8165745.35626  23377511.436
 -13591235.375 9 -10515717.14428  21634105.061
  -6411884.102 5  -5009226.51825  24434309.919
   2096763.278 7   1514775.26525  23659608.524
 -16399129.885 8 -12794590.44227  21898735.701
 92  6 11  2 44  0.0030000  0  5G20G 3G23G16G17
  10624829.518 7   8250446.37326  23398197.175
 -13606714.699 9 -10527778.96328  21631158.970
  -6505989.987 5  -5082555.62825  24416402.956
   2183728.201 7   1582540.08625  23676159.226
 -16433939.559 8 -12821714.84427  21892111.277
 92  6 11  2 44 30.0030000  0  5G20G 3G23G16G17
  10733826.280 7   8335378.86526  23418939.546
 -13621911.719 9 -10539620.80028  21628269.481
  -6599907.594 5  -5155738.08425  24398524.473
   2271105.961 7   1650626.61425  23692786.195
 -16468416.398 8 -12848579.90327  21885549.539
 92  6 11  2 45  0.0030000  0  5G20G 3G23G16G17
  10843116.984 7   8420540.35125  23439737.018
 -13636819.632 9 -10551237.34828  21625430.836
  -6693622.247 5  -5228762.35525  24380702.801
   2358903.553 6   1719040.28325  23709488.832
 -16502545.636 8 -12875174.08727  21879056.275
 92  6 11  2 45 30.0030000  0  5G20G 3G23G16G17
  10952696.561 7   8505926.94625  23460589.832
 -13651439.058 9 -10562629.11528  21622648.732
  -6787141.885 5  -5301634.70325  24362900.495
   2447099.942 7   1787764.70625  23726273.583
 -16536315.806 8 -12901488.48127  21872629.803
 92  6 11  2 46  0.0030000  0  5G20G 3G23G16G17
  11062555.844 6   8591531.52825  23481494.839
 -13665772.963 9 -10573798.37528  21619922.689
  -6880475.399 5  -5374361.98825  24345135.873
   2535668.700 7   1856779.29025  23743129.983
 -16569741.171 8 -12927534.20427  21866266.319
 92  6 11  2 46 30.0030000  0  5G20G 3G23G16G17
  11172697.887 7   8677356.43325  23502455.309
 -13679812.757 9 -10584738.48028  21617249.230
  -6973634.818 6  -5446953.60525  24327409.025
   2624604.623 7   1926080.01125  23760056.235
 -16602832.981 8 -12953320.01227  21859972.386
 92  6 11  2 47  0.0030000  0  5G20G 3G23G16G17
  11283111.705 6   8763393.06925  23523465.604
 -13693557.854 9 -10595448.94828  21614635.669
  -7066627.231 6  -5519415.08525  24309715.874
   2713883.700 7   1995648.12425  23777043.046
 -16635593.465 8 -12978847.63327  21853734.964
 92  6 11  2 47 30.0030000  0  5G20G 3G23G16G17
  11393793.014 6   8849638.20325  23544525.664
 -13707007.571 9 -10605929.24828  21612074.512
  -7159446.331 6  -5591741.54725  24292049.764
   2803498.009 7   2065477.34425  23794095.690
 -16668041.727 8 -13004131.98527  21847559.479
 92  6 11  2 48  0.0030000  0  5G20G 3G23G16G17
  11504740.380 6   8936090.58025  23565637.708
 -13720155.754 9 -10616174.58528  21609571.545
  -7252080.929 6  -5663924.24325  24274424.845
   2893463.627 7   2135580.41525  23811218.157
 -16700172.275 8 -13029168.76827  21841447.640
 92  6 11  2 48 30.0030000  0  5G20G 3G23G16G17
  11615938.477 6   9022738.36625  23586797.300
 -13733006.763 9 -10626188.35528  21607128.446
  -7344524.071 6  -5735957.74825  24256835.272
   2983793.935 7   2205967.62225  23828406.637
 -16731969.416 8 -13053945.72827  21835395.460
 92  6 11  2 49  0.0030000  0  5G20G 3G23G16G17
  11727376.222 6   9109572.90425  23608002.490
 -13745568.681 9 -10635976.85928  21604737.272
  -7436753.728 6  -5807824.92525  24239284.523
   3074505.213 7   2276651.71725  23845667.458
 -16763428.375 8 -13078459.19527  21829408.755
 92  6 11  2 49 30.0030000  0  5G20G 3G23G16G17
  11839062.414 6   9196601.02525  23629258.375
 -13757836.011 9 -10645535.81928  21602399.670
  -7528752.977 6  -5879512.56125  24221773.945
   3165627.007 7   2347655.68025  23863005.775
 -16794541.609 8 -13102703.24927  21823488.483
 92  6 11  2 50  0.0030000  0  5G20G 3G23G16G17
  11950995.931 6   9283821.88625  23650560.398
 -13769807.588 9 -10654864.31428  21600124.275
  -7620528.003 6  -5951025.43525  24204310.525
   3257152.003 6   2418973.84225  23880425.875
 -16825297.013 8 -13126668.48227  21817638.513
 92  6 11  2 50 30.0030000  0  5G20G 3G23G16G17
  12063183.604 6   9371240.77025  23671905.681
 -13781473.258 9 -10663954.46528  21597907.160
  -7712068.179 6  -6022355.33325  24186891.234
   3349072.364 6   2490600.12225  23897910.671
 -16855705.321 8 -13150363.25027  21811849.940
 92  6 11  2 51  0.0030000  0  5G20G 3G23G16G17
  12175636.251 6   9458866.10625  23693307.115
 -13792829.620 9 -10672803.57528  21595742.598
  -7803379.763 6  -6093507.11625  24169510.496
   3441363.637 6   2562515.29525  23915474.701
 -16885782.403 8 -13173799.92127  21806126.573
 92  6 11  2 51 30.0030000  0  5G20G 3G23G16G17
  12288344.876 6   9546690.94025  23714755.257
 -13803880.913 9 -10681414.96428  21593641.113
  -7894486.700 6  -6164499.43325  24152177.815
   3533984.372 7   2634687.28325  23933103.008
 -16915536.284 8 -13196984.75427  21800465.052
 92  6 11  2 52  0.0030000  0  5G20G 3G23G16G17
  12401299.218 6   9634707.24025  23736250.466
 -13814629.092 9 -10689790.18628  21591597.668
  -7985390.621 6  -6235333.59025  24134879.611
   3626913.084 6   2707099.22125  23950787.645
 -16944964.490 8 -13219915.80127  21794863.310
 92  6 11  2 52 30.0030000  0  5G20G 3G23G16G17
  12514496.334 6   9722912.72125  23757787.376
 -13825071.909 9 -10697927.44328  21589606.566
  -8076085.697 6  -6306004.98325  24117621.428
   3720155.124 6   2779755.32225  23968532.480
 -16974067.609 8 -13242593.54927  21789325.094
 92  6 11  2 53  0.0030000  0  5G20G 3G23G16G17
  12627939.100 6   9811309.61725  23779376.660
 -13835208.406 8 -10705826.01228  21587675.723
  -8166564.050 6  -6376507.46225  24100402.249
   3813714.752 6   2852658.89925  23986334.996
 -17002833.277 8 -13265008.33827  21783853.762
 92  6 11  2 53 30.0030000  0  5G20G 3G23G16G17
  12741615.600 6   9899888.66325  23801009.714
 -13845042.368 9 -10713488.85028  21585807.656
  -8256817.069 6  -6446834.43525  24083230.377
   3907600.485 6   2925816.58125  24004199.958
 -17031262.257 8 -13287160.77528  21778444.786
 92  6 11  2 54  0.0030000  0  5G20G 3G23G16G17
  12855525.141 6   9988649.24525  23822684.709
 -13854567.923 9 -10720911.36328  21583995.411
  -8346831.346 6  -6516975.37525  24066097.597
   4001825.972 6   2999238.97925  24022130.485
 -17059360.535 8 -13309055.52428  21773097.718
 92  6 11  2 54 30.0030000  0  5G20G 3G23G16G17
  12969663.759 6  10077588.36825  23844404.852
 -13863787.852 9 -10728095.73128  21582240.906
  -8436619.263 6  -6586939.90625  24049014.314
   4096386.150 6   3072922.20025  24040125.767
 -17087147.635 8 -13330707.79228  21767809.499
 92  6 11  2 55  0.0030000  0  5G20G 3G23G16G17
  13084028.919 6  10166703.98825  23866168.226
 -13872701.714 9 -10735041.60028  21580542.761
  -8526175.568 6  -6656723.95325  24031969.224
   4191276.779 6   3146862.92226  24058183.796
 -17114616.642 8 -13352112.20228  21762582.887
 92  6 11  2 55 30.0030000  0  5G20G 3G23G16G17
  13198599.716 6  10255979.82625  23887970.482
 -13881306.835 9 -10741746.88928  21578904.245
  -8615512.741 6  -6726337.24825  24014970.002
   4286491.167 6   3221055.88826  24076302.563
 -17141757.749 8 -13373261.09228  21757417.853
 92  6 11  2 56  0.0030000  0  5G20G 3G23G16G17
  13313375.547 6  10345415.47225  23909811.322
 -13889594.876 9 -10748205.10528  21577329.286
  -8704633.750 6  -6795782.12325  23998011.462
   4382031.134 6   3295502.57026  24094481.707
 -17168557.647 8 -13394144.11428  21752316.645
 92  6 11  2 56 30.0030000  0  5G20G 3G23G16G17
  13428362.746 6  10435015.76425  23931694.433
 -13897551.966 9 -10754405.42928  21575814.764
  -8793523.311 6  -6865046.63925  23981097.232
   4477913.362 6   3370215.98225  24112726.507
 -17194995.196 8 -13414744.79528  21747285.198
 92  6 11  2 57  0.0030000  0  5G20G 3G23G16G17
  13543546.643 6  10524769.37225  23953615.587
 -13905176.384 9 -10760346.54528  21574361.760
  -8882178.695 6  -6934128.69725  23964225.032
   4574139.133 7   3445197.06625  24131039.899
 -17221051.308 8 -13435048.23528  21742327.950
 92  6 11  2 57 30.0030000  0  5G20G 3G23G16G17
  13658914.476 6  10614666.27925  23975565.162
 -13912480.055 9 -10766037.72728  21572975.610
  -8970623.061 6  -7003046.29725  23947397.801
   4670689.846 7   3520431.37425  24149412.919
 -17246753.413 8 -13455075.84228  21737436.056
 92  6 11  2 58  0.0030000  0  5G20G 3G23G16G17
  13774486.494 6  10704722.29125  23997560.784
 -13919463.500 8 -10771479.37728  21571645.700
  -9058836.048 6  -7071783.61525  23930606.666
   4767573.719 7   3595925.31725  24167848.507
 -17272121.573 8 -13474843.23228  21732607.509
 92  6 11  2 58 30.0030000  0  5G20G 3G23G16G17
  13890264.174 6  10794938.57325  24019590.374
 -13926126.041 8 -10776670.97428  21570376.349
  -9146816.313 6  -7140339.60425  23913864.186
   4864785.742 6   3671674.88825  24186342.763
 -17297165.466 8 -13494357.93028  21727845.036
 92  6 11  2 59  0.0030000  0  5G20G 3G23G16G17
  14006258.912 6  10885323.96325  24041663.013
 -13932462.161 9 -10781608.21328  21569169.984
  -9234558.731 6  -7208710.27525  23897169.584
   4962324.486 6   3747679.07725  24204906.752
 -17321890.581 8 -13513624.24028  21723140.183
 92  6 11  2 59 30.0030000  0  5G20G 3G23G16G17
  14122469.030 6  10975877.21825  24063777.354
 -13938483.091 9 -10786299.83928  21568026.666
  -9322060.556 6  -7276893.44025  23880517.132
   5060176.004 6   3823926.97325  24223525.033
 -17346326.861 8 -13532665.49028  21718490.162
 92  6 11  3  0  0.0030000  0  5G20G 3G23G16G17
  14238879.049 6  11066586.24325  24085925.211
 -13944187.196 9 -10790744.60028  21566941.057
  -9409309.069 6  -7344879.20725  23863916.215
   5158326.300 6   3900407.69125  24242205.101
 -17370467.173 8 -13551476.11528  21713895.033
 92  6 11  3  0 30.0030000  0  5G20G 3G23G16G17
  14355481.053 6  11157444.85425  24108115.879
 -13949562.015 9 -10794932.76428  21565913.938
  -9496303.313 6  -7412666.87625  23847362.514
   5256766.870 6   3977114.57125  24260936.433
 -17394294.674 8 -13570042.98328  21709358.664
 92  6 11  3  1  0.0030000  0  5G20G 3G23G16G17
  14472274.687 6  11248452.79325  24130343.181
 -13954601.409 9 -10798859.56228  21564958.890
  -9583030.337 6  -7480246.32725  23830858.010
   5355493.613 6   4054044.50525  24279725.776
 -17417793.605 8 -13588353.83728  21704888.638
 92  6 11  3  1 30.0030000  0  5G20G 3G23G16G17
  14589249.252 6  11339601.69125  24152602.831
 -13959304.765 9 -10802524.51128  21564065.718
  -9669493.731 6  -7547620.29725  23814403.152
   5454496.706 6   4131189.86625  24298563.175
 -17440955.009 8 -13606401.66928  21700481.329
 92  6 11  3  2  0.0030000  0  5G20G 3G23G16G17
  14706406.542 6  11430892.98025  24174896.987
 -13963671.246 9 -10805926.96428  21563232.385
  -9755698.476 6  -7614792.76825  23798000.517
   5553773.887 6   4208548.66125  24317458.494
 -17463777.086 8 -13624185.08428  21696139.705
 92  6 11  3  2 30.0030000  0  5G20G 3G23G16G17
  14823755.102 6  11522333.38725  24197227.808
 -13967704.344 9 -10809069.63528  21562466.625
  -9841648.002 6  -7681766.34725  23781643.391
   5653339.916 6   4286132.54825  24336403.159
 -17486259.310 8 -13641703.69028  21691860.617
 92  6 11  3  3  0.0030000  0  5G20G 3G23G16G17
  14941296.735 6  11613924.15425  24219600.749
 -13971403.702 9 -10811952.24128  21561760.464
  -9927338.611 6  -7748538.15725  23765336.960
   5753208.423 6   4363952.02025  24355405.923
 -17508396.701 8 -13658953.60128  21687647.424
 92  6 11  3  3 30.0030000  0  5G20G 3G23G16G17
  15059030.130 6  11705664.37925  24241996.685
 -13974760.540 9 -10814567.96628  21561124.184
 -10012759.683 6  -7815099.95025  23749084.191
   5853391.462 6   4442016.67225  24374473.833
 -17530187.560 8 -13675933.47728  21683499.106
 92  6 11  3  4  0.0030000  0  5G20G 3G23G16G17
  15176947.102 6  11797547.66425  24264436.660
 -13977772.443 9 -10816914.88328  21560552.030
 -10097888.372 6  -7881433.89125  23732883.647
   5953895.446 6   4520331.44325  24393594.686
 -17551630.726 8 -13692642.41628  21679420.010
 92  6 11  3  4 30.0030000  0  5G20G 3G23G16G17
  15295026.934 6  11889557.79525  24286907.874
 -13980436.705 8 -10818990.92528  21560041.034
 -10182724.008 6  -7947539.51025  23716739.193
   6054718.489 7   4598894.89525  24412783.532
 -17572725.874 8 -13709080.18628  21675406.808
 92  6 11  3  5  0.0030000  0  5G20G 3G23G16G17
  15413241.484 6  11981672.95125  24309402.081
 -13982757.292 8 -10820799.16228  21559600.369
 -10267268.888 6  -8013418.57025  23700651.071
   6155832.560 6   4677685.03525  24432026.430
 -17593492.486 8 -13725261.95128  21671453.655
 92  6 11  3  5 30.0030000  0  5G20G 3G23G16G17
  15531583.922 6  12073887.76625  24331921.291
 -13984733.834 8 -10822339.30028  21559227.248
 -10351519.010 6  -8079067.94025  23684617.600
   6257224.629 6   4756691.74625  24451320.713
 -17613944.525 8 -13741198.58928  21667558.871
 92  6 11  3  6  0.0030000  0  5G20G 3G23G16G17
  15650067.939 6  12166212.85725  24354467.603
 -13986357.303 8 -10823604.35428  21558917.202
 -10435479.181 6  -8144491.35725  23668643.789
   6358902.675 6   4835921.34625  24470663.802
 -17634084.536 8 -13756892.09528  21663727.464
 92  6 11  3  6 30.0030000  0  5G20G 3G23G16G17
  15768695.006 6  12258649.45425  24377045.962
 -13987628.384 8 -10824594.77628  21558674.610
 -10519180.263 6  -8209712.90025  23652714.676
   6460857.152 6   4915366.41325  24490068.289
 -17653916.258 8 -13772345.37028  21659952.957
 92  6 11  3  7  0.0030000  0  5G20G 3G23G16G17
  15887476.058 6  12351206.00925  24399647.705
 -13988544.849 9 -10825308.90928  21558500.041
 -10602623.726 6  -8274733.67325  23636831.702
   6563083.899 6   4995023.63325  24509524.759
 -17673429.724 8 -13787550.65628  21656241.736
 92  6 11  3  7 30.0030000  0  5G20G 3G23G16G17
  16006423.322 6  12443892.09925  24422286.233
 -13989108.584 8 -10825748.16928  21558391.306
 -10685816.605 6  -8339559.23325  23621002.001
   6665586.691 6   5074895.88425  24529026.228
 -17692616.859 8 -13802501.66228  21652592.452
 92  6 11  3  8  0.0030000  0  5G20G 3G23G16G17
  16125536.032 6  12536707.08825  24444949.284
 -13989319.807 8 -10825912.76128  21558350.594
 -10768765.757 6  -8404194.82625  23605218.557
   6768351.322 6   5154972.16625  24548583.459
 -17711460.630 8 -13817185.11228  21649005.495
 92  6 11  3  8 30.0030000  0  5G20G 3G23G16G17
  16244805.364 6  12629644.11225  24467650.198
 -13989181.285 8 -10825804.80028  21558374.698
 -10851454.295 6  -8468627.36125  23589483.291
   6871358.918 6   5235237.81225  24568184.070
 -17729952.693 8 -13831594.49828  21645486.771
 92  6 11  3  9  0.0030000  0  5G20G 3G23G16G17
  16364228.605 6  12722701.09525  24490371.199
 -13988689.867 8 -10825421.88428  21558470.002
 -10933859.397 6  -8532839.04126  23573803.935
   6974618.814 6   5315700.00125  24587834.596
 -17748100.767 8 -13845735.84128  21642032.772
 92  6 11  3  9 30.0030000  0  5G20G 3G23G16G17
  16483796.467 6  12815870.73225  24513120.890
 -13987840.705 8 -10824760.18428  21558634.408
 -11015967.070 6  -8596818.94526  23558178.782
   7078136.048 6   5396362.73425  24607534.019
 -17765911.130 8 -13859614.04128  21638644.848
 92  6 11  3 10  0.0030000  0  5G20G 3G23G16G17
  16603498.164 6  12909144.69725  24535904.817
 -13986628.031 8 -10823815.22528  21558864.439
 -11097771.422 6  -8660562.49926  23542610.890
   7181916.228 6   5477230.38225  24627279.609
 -17783388.915 8 -13873233.09128  21635315.833
 92  6 11  3 10 30.0030000  0  5G20G 3G23G16G17
  16723315.982 6  13002509.14625  24558703.343
 -13985060.650 8 -10822593.89528  21559162.283
 -11179279.888 6  -8724075.50026  23527101.157
   7285966.060 6   5558308.14625  24647081.680
 -17800560.470 8 -13886613.50729  21632047.225
 92  6 11  3 11  0.0030000  0  5G20G 3G23G16G17
  16843241.369 6  13095957.35825  24581525.644
 -13983144.980 8 -10821101.15028  21559528.989
 -11260501.975 6  -8787365.33726  23511641.549
   7390273.098 6   5639586.31925  24666933.187
 -17817442.760 8 -13899768.52829  21628836.388
 92  6 11  3 11 30.0030000  0  5G20G 3G23G16G17
  16963273.645 6  13189488.91825  24604367.791
 -13980878.379 8 -10819334.96028  21559956.553
 -11341432.342 6  -8850427.87626  23496244.898
   7494821.465 6   5721052.55325  24686823.967
 -17834019.076 8 -13912685.12429  21625682.002
 92  6 11  3 12  0.0030000  0  5G20G 3G23G16G17
  17083427.283 6  13283115.03225  24627232.332
 -13978255.206 9 -10817290.91928  21560458.165
 -11422060.708 6  -8913255.07826  23480901.220
   7599606.651 6   5802703.35625  24706765.112
 -17850287.168 8 -13925361.56029  21622585.985
 92  6 11  3 12 30.0030000  0  5G20G 3G23G16G17
  17203713.194 6  13376844.20525  24650119.477
 -13975275.394 8 -10814968.98928  21561027.082
 -11502370.888 6  -8975834.35526  23465616.841
   7704623.451 6   5884534.60525  24726749.218
 -17866241.641 8 -13937793.59829  21619549.148
 92  6 11  3 13  0.0030000  0  5G20G 3G23G16G17
  17324131.433 6  13470676.50025  24673036.212
 -13971931.371 8 -10812363.24728  21561658.594
 -11582349.198 6  -9038155.03726  23450397.817
   7809864.144 5   5966540.33725  24746775.354
 -17881864.389 8 -13949967.16629  21616579.014
 92  6 11  3 13 30.0030000  0  5G20G 3G23G16G17
  17444671.692 6  13564603.84425  24695974.143
 -13968225.467 8 -10809475.52528  21562365.385
 -11662010.464 6  -9100228.66826  23435235.214
   7915338.194 5   6048727.79925  24766845.380
 -17897153.181 8 -13961880.51329  21613670.517
 92  6 11  3 14  0.0030000  0  5G20G 3G23G16G17
  17565329.651 6  13658622.96525  24718930.481
 -13964160.195 8 -10806307.77528  21563139.269
 -11741371.039 6  -9162067.98226  23420137.846
   8021045.489 5   6131097.16625  24786955.758
 -17912122.328 8 -13973544.76529  21610817.572
 92  6 11  3 14 30.0030000  0  4G20G 3G23G17
  17686089.295 6  13752721.24225  24741915.928
 -13959728.967 8 -10802854.86828  21563982.136
 -11820442.519 6  -9223682.01826  23405091.922
 -17926758.030 8 -13984949.19929  21608035.768
 92  6 11  3 15  0.0030000  0  4G20G 3G23G17
  17806926.951 6  13846880.33625  24764907.611
 -13954928.958 8 -10799114.59928  21564895.603
 -11899232.067 6  -9285076.36526  23390098.941
 -17941060.791 8 -13996094.21529  21605313.143
 92  6 11  3 15 30.0030000  0  4G20G 3G23G17
  17927840.683 6  13941098.68125  24787915.093
 -13949767.969 8 -10795093.04128  21565877.694
 -11977754.088 6  -9346262.28626  23375154.197
 -17955058.568 8 -14007001.54729  21602649.367
 92  6 11  3 16  0.0030000  0  4G20G 3G23G17
  18048832.049 6  14035377.53425  24810943.561
 -13944243.902 8 -10790788.59028  21566929.995
 -12055995.230 6  -9407229.33826  23360264.885
 -17968752.095 8 -14017671.83529  21600044.470
 92  6 11  3 16 30.0030000  0  4G20G 3G23G17
  18169892.130 6  14129709.95425  24833981.592
 -13938354.600 8 -10786199.50228  21568050.409
 -12133937.943 6  -9467963.84826  23345437.090
 -17982131.040 8 -14028096.97829  21597499.712
 92  6 11  3 17  0.0030000  0  4G20G 3G23G17
  18291034.860 6  14224106.72725  24857031.045
 -13932097.554 8 -10781323.88028  21569242.414
 -12211564.948 7  -9528452.33826  23330658.251
 -17995199.182 8 -14038279.94629  21595010.625
 92  6 11  3 17 30.0030000  0  4G20G 3G23G17
  18412270.551 6  14318576.00625  24880103.523
 -13925476.209 8 -10776164.39528  21570500.973
 -12288882.468 7  -9588699.69326  23315949.744
 -18007957.190 8 -14048221.25029  21592585.424
 92  6 11  3 18  0.0030000  0  4G20G 3G23G17
  18533586.556 6  14413107.78425  24903188.891
 -13918487.739 8 -10770718.83428  21571831.662
 -12365868.135 7  -9648688.46926  23301299.876
 -18020378.893 8 -14057900.49929  21590219.492
 92  6 11  3 18 30.0030000  0  4G20G 3G23G17
  18654986.155 6  14507704.80625  24926286.011
 -13911119.545 8 -10764977.38228  21573232.862
 -12442513.060 7  -9708411.70526  23286715.332
 -18032457.418 8 -14067312.32729  21587919.994
 92  6 11  3 19  0.0030000  0  4G20G 3G23G17
  18776468.743 6  14602366.39725  24949405.976
 -13903370.172 8 -10758938.89628  21574706.731
 -12518827.557 7  -9767877.45626  23272193.266
 -18044208.326 8 -14076468.86129  21585685.011
 92  6 11  3 19 30.0030000  0  4G20G 3G23G17
  18898029.845 6  14697089.25825  24972536.583
 -13895239.788 8 -10752603.53528  21576253.810
 -12594821.736 7  -9827093.60426  23257732.057
 -18055638.354 8 -14085375.37929  21583508.488
 92  6 11  3 20  0.0030000  0  4G20G 3G23G17
  19019658.657 6  14791864.78925  24995683.828
 -13886719.592 8 -10745964.42728  21577877.426
 -12670490.647 7  -9886056.34026  23243334.225
 -18066755.157 8 -14094037.81429  21581394.501
 92  6 11  3 20 30.0030000  0  4G20G 3G23G17
  19141355.948 6  14886693.72625  25018841.596
 -13877809.880 8 -10739021.79628  21579571.344
 -12745849.581 7  -9944777.52926  23228989.995
 -18077573.157 8 -14102467.41129  21579339.484
 92  6 11  3 21  0.0030000  0  4G20G 3G23G17
  19263115.429 6  14981571.13025  25042011.926
 -13868517.320 8 -10731780.83827  21581338.860
 -12820894.850 7 -10003254.28726  23214711.390
 -18088097.273 8 -14110668.01029  21577333.963
 92  6 11  3 21 30.0030000  0  4G20G 3G23G17
  19384935.656 5  15076495.80925  25065193.438
 -13858838.363 8 -10724238.79127  21583179.885
 -12895611.363 7 -10061474.88526  23200488.156
 -18098317.322 8 -14118631.67429  21575389.539
 92  6 11  3 22  0.0030000  0  4G20G 3G23G17
  19506801.370 5  15171455.98325  25088386.372
 -13848771.029 8 -10716394.11027  21585097.688
 -12969978.409 7 -10119423.17126  23186340.051
 -18108227.904 8 -14126354.20129  21573503.005
 92  6 11  3 22 30.0030000  0  4G20G 3G23G17
  19628727.439 5  15266463.17525  25111590.787
 -13838307.213 8 -10708240.48027  21587087.290
 -13043986.528 7 -10177091.77226  23172256.191
 -18117804.247 8 -14133816.25429  21571680.926
 92  6 11  3 23  0.0030000  0  4G20G 3G23G17
  19750703.032 6  15361508.94025  25134794.424
 -13827452.441 8 -10699782.23327  21589155.289
 -13117656.026 7 -10234496.50626  23158238.405
 -18127056.983 8 -14141026.17529  21569922.314
 92  6 11  3 23 30.0030000  0  4G20G 3G23G17
  19872714.668 6  15456582.80825  25158016.228
 -13816206.030 8 -10691018.79327  21591294.188
 -13190998.056 7 -10291646.06426  23144282.976
 -18135987.282 8 -14147984.84429  21568219.972
 92  6 11  3 24  0.0030000  0  4G20G 3G23G17
  19994762.257 6  15551684.71325  25181242.888
 -13804567.025 8 -10681949.42727  21593510.824
 -13264020.813 7 -10348546.84726  23130387.566
 -18144591.650 8 -14154689.51929  21566580.197
 92  6 11  3 24 30.0030000  0  4G20G 3G23G17
  20116866.988 6  15646831.07925  25204480.791
 -13792528.232 8 -10672568.57027  21595800.159
 -13336734.106 7 -10405206.50526  23116546.988
 -18152869.701 8 -14161139.93829  21565005.238
 92  6 11  3 25  0.0030000  0  4G20G 3G23G17
  20239035.847 6  15742027.47925  25227727.208
 -13780080.812 8 -10662869.26927  21598168.519
 -13409112.975 7 -10461605.55626  23102775.961
 -18160825.562 8 -14167339.29429  21563491.915
 92  6 11  3 25 30.0030000  0  4G20G 3G23G17
  20361260.653 6  15837267.41825  25250984.777
 -13767227.747 8 -10652853.88827  21600613.896
 -13481139.111 7 -10517729.74226  23089068.730
 -18168448.128 8 -14173278.95029  21562044.517
 92  6 11  3 26  0.0030000  0  4G20G 3G23G17
  20483553.153 6  15932560.15325  25274254.638
 -13753969.372 8 -10642522.68227  21603135.271
 -13552803.971 7 -10573572.44426  23075432.820
 -18175733.139 8 -14178955.56329  21560657.318
 92  6 11  3 26 30.0030000  0  4G20G 3G23G17
  20605905.429 6  16027899.43325  25297541.227
 -13740306.316 8 -10631876.14827  21605736.630
 -13624101.458 7 -10629128.87426  23061864.603
 -18182690.043 8 -14184376.51229  21559329.717
 92  6 11  3 27  0.0030000  0  4G20G 3G23G17
  20728302.464 6  16123273.63725  25320833.002
 -13726230.061 8 -10620907.62927  21608414.946
 -13695015.053 7 -10684386.18826  23048370.795
 -18189302.839 8 -14189529.32529  21558076.104
 92  6 11  3 27 30.0030000  0  4G20G 3G23G17
  20850736.566 6  16218676.69425  25344131.973
 -13711741.940 8 -10609618.18427  21611173.516
 -13765558.476 7 -10739355.02326  23034944.889
 -18195587.192 8 -14194426.22229  21556878.673
 92  6 11  3 28  0.0030000  0  4G20G 3G23G17
  20973212.624 6  16314112.45525  25367434.361
 -13696839.092 8 -10598005.57927  21614011.052
 -13835735.636 7 -10794038.44126  23021591.084
 -18201562.052 8 -14199081.93129  21555740.541
 92  6 11  3 28 30.0030000  0  4G20G 3G23G17
  21095710.466 6  16409565.16825  25390749.010
 -13681526.470 8 -10586073.66227  21616922.786
 -13905559.471 7 -10848446.59426  23008304.912
 -18207242.320 8 -14203508.10429  21554663.177
 92  6 11  3 29  0.0030000  0  4G20G 3G23G17
  21218229.464 5  16505034.38025  25414058.024
 -13665808.690 8 -10573826.02627  21619915.344
 -13975039.634 7 -10902586.93426  22995083.885
 -18212627.453 8 -14207704.31029  21553634.859
 92  6 11  3 29 30.0030000  0  4G20G 3G23G17
  21340779.852 5  16600528.07925  25437382.117
 -13649682.093 8 -10561259.83227  21622983.660
 -14044169.558 7 -10956454.34326  22981927.852
 -18217713.611 8 -14211667.53229  21552668.808
 92  6 11  3 30  0.0030000  0  4G20G 3G23G17
  21463349.357 5  16696036.60725  25460699.974
 -13633146.013 8 -10548374.57527  21626126.414
 -14112944.481 7 -11010045.12526  22968842.331
 -18222471.911 8 -14215375.29229  21551762.925
 92  6 11  3 30 30.0030000  0  4G20G 3G23G17
  21585936.143 6  16791558.57025  25484031.052
 -13616193.395 8 -10535164.72827  21629354.669
 -14181342.401 7 -11063342.15626  22955824.264
 -18226887.099 8 -14218815.67429  21550920.358
 92  6 11  3 31  0.0030000  0  4G20G 3G23G17
  21708539.792 6  16887093.74525  25507361.411
 -13598821.032 8 -10521627.81627  21632658.982
 -14249353.548 7 -11116337.80526  22942882.463
 -18230952.280 8 -14221983.34729  21550149.322
 92  6 11  3 31 30.0030000  0  4G20G 3G23G17
  21831153.352 6  16982636.64225  25530700.044
 -13581023.820 8 -10507759.83327  21636047.986
 -14316969.755 7 -11169025.70326  22930015.790
 -18234666.508 8 -14224877.52529  21549441.632
 92  6 11  3 32  0.0040000  0  5G20G 3G23G21G17
  21953784.646 6  17078193.33725  25554029.294
 -13562794.240 8 -10493554.95827  21639517.544
 -14384195.627 7 -11221409.43826  22917223.736
  22322294.24115   -173872.78531  26137875.945
 -18238038.273 8 -14227504.86429  21548802.115
 92  6 11  3 32 30.0040000  0  5G20G 3G23G21G17
  22076428.010 6  17173759.43825  25577374.372
 -13544135.814 8 -10479015.91527  21643067.836
 -14451032.990 7 -11273490.46427  22904504.232
  22223922.611 5   -250526.16821  26119152.497
 -18241096.686 8 -14229888.02629  21548219.828
 92  6 11  3 33  0.0040000  0  5G20G 3G23G21G17
  22199080.925 6  17269332.97725  25600713.875
 -13525049.542 8 -10464143.47027  21646696.854
 -14517506.728 7 -11325288.13527  22891853.919
  22125663.137 5   -327091.91022  26100455.910
 -18243841.160 8 -14232026.55729  21547695.251
 92  6 11  3 33 30.0040000  0  5G20G 3G23G21G17
  22321745.663 6  17364915.70725  25624055.895
 -13505536.759 8 -10448938.68227  21650412.152
 -14583619.903 7 -11376804.84427  22879274.718
  22027501.043 5   -403581.73422  26081779.650
 -18246278.120 8 -14233925.46629  21547231.292
 92  6 11  3 34  0.0040000  0  5G20G 3G23G21G17
  22444425.321 5  17460510.10125  25647396.027
 -13485588.144 8 -10433394.30327  21654208.543
 -14649361.036 7 -11428031.66427  22866767.916
  21929439.687 5   -479992.93122  26063115.770
 -18248403.459 8 -14235581.56029  21546828.131
 92  6 11  3 34 30.0040000  0  4G20G 3G23G17
  22567113.277 5  17556110.90025  25670747.611
 -13465207.823 8 -10417513.53027  21658086.179
 -14714722.804 7 -11478962.87127  22854325.720
 -18250211.433 8 -14236990.36229  21546484.719
 92  6 11  3 35  0.0040000  0  4G20G 3G23G17
  22689801.525 5  17651712.00825  25694095.568
 -13444396.763 8 -10401297.10027  21662048.536
 -14779706.598 7 -11529599.56927  22841958.771
 -18251689.926 8 -14238142.40929  21546202.554
 92  6 11  3 35 30.0040000  0  4G20G 3G23G17
  22812475.902 5  17747302.18725  25717434.860
 -13423157.879 8 -10384747.31427  21666087.070
 -14844303.017 7 -11579934.38427  22829668.689
 -18252857.087 8 -14239051.86629  21545980.078
 92  6 11  3 36  0.0040000  0  4G20G 3G23G17
  22935129.315 5  17842876.17725  25740785.725
 -13401486.274 8 -10367860.35627  21670213.024
 -14908506.793 7 -11629963.26327  22817452.926
 -18253712.957 8 -14239718.77029  21545815.073
 92  6 11  3 36 30.0040000  0  4G20G 3G23G17
  23057761.192 5  17938433.20825  25764108.199
 -13379378.632 8 -10350633.61927  21674419.861
 -14972311.316 7 -11679681.04427  22805309.982
 -18254258.283 8 -14240143.70629  21545713.683
 92  6 11  3 37  0.0040000  0  4G20G 3G23G17
  23180356.347 5  18033961.75624  25787445.633
 -13356836.180 8 -10333068.05527  21678708.303
 -15035723.818 7 -11729093.32727  22793240.158
 -18254503.016 8 -14240334.36529  21545667.155
 92  6 11  3 37 30.0040000  0  4G20G 3G23G17
  23302899.632 5  18129449.87924  25810763.430
 -13333864.570 8 -10315168.11327  21683080.386
 -15098742.066 7 -11778198.39127  22781247.351
 -18254463.119 8 -14240303.27029  21545675.789
 92  6 11  3 38  0.0040000  0  4G20G 3G23G17
  23425398.536 5  18224903.35824  25834075.801
 -13310461.501 8 -10296931.94427  21687531.674
 -15161360.510 7 -11826991.93527  22769333.628
 -18254117.626 8 -14240034.04129  21545741.683
 92  6 11  3 38 30.0040000  0  4G20G 3G23G17
  23547854.194 5  18320323.21624  25857374.232
 -13286625.849 8 -10278358.71727  21692068.074
 -15223576.371 7 -11875471.77927  22757492.576
 -18253450.253 8 -14239514.00929  21545867.866
 92  6 11  3 39  0.0040000  0  4G20G 3G23G17
  23670264.157 5  18415707.35024  25880671.824
 -13262363.692 8 -10259453.11827  21696687.156
 -15285405.866 7 -11923650.55927  22745727.401
 -18252459.759 8 -14238742.18129  21546054.367
 92  6 11  3 39 30.0040000  0  5G20G 3G23G21G17
  23792635.572 5  18511061.56224  25903958.892
 -13237676.689 8 -10240216.50727  21701385.863
 -15346852.815 7 -11971531.24227  22734034.415
    -16178.09415    -54256.08431  25858772.165
 -18251136.488 8 -14237711.04829  21546305.293
 92  6 11  3 40  0.0040000  0  5G20G 3G23G21G17
  23914985.375 5  18606398.81024  25927238.316
 -13212562.236 8 -10220646.79727  21706164.285
 -15407921.967 7 -12019117.56127  22722414.160
   -113251.715 5   -129898.29222  25840299.163
 -18249468.905 8 -14236411.63229  21546626.521
 92  6 11  3 40 30.0040000  0  5G20G 3G23G21G17
  24037315.541 5  18701720.87025  25950520.708
 -13187020.362 8 -10200744.03427  21711024.161
 -15468632.048 7 -12066424.08627  22710861.508
   -210238.907 5   -205472.58823  25821837.974
 -18247470.023 8 -14234854.05329  21547005.039
 92  6 11  3 41  0.0040000  0  5G20G 3G23G21G17
  24159610.084 5  18797015.10225  25973791.888
 -13161057.842 8 -10180513.50427  21715963.931
 -15528993.158 7 -12113458.65527  22699373.551
   -307143.382 5   -280982.41224  25803406.463
 -18245162.259 8 -14233055.78429  21547443.365
 92  6 11  3 41 30.0040000  0  5G20G 3G23G21G17
  24281867.580 5  18892280.58025  25997057.462
 -13134670.790 8 -10159952.16827  21720987.223
 -15588997.931 7 -12160215.57127  22687955.445
   -403940.611 5   -356408.70025  25784975.403
 -18242548.970 8 -14231019.44629  21547942.280
 92  6 11  3 42  0.0040000  0  4G 3G23G21G17
 -13107848.308 8 -10139051.53927  21726088.102
 -15648629.111 7 -12206681.36227  22676608.960
   -500621.319 5   -431744.15225  25766577.410
 -18239643.801 8 -14228755.66129  21548492.969
 92  6 11  3 42 30.0040000  0  4G 3G23G21G17
 -13080581.451 8 -10117804.62427  21731276.820
 -15707866.535 7 -12252840.35727  22665336.914
   -597198.587 5   -506998.94625  25748203.550
 -18236449.974 8 -14226266.94929  21549102.087
 92  6 11  3 43  0.0040000  0  4G 3G23G21G17
 -13052862.381 8 -10096205.36427  21736553.527
 -15766681.893 7 -12298670.45427  22654142.663
   -693668.544 5   -582170.20325  25729844.499
 -18232970.442 8 -14223555.62429  21549762.050
 92  6 11  3 43 30.0040000  0  4G 3G23G21G17
 -13024697.308 8 -10074258.54927  21741911.358
 -15825074.160 7 -12344170.87827  22643032.924
   -790049.468 5   -657272.09325  25711496.751
 -18229211.618 8 -14220626.66029  21550478.314
 92  6 11  3 44  0.0040000  0  4G 3G23G21G17
 -12996092.430 8 -10051969.04227  21747356.338
 -15883042.716 7 -12389341.14827  22632001.821
   -886359.176 5   -732318.44325  25693191.184
 -18225175.003 8 -14217481.25129  21551247.732
 92  6 11  3 44 30.0040000  0  4G 3G23G21G17
 -12967051.623 8 -10029339.82927  21752883.942
 -15940594.978 7 -12434187.01927  22621046.925
   -982580.525 5   -807295.97025  25674857.856
 -18220848.419 8 -14214109.86029  21552071.441
 92  6 11  3 45  0.0040000  0  4G 3G23G21G17
 -12937571.704 8 -10006368.45527  21758492.369
 -15997733.851 7 -12478710.76127  22610174.502
  -1078693.469 5   -882189.04825  25656581.039
 -18216221.452 8 -14210504.42229  21552950.823
 92  6 11  3 45 30.0040000  0  4G 3G23G21G17
 -12907648.496 8  -9983051.67027  21764185.578
 -16054458.060 7 -12522911.38827  22599381.554
  -1174686.336 5   -956988.56225  25638312.016
 -18211272.406 8 -14206648.00629  21553895.888
 92  6 11  3 46  0.0040000  0  4G 3G23G21G17
 -12877283.151 8  -9959390.36127  21769963.328
 -16110776.908 7 -12566796.17027  22588664.723
  -1270540.810 5  -1031680.24825  25620065.658
 -18205996.043 8 -14202536.54229  21554899.624
 92  6 11  3 46 30.0040000  0  4G 3G23G21G17
 -12846473.902 8  -9935383.14527  21775829.397
 -16166694.541 8 -12610368.31127  22578023.560
  -1366249.413 5  -1106258.26724  25601860.970
 -18200399.295 8 -14198175.41829  21555959.570
 92  6 11  3 47  0.0040000  0  4G 3G23G21G17
 -12815213.682 8  -9911024.53527  21781776.080
 -16222203.997 7 -12653622.38227  22567461.302
  -1461821.887 5  -1180730.18825  25583670.823
 -18194478.146 8 -14193561.53729  21557086.639
 92  6 11  3 47 30.0040000  0  4G 3G23G21G17
 -12783503.750 8  -9886315.49627  21787811.622
 -16277314.541 7 -12696565.60627  22556972.403
  -1557259.864 5  -1255097.33325  25565507.537
 -18188229.984 8 -14188692.83029  21558277.565
 92  6 11  3 48  0.0040000  0  4G 3G23G21G17
 -12751340.894 8  -9861253.52027  21793929.457
 -16332037.093 7 -12739206.51727  22546559.652
  -1652571.539 5  -1329366.02225  25547373.661
 -18181657.926 8 -14183571.73429  21559527.160
 92  6 11  3 48 30.0040000  0  4G 3G23G21G17
 -12718723.252 8  -9835837.16827  21800139.178
 -16386363.603 8 -12781538.84727  22536222.088
  -1747767.857 5  -1403544.89825  25529257.203
 -18174764.109 8 -14178199.93329  21560841.900
 92  6 11  3 49  0.0040000  0  4G 3G23G21G17
 -12685650.475 8  -9810066.18027  21806433.950
 -16440298.632 8 -12823566.07827  22525957.884
  -1842848.335 5  -1477633.46625  25511161.700
 -18167541.944 8 -14172572.27029  21562215.819
 92  6 11  3 49 30.0040000  0  4G 3G23G21G17
 -12652119.057 8  -9783937.80927  21812813.384
 -16493837.533 8 -12865284.65727  22515770.726
  -1937802.511 5  -1551623.63125  25493098.305
 -18159996.821 8 -14166692.95229  21563648.976
 92  6 11  3 50  0.0040000  0  4G 3G23G21G17
 -12618125.145 8  -9757449.02227  21819280.866
 -16546963.362 8 -12906681.37427  22505662.204
  -2032625.355 5  -1625511.41625  25475053.557
 -18152149.536 8 -14160578.17229  21565142.512
 92  6 11  3 50 30.0040000  0  4G 3G23G21G17
 -12583672.283 8  -9730602.64727  21825840.145
 -16599656.357 8 -12947740.82327  22495633.697
  -2127301.996 5  -1699285.29025  25457035.581
 -18144020.089 8 -14154243.52329  21566688.272
 92  6 11  3 51  0.0040000  0  4G 3G23G21G17
 -12548763.663 8  -9703401.11827  21832478.540
 -16651921.815 8 -12988467.09727  22485689.491
  -2221832.499 5  -1772945.27125  25439039.909
 -18135620.527 8 -14147698.41429  21568290.034
 92  6 11  3 51 30.0040000  0  4G 3G23G21G17
 -12513402.587 8  -9675847.02327  21839205.463
 -16703752.257 8 -13028854.40827  22475825.870
  -2316217.819 5  -1846492.12525  25421080.452
 -18126962.037 8 -14140951.52029  21569936.674
 92  6 11  3 52  0.0040000  0  4G 3G23G21G17
 -12477584.331 8  -9647936.68427  21846027.540
 -16755138.446 8 -13068895.56027  22466045.860
  -2410457.033 5  -1919925.16825  25403152.473
 -18118032.176 8 -14133993.18129  21571637.996
 92  6 11  3 52 30.0040000  0  4G 3G23G21G17
 -12441303.015 8  -9619665.53827  21852926.754
 -16806077.966 8 -13108588.66427  22456350.242
  -2504547.433 5  -1993242.23625  25385249.228
 -18108801.448 8 -14126800.37929  21573393.251
 92  6 11  3 53  0.0040000  0  4G 3G23G21G17
 -12404554.539 8  -9591030.35327  21859922.441
 -16856589.720 8 -13147948.40827  22446740.695
  -2598496.870 5  -2066449.44125  25367370.145
 -18099242.986 8 -14119352.22529  21575212.211
 92  6 11  3 53 30.0040000  0  4G 3G23G21G17
 -12367341.731 8  -9562033.36127  21867004.528
 -16906677.516 8 -13186977.81927  22437209.903
  -2692313.411 5  -2139553.10325  25349515.496
 -18089356.488 8 -14111648.44829  21577091.041
 92  6 11  3 54  0.0040000  0  4G 3G23G21G17
 -12329662.078 8  -9532672.58127  21874174.454
 -16956343.742 8 -13225678.74327  22427757.806
  -2785989.609 5  -2212547.40425  25331688.727
 -18079137.137 8 -14103685.30229  21579038.283
 92  6 11  3 54 30.0040000  0  4G 3G23G21G17
 -12291517.864 8  -9502949.81827  21881432.490
 -17005598.087 8 -13264058.70727  22418387.313
  -2879526.986 5  -2285433.56125  25313892.777
 -18068585.356 8 -14095463.12029  21581047.492
 92  6 11  3 55  0.0040000  0  4G 3G23G21G17
 -12252914.082 8  -9472868.95227  21888779.503
 -17054448.514 8 -13302123.91927  22409089.880
  -2972924.861 5  -2358210.98825  25296120.390
 -18057719.652 8 -14086996.32629  21583114.411
 92  6 11  3 55 30.0040000  0  4G 3G23G21G17
 -12213848.000 8  -9442427.85327  21896214.296
 -17102869.478 8 -13339854.51027  22399874.709
  -3066176.575 5  -2430874.54625  25278365.392
 -18046561.349 8 -14078301.52629  21585235.083
 92  6 11  3 56  0.0040000  0  4G 3G23G21G17
 -12174318.253 8  -9411625.44126  21903734.860
 -17150852.685 8 -13377243.99927  22390745.519
  -3159269.187 5  -2503414.10525  25260653.683
 -18035106.721 8 -14069375.82329  21587415.683
 92  6 11  3 56 30.0040000  0  4G 3G23G21G17
 -12134322.974 8  -9380460.29126  21911344.162
 -17198396.859 8 -13414291.37227  22381696.284
  -3252208.325 5  -2575834.09025  25242964.669
 -18023362.350 8 -14060224.37329  21589653.664
 92  6 11  3 57  0.0040000  0  4G 3G23G21G17
 -12093864.648 8  -9348934.32226  21919045.680
 -17245495.362 8 -13450991.46927  22372734.918
  -3344996.700 5  -2648136.66625  25225313.129
 -18011347.205 8 -14050861.90229  21591937.243
 92  6 11  3 57 30.0040000  0  4G 3G23G21G17
 -12052948.622 8  -9317051.68526  21926829.462
 -17292147.615 8 -13487343.83827  22363854.106
  -3437638.129 5  -2720324.66025  25207687.071
 -17999059.440 8 -14041287.00829  21594274.545
 92  6 11  3 58  0.0040000  0  4G 3G23G21G17
 -12011575.924 8  -9284813.21526  21934705.070
 -17338373.808 8 -13523364.21327  22355058.585
  -3530125.581 5  -2792392.66425  25190080.950
 -17986486.331 8 -14031489.77029  21596670.636
 92  6 11  3 58 30.0040000  0  4G 3G23G21G17
 -11969746.927 8  -9252219.20526  21942664.380
 -17384176.944 8 -13559054.92327  22346343.498
  -3622468.289 5  -2864347.93125  25172512.902
 -17973625.573 8 -14021468.39529  21599116.853
 92  6 11  3 59  0.0040000  0  5G 3G23G21G17G28
 -11927457.601 8  -9219266.47726  21950710.989
 -17429543.913 8 -13594405.77827  22337710.225
  -3714654.109 5  -2936180.86925  25154965.690
 -17960459.732 8 -14011209.27429  21601622.548
  -3775580.53315  -2945798.22835  26001198.585
 92  6 11  3 59 30.0040000  0  5G 3G23G21G17G28
 -11884698.209 8  -9185947.47526  21958848.795
 -17474473.537 8 -13629415.84327  22329159.545
  -3806668.512 5  -3007880.29925  25137464.435
 -17946973.967 8 -14000700.86429  21604185.983
  -3872873.243 5  -3021610.75325  25982681.244
 92  6 11  4  0  0.0040000  0  5G 3G23G21G17G28
 -11841457.420 8  -9152253.34726  21967077.589
 -17518953.584 8 -13664075.59528  22320697.033
  -3898506.356 5  -3079442.14325  25119978.471
 -17933164.115 8 -13989939.93229  21606813.155
  -3970107.527 5  -3097377.63725  25964182.311
 92  6 11  4  0 30.0040000  0  5G 3G23G21G17G28
 -11797737.687 8  -9118186.02826  21975394.521
 -17562974.248 8 -13698377.34428  22312320.562
  -3990174.260 5  -3150871.53825  25102538.824
 -17919039.438 8 -13978933.66929  21609504.811
  -4067275.818 5  -3173093.09825  25945689.343
 92  6 11  4  1  0.0040000  0  5G 3G23G21G17G28
 -11753538.514 8  -9083745.10126  21983805.828
 -17606545.236 8 -13732328.71928  22304027.673
  -4081663.987 5  -3222162.12325  25085122.291
 -17904616.404 8 -13967694.93229  21612251.510
  -4164369.468 5  -3248750.39325  25927213.823
 92  6 11  4  1 30.0040000  0  5G 3G23G21G17G28
 -11708860.861 8  -9048931.32926  21992310.011
 -17649685.827 8 -13765944.72728  22295817.647
  -4172979.092 5  -3293316.60125  25067751.057
 -17889900.937 8 -13956228.32029  21615049.023
  -4261410.471 5  -3324366.75025  25908745.858
 92  6 11  4  2  0.0040000  0  5G 3G23G21G17G28
 -11663707.492 8  -9013746.90526  22000900.863
 -17692398.166 8 -13799227.04028  22287693.271
  -4264120.649 5  -3364335.88225  25050407.434
 -17874892.609 8 -13944533.51229  21617904.846
  -4358408.219 5  -3399949.31725  25890296.391
 92  6 11  4  2 30.0040000  0  5G 3G23G21G17G28
 -11618087.013 7  -8978198.48726  22009581.744
 -17734694.905 8 -13832185.49228  22279643.544
  -4355088.640 5  -3435219.90025  25033094.329
 -17859602.691 8 -13932619.28629  21620814.961
  -4455374.543 5  -3475507.43125  25871835.801
 92  6 11  4  3  0.0040000  0  5G 3G23G21G17G28
 -11572002.821 7  -8942288.71426  22018348.784
 -17776595.190 8 -13864835.02428  22271667.296
  -4445893.542 5  -3505976.84725  25015813.962
 -17844026.511 8 -13920481.98929  21623777.540
  -4552323.780 5  -3551052.26025  25853385.314
 92  6 11  4  3 30.0040000  0  5G 3G23G21G17G28
 -11525455.873 7  -8906018.38026  22027209.180
 -17818084.846 8 -13897164.59328  22263772.291
  -4536534.696 6  -3576606.17725  24998570.979
 -17828149.982 8 -13908110.65029  21626796.930
  -4649252.279 5  -3626580.95325  25834942.831
 92  6 11  4  4  0.0040000  0  5G 3G23G21G17G28
 -11478444.910 7  -8869386.45726  22036156.696
 -17859137.703 8 -13929153.80028  22255961.349
  -4627008.305 6  -3647104.97925  24981353.659
 -17811977.055 8 -13895508.34129  21629873.310
  -4746136.447 5  -3702074.99425  25816510.152
 92  6 11  4  4 30.0040000  0  5G 3G23G21G17G28
 -11430964.502 8  -8832388.75226  22045190.672
 -17899744.998 8 -13960795.82928  22248233.029
  -4717314.718 6  -3717473.54025  24964164.309
 -17795497.725 8 -13882667.30529  21633012.617
  -4842955.275 5  -3777518.15225  25798084.248
 92  6 11  4  5  0.0040000  0  5G 3G23G21G17G28
 -11383008.396 7  -8795020.36526  22054312.847
 -17939887.429 8 -13992075.59728  22240593.687
  -4807447.208 6  -3787706.55525  24947015.281
 -17778699.756 8 -13869577.95129  21636209.334
  -4939695.948 5  -3852900.44725  25779672.944
 92  6 11  4  5 30.0040000  0  5G 3G23G21G17G28
 -11334582.889 7  -8757286.19326  22063531.165
 -17979546.795 8 -14022978.96228  22233048.241
  -4897402.679 6  -3857801.58925  24929894.913
 -17761600.454 8 -13856253.82029  21639462.232
  -5036362.303 5  -3928224.86025  25761284.304
 92  6 11  4  6  0.0040000  0  5G 3G23G21G17G28
 -11285687.550 7  -8719185.94226  22072835.344
 -18018733.586 8 -14053514.10228  22225592.163
  -4987185.238 6  -3927761.88525  24912811.240
 -17744211.678 8 -13842704.11429  21642773.290
  -5132961.283 5  -4003496.69125  25742901.750
 92  6 11  4  6 30.0040000  0  5G 3G23G21G17G28
 -11236322.000 7  -8680719.27826  22082230.450
 -18057464.142 8 -14083693.72128  22218221.825
  -5076796.052 5  -3997588.39625  24895758.445
 -17726539.266 8 -13828933.39429  21646132.464
  -5229505.481 5  -4078725.92525  25724521.834
 92  6 11  4  7  0.0040000  0  5G 3G23G21G17G28
 -11186486.939 7  -8641886.77426  22091710.697
 -18095740.514 8 -14113519.42628  22210935.220
  -5166226.565 5  -4067274.38225  24878746.122
 -17708597.521 8 -13814952.79329  21649550.398
  -5326011.762 6  -4153925.60225  25706160.266
 92  6 11  4  7 30.0040000  0  5G 3G23G21G17G28
 -11136180.301 7  -8602686.79226  22101283.520
 -18133587.811 8 -14143010.80428  22203738.042
  -5255474.046 5  -4136817.74525  24861761.261
 -17690389.014 8 -13800764.33729  21653014.080
  -5422483.699 6  -4229098.44125  25687802.474
 92  6 11  4  8  0.0040000  0  5G 3G23G21G17G28
 -11085403.818 7  -8563120.71626  22110945.981
 -18171025.521 8 -14172183.00928  22196610.806
  -5344538.237 5  -4206218.30225  24844803.261
 -17671910.358 8 -13786365.36829  21656531.425
  -5518903.088 6  -4304230.41025  25669456.945
 92  6 11  4  8 30.0040000  0  5G 3G23G21G17G28
 -11034153.954 7  -8523185.73926  22120699.818
 -18208045.591 8 -14201029.78928  22189566.853
  -5433412.249 5  -4275470.70125  24827890.079
 -17653145.885 8 -13771743.68829  21660101.834
  -5615249.382 6  -4379305.40325  25651122.627
 92  6 11  4  9  0.0040000  0  5G 3G23G21G17G28
 -10982429.082 7  -8482880.65426  22130540.266
 -18244646.334 8 -14229549.82528  22182600.036
  -5522092.638 5  -4344572.17625  24811028.492
 -17634082.843 8 -13756889.34729  21663730.461
  -5711512.710 6  -4454315.74725  25632804.529
 92  6 11  4  9 30.0040000  0  5G 3G23G21G17G28
 -10930234.024 7  -8442209.16326  22140475.088
 -18280834.481 8 -14257748.33428  22175715.871
  -5610586.169 5  -4413528.01225  24794186.932
 -17614715.652 8 -13741798.01829  21667412.512
  -5807678.610 6  -4529250.14025  25614503.998
 92  6 11  4 10  0.0040000  0  5G 3G23G21G17G28
 -10877572.883 7  -8401174.52726  22150495.831
 -18316590.041 8 -14285609.76128  22168910.523
  -5698895.879 5  -4482340.66125  24777378.558
 -17595049.441 8 -13726473.68229  21671158.149
  -5903741.023 5  -4604103.90625  25596227.001
 92  6 11  4 10 30.0040000  0  5G 3G23G21G17G28
 -10824447.704 7  -8359778.28526  22160607.441
 -18351913.356 8 -14313134.39928  22162188.996
  -5787023.077 6  -4551011.08025  24760604.990
 -17575087.923 8 -13710919.23229  21674958.019
  -5999726.753 5  -4678897.96225  25577954.860
 92  6 11  4 11  0.0040000  0  5G 3G23G21G17G28
 -10770859.952 7  -8318021.59826  22170804.042
 -18386799.431 8 -14340318.31728  22155548.893
  -5874961.711 6  -4619534.57625  24743875.132
 -17554835.249 9 -13695137.90529  21678812.720
  -6095646.906 5  -4753640.86725  25559702.206
 92  6 11  4 11 30.0040000  0  5G 3G23G21G17G28
 -10716812.412 7  -8275906.63226  22181087.223
 -18421238.288 8 -14367153.76628  22148998.218
  -5962714.283 6  -4687913.13325  24727170.426
 -17534299.692 8 -13679136.17029  21682716.768
  -6191505.736 5  -4828336.02325  25541463.493
 92  6 11  4 12  0.0040000  0  5G 3G23G21G17G28
 -10662307.052 7  -8233434.92826  22191460.132
 -18455223.207 8 -14393635.47628  22142530.495
  -6050281.414 6  -4756147.15725  24710513.777
 -17513487.548 8 -13662918.88829  21686678.615
  -6287314.260 5  -4902991.97125  25523230.295
 92  6 11  4 12 30.0040000  0  5G 3G23G21G17G28
 -10607341.632 7  -8190604.71726  22201921.480
 -18488760.152 8 -14419768.12628  22136148.933
  -6137664.795 6  -4824237.99825  24693877.814
 -17492388.282 8 -13646477.89629  21690691.607
  -6383079.663 6  -4977614.30825  25505003.364
 92  6 11  4 13  0.0040000  0  5G 3G23G21G17G28
 -10551909.149 7  -8147410.59626  22212467.938
 -18521840.048 8 -14445544.64928  22129852.152
  -6224850.560 6  -4892174.87125  24677290.357
 -17471004.924 8 -13629815.52629  21694763.658
  -6478781.792 5  -5052187.32725  25486795.559
 92  6 11  4 13 30.0040000  0  5G 3G23G21G17G28
 -10496006.080 7  -8103849.76326  22223106.523
 -18554466.773 8 -14470968.03628  22123644.829
  -6311830.680 6  -4959951.51325  24660740.674
 -17449340.942 8 -13612934.49129  21698886.913
  -6574413.704 6  -5126705.55525  25468600.405
 92  6 11  4 14  0.0040000  0  5G 3G23G21G17G28
 -10439632.583 7  -8059922.39626  22233832.738
 -18586654.641 8 -14496049.47528  22117519.470
  -6398600.224 6  -5027564.06625  24644225.588
 -17427395.970 8 -13595834.50929  21703055.677
  -6669973.889 5  -5201168.01925  25450407.859
 92  6 11  4 14 30.0040000  0  5G 3G23G21G17G28
 -10382782.678 8  -8015623.76526  22244652.458
 -18618400.339 8 -14520786.34928  22111480.571
  -6485144.992 6  -5095001.43525  24627760.506
 -17405170.997 8 -13578516.34729  21707290.036
  -6765448.026 6  -5275563.44225  25432243.314
 92  6 11  4 15  0.0040000  0  5G 3G23G21G17G28
 -10325455.230 7  -7970953.01226  22255563.554
 -18649697.481 8 -14545173.71828  22105521.266
  -6571457.310 6  -5162257.68425  24611333.648
 -17382674.718 8 -13560986.75929  21711568.644
  -6860816.037 6  -5349876.07525  25414092.290
 92  6 11  4 15 30.0040000  0  5G 3G23G21G17G28
 -10267653.638 7  -7925912.82226  22266561.021
 -18680547.274 8 -14569212.47528  22099652.439
  -6657556.781 6  -5229348.09525  24594952.449
 -17359910.970 8 -13543248.76729  21715902.953
  -6956082.152 6  -5424109.31525  25395967.857
 92  6 11  4 16  0.0040000  0  5G 3G23G21G17G28
 -10209379.460 8  -7880504.40026  22277647.945
 -18710951.523 8 -14592904.08828  22093866.624
  -6743458.310 6  -5296284.26525  24578606.385
 -17336877.551 8 -13525300.64929  21720284.870
  -7051249.454 5  -5498265.61725  25377858.744
 92  6 11  4 16 30.0040000  0  5G 3G23G21G17G28
 -10150633.338 8  -7834728.19126  22288828.765
 -18740905.102 8 -14616244.51228  22088167.720
  -6829165.224 6  -5363068.73825  24562292.579
 -17313572.606 8 -13507140.94729  21724715.203
  -7146312.638 6  -5572340.79325  25359768.518
 92  6 11  4 17  0.0040000  0  5G 3G23G21G17G28
 -10091416.957 8  -7788585.55826  22300097.574
 -18770413.087 8 -14639237.74028  22082549.669
  -6914691.046 6  -5429712.16225  24546016.127
 -17289988.547 8 -13488763.73729  21729208.462
  -7241274.404 6  -5646336.85325  25341696.429
 92  6 11  4 17 30.0040000  0  5G 3G23G21G17G28
 -10031722.202 8  -7742070.19526  22311457.280
 -18799466.509 8 -14661876.74128  22077021.196
  -7000025.986 6  -5496206.82725  24529776.579
 -17266109.224 8 -13470156.46629  21733748.699
  -7336127.963 6  -5720248.68725  25323650.961
 92  6 11  4 18  0.0040000  0  5G 3G23G21G17G28
  -9971551.639 8  -7695184.05526  22322906.473
 -18828064.685 8 -14684161.01028  22071580.233
  -7085158.924 6  -5562544.09225  24513584.039
 -17241922.370 8 -13451309.56829  21738353.721
  -7430863.371 6  -5794068.40125  25305621.863
 92  6 11  4 18 30.0040000  0  5G 3G23G21G17G28
  -9910912.131 7  -7647932.49726  22334446.295
 -18856207.934 8 -14706090.80128  22066224.920
  -7170089.960 6  -5628724.03825  24497417.011
 -17217434.128 8 -13432227.79429  21743013.365
  -7525469.855 6  -5867787.72025  25287613.899
 92  6 11  4 19  0.0040000  0  5G 3G23G21G17G28
  -9849800.618 8  -7600313.13626  22346075.034
 -18883895.216 8 -14727665.27428  22060953.909
  -7254819.793 6  -5694747.18025  24481292.074
 -17192653.657 8 -13412918.33129  21747731.559
  -7619943.720 6  -5941403.64225  25269640.292
 92  6 11  4 19 30.0040000  0  5G 3G23G21G17G28
  -9788216.014 8  -7552325.15226  22357795.480
 -18911131.622 8 -14748888.42928  22055774.485
  -7339326.707 6  -5760596.67025  24465212.316
 -17167586.354 8 -13393385.36329  21752499.278
  -7714287.561 6  -6014918.23825  25251682.454
 92  6 11  4 20  0.0040000  0  5G 3G23G21G17G28
  -9726159.160 8  -7503969.16326  22369605.175
 -18937923.712 8 -14769765.35628  22050674.895
  -7423608.702 6  -5826270.84825  24449169.102
 -17142233.181 8 -13373629.64729  21757323.358
  -7808507.218 6  -6088336.12825  25233753.846
 92  6 11  4 20 30.0040000  0  5G 3G23G21G17G28
  -9663624.257 7  -7455240.68526  22381504.267
 -18964268.602 8 -14790293.83728  22045662.336
  -7507655.036 6  -5891761.39725  24433182.730
 -17116603.968 8 -13353658.82429  21762201.342
  -7902596.562 6  -6161652.42225  25215848.531
 92  6 11  4 21  0.0040000  0  5G 3G23G21G17G28
  -9600612.490 7  -7406140.60526  22393494.766
 -18990169.021 8 -14810475.93928  22040730.360
  -7591454.310 6  -5957059.45125  24417239.527
 -17090708.383 8 -13333480.43929  21767131.848
  -7996561.790 6  -6234871.95025  25197973.346
 92  6 11  4 21 30.0040000  0  5G 3G23G21G17G28
  -9537124.058 8  -7356669.13126  22405576.852
 -19015607.628 8 -14830298.21728  22035891.230
  -7674996.179 6  -6022156.91725  24401337.755
 -17064538.909 8 -13313088.63329  21772106.754
  -8090398.400 6  -6307991.31925  25180119.896
 92  6 11  4 22  0.0040000  0  5G 3G23G21G17G28
  -9473156.146 8  -7306823.99526  22417749.205
 -19040568.300 8 -14849748.08528  22031142.607
  -7758297.400 6  -6087066.89925  24385485.330
 -17038105.363 8 -13292491.08729  21777139.940
  -8184098.241 6  -6381004.12225  25162282.185
 92  6 11  4 22 30.0040000  0  5G 3G23G21G17G28
  -9408709.886 8  -7256606.15226  22430012.306
 -19065046.999 8 -14868822.37128  22026485.212
  -7841362.884 6  -6151793.18525  24369674.665
 -17011414.797 8 -13271693.22929  21782218.304
  -8277671.271 6  -6453918.12725  25144478.860
 92  6 11  4 23  0.0040000  0  5G 3G23G21G17G28
  -9343786.726 7  -7206016.68526  22442367.472
 -19089050.596 8 -14887526.44128  22021916.405
  -7924197.451 6  -6216339.46325  24353914.936
 -16984457.757 8 -13250687.74429  21787348.323
  -8371135.855 6  -6526747.56125  25126686.567
 92  6 11  4 23 30.0040000  0  5G 3G23G21G17G28
  -9278382.136 7  -7155052.07626  22454812.727
 -19112582.802 8 -14905863.21728  22017441.133
  -8006809.658 6  -6280712.54425  24338193.309
 -16957212.722 8 -13229457.86429  21792533.773
  -8464495.596 6  -6599495.33725  25108925.453
 92  6 11  4 24  0.0040000  0  5G 3G23G21G17G28
  -9212493.435 7  -7103710.24426  22467351.456
 -19135664.859 8 -14923849.23128  22013045.726
  -8089198.297 6  -6344911.41525  24322513.264
 -16929663.690 8 -13207991.08729  21797774.984
  -8557744.009 6  -6672156.34225  25091175.251
 92  6 11  4 24 30.0040000  0  5G 3G23G21G17G28
  -9146120.853 7  -7051991.35726  22479978.715
 -19158299.951 8 -14941486.92828  22008736.719
  -8171347.546 6  -6408923.74125  24306881.786
 -16901781.646 8 -13186264.82629  21803083.949
  -8650862.559 6  -6744716.20725  25073467.320
 92  6 11  4 25  0.0040000  0  5G 3G23G21G17G28
  -9079263.875 7  -6999895.02426  22492702.716
 -19180492.296 8 -14958779.65628  22004516.810
  -8253256.231 6  -6472748.59825  24291304.360
 -16873566.694 8 -13164279.15429  21808450.144
  -8743819.657 6  -6817150.18825  25055771.650
 92  6 11  4 25 30.0040000  0  5G 3G23G21G17G28
  -9011929.901 7  -6947427.02326  22505518.544
 -19202237.611 8 -14975724.04128  22000375.087
  -8334931.138 6  -6536391.27225  24275757.393
 -16845039.661 8 -13142050.29129  21813878.606
  -8836600.474 6  -6889446.85725  25038115.164
 92  6 11  4 26  0.0040000  0  5G 3G23G21G17G28
  -8944122.939 7  -6894590.44726  22518421.251
 -19223534.378 8 -14992318.90728  21996324.681
  -8416366.296 6  -6599847.15325  24260259.142
 -16816226.122 8 -13119598.16729  21819360.731
  -8929201.002 6  -6961603.06125  25020497.860
 92  6 11  4 26 30.0040000  0  5G 3G23G21G17G28
  -8875848.038 7  -6841389.24726  22531411.768
 -19244377.426 8 -15008560.22728  21992358.907
  -8497569.868 6  -6663122.60025  24244808.978
 -16787158.047 8 -13096947.73729  21824892.891
  -9021627.189 6  -7033623.42825  25002904.749
 92  6 11  4 27  0.0040000  0  5G 3G23G21G17G28
  -8807105.460 7  -6787823.63126  22544494.441
 -19264776.782 8 -15024455.81328  21988475.665
  -8578543.361 6  -6726218.72525  24229394.879
 -16757850.579 8 -13074110.74329  21830469.121
  -9113897.309 6  -7105522.11825  24985348.963
 92  6 11  4 27 30.0040000  0  5G 3G23G21G17G28
  -8737894.536 7  -6733893.07026  22557665.163
 -19284732.448 8 -15040005.67528  21984678.374
  -8659283.320 6  -6789132.88825  24214035.792
 -16728298.976 8 -13051083.53429  21836091.369
  -9206028.157 6  -7177312.35125  24967814.612
 92  6 11  4 28  0.0040000  0  5G 3G23G21G17G28
  -8668220.512 7  -6679601.63426  22570925.284
 -19304258.796 8 -15055220.99728  21980962.416
  -8739786.686 6  -6851862.69725  24198716.067
 -16698493.746 8 -13027858.65929  21841765.450
  -9298018.486 6  -7248993.03225  24950312.428
 92  6 11  4 28 30.0040000  0  5G 3G23G21G17G28
  -8598075.579 7  -6624943.26426  22584273.183
 -19323340.921 8 -15070090.17428  21977328.572
  -8820042.083 6  -6914399.29225  24183437.385
 -16668408.419 8 -13004415.55029  21847488.698
  -9389847.496 6  -7320548.02925  24932836.776
 92  6 11  4 29  0.0040000  0  5G 3G23G21G17G28
  -8527459.220 7  -6569917.57026  22597709.791
 -19341982.992 8 -15084616.44828  21973784.845
  -8900038.861 6  -6976734.34925  24168216.412
 -16638023.031 8 -12980738.62629  21853270.136
  -9481516.433 6  -7391978.32625  24915395.421
 92  6 11  4 29 30.0040000  0  5G 3G23G21G17G28
  -8456370.284 7  -6514523.60626  22611237.476
 -19360168.692 8 -15098787.11028  21970321.523
  -8979778.505 6  -7038869.06725  24153044.575
 -16607331.091 8 -12956822.82829  21859114.290
  -9573013.076 6  -7463274.32025  24897981.556
 92  6 11  4 30  0.0040000  0  5G 3G23G21G17G28
  -8384810.338 7  -6458762.62926  22624853.270
 -19377896.753 8 -15112601.16228  21966947.928
  -9059259.186 6  -7100802.00025  24137920.495
 -16576336.162 8 -12932670.92329  21865011.118
  -9664326.482 6  -7534427.54725  24880606.485
 92  6 11  4 30 30.0040000  0  5G 3G23G21G17G28
  -8312778.069 7  -6402633.60926  22638562.060
 -19395154.170 8 -15126048.49228  21963665.950
  -9138496.717 6  -7162545.43525  24122840.755
 -16545026.099 8 -12908273.47029  21870966.525
  -9755476.420 6  -7605453.41725  24863261.212
 92  6 11  4 31  0.0040000  0  5G 3G23G21G17G28
  -8240273.745 7  -6346136.79925  22652359.828
 -19411939.809 8 -15139128.20128  21960469.443
  -9217498.369 6  -7224105.07325  24107808.292
 -16513408.377 8 -12883636.28429  21876987.557
  -9846464.061 6  -7676352.79725  24845948.138
 92  6 11  4 31 30.0040000  0  5G 3G23G21G17G28
  -8167297.772 7  -6289272.39125  22666245.645
 -19428249.935 8 -15151837.37928  21957369.020
  -9296272.368 6  -7285487.33925  24092816.540
 -16481487.665 8 -12858762.99829  21883061.202
  -9937270.505 6  -7747111.00525  24828666.572
 92  6 11  4 32  0.0040000  0  5G 3G23G21G17G28
  -8093852.647 7  -6232042.45725  22680222.838
 -19444095.585 8 -15164184.61628  21954353.647
  -9374814.189 6  -7346688.69125  24077871.466
 -16449275.593 8 -12833662.68229  21889189.559
 -10027896.922 6  -7817728.91825  24811422.090
 92  6 11  4 32 30.0040000  0  5G 3G23G21G17G28
  -8019938.141 7  -6174446.76825  22694290.839
 -19459473.179 8 -15176167.14928  21951425.215
  -9453115.186 6  -7407702.38925  24062972.891
 -16416774.470 8 -12808337.11529  21895375.477
 -10118337.344 6  -7888201.93225  24794213.493
 92  6 11  4 33  0.0040000  0  5G 3G23G21G17G28
  -7945550.486 7  -6116482.39225  22708440.384
 -19474386.683 8 -15187788.04428  21948588.758
  -9531149.446 6  -7468508.20325  24048118.534
 -16384013.594 8 -12782809.17729  21901607.982
 -10208565.943 6  -7958509.86125  24777036.704
 92  6 11  4 33 30.0040000  0  5G 3G23G21G17G28
  -7870693.798 7  -6058152.50725  22722688.380
 -19488842.457 8 -15199052.27028  21945836.873
  -9608909.817 6  -7529100.63325  24033325.005
 -16351004.884 8 -12757088.09029  21907889.624
 -10298592.052 6  -8028660.00325  24759902.636
 92  6 11  4 34  0.0040000  0  5G 3G23G21G17G28
  -7795371.258 7  -5999459.63725  22737020.228
 -19502832.185 8 -15209953.34128  21943173.097
  -9686391.297 6  -7589475.74125  24018576.655
 -16317757.463 8 -12731180.98629  21914220.281
 -10388429.269 6  -8098662.95825  24742812.128
 92  6 11  4 34 30.0040000  0  5G 3G23G21G17G28
  -7719585.655 7  -5940405.96725  22751443.094
 -19516363.591 8 -15220497.27528  21940599.139
  -9763597.499 6  -7649636.34625  24003885.146
 -16284270.791 8 -12705087.47429  21920586.913
 -10478080.849 6  -8168521.29225  24725751.448
 92  6 11  4 35  0.0040000  0  5G 3G23G21G17G28
  -7643338.829 7  -5880992.88625  22765952.449
 -19529455.227 8 -15230698.53029  21938110.532
  -9840537.601 6  -7709589.57825  23989242.563
 -16250541.683 8 -12678805.06229  21927008.348
 -10567552.188 6  -8238239.18025  24708727.884
 92  6 11  4 35 30.0040000  0  5G 3G23G21G17G28
  -7566639.178 7  -5821226.93025  22780546.856
 -19542121.286 8 -15240568.16129  21935698.552
  -9917223.866 6  -7769345.01425  23974648.906
 -16216558.793 8 -12652324.86729  21933475.171
 -10656851.619 6  -8307823.09325  24691731.420
 92  6 11  4 36  0.0040000  0  5G 3G23G21G17G28
  -7489488.692 7  -5761109.73625  22795230.780
 -19554368.396 8 -15250111.35829  21933366.496
  -9993664.108 6  -7828908.77025  23960110.740
 -16182308.418 8 -12625636.27029  21939991.700
 -10745966.228 6  -8377263.02025  24674776.927
 92  6 11  4 36 30.0040000  0  5G 3G23G21G17G28
  -7411884.274 7  -5700638.76325  22809995.798
 -19566207.659 8 -15259336.74529  21931116.644
 -10069855.796 6  -7888278.84125  23945608.340
 -16147777.447 8 -12598729.01129  21946560.422
 -10834885.023 6  -8446550.39025  24657851.215
 92  6 11  4 37  0.0040000  0  5G 3G23G21G17G28
  -7333827.128 7  -5639815.03125  22824850.065
 -19577619.727 8 -15268229.25029  21928945.067
 -10145796.852 6  -7947453.62725  23931157.355
 -16112964.533 8 -12571602.06829  21953186.465
 -10923601.936 6  -8515680.40225  24640974.788
 92  6 11  4 37 30.0040000  0  5G 3G23G21G17G28
  -7255316.814 7  -5578638.18125  22839788.034
 -19588570.549 8 -15276762.34229  21926861.300
 -10221487.088 6  -8006432.93625  23916753.946
 -16077872.229 8 -12544257.39229  21959864.282
 -11012113.362 6  -8584650.31825  24624126.902
 92  6 11  4 38  0.0040000  0  5G 3G23G21G17G28
  -7176353.188 7  -5517108.10325  22854815.191
 -19599050.898 8 -15284928.84929  21924863.693
 -10296923.485 6  -8065214.47625  23902400.692
 -16042497.109 8 -12516692.36429  21966598.910
 -11100418.846 6  -8653459.72925  24607323.534
 92  6 11  4 38 30.0040000  0  5G 3G23G21G17G28
  -7096933.951 7  -5455223.01725  22869930.097
 -19609055.420 8 -15292724.54429  21922961.180
 -10372096.201 6  -8123790.54625  23888092.678
 -16006850.782 8 -12488916.00829  21973381.564
 -11188519.012 6  -8722109.13725  24590558.181
 92  6 11  4 39  0.0040000  0  5G 3G23G21G17G28
  -7017049.142 7  -5392975.11925  22885131.343
 -19618565.939 8 -15300135.32829  21921152.742
 -10446992.795 6  -8182151.45825  23873841.623
 -15970927.597 8 -12460923.90629  21980212.815
 -11276404.162 6  -8790591.00025  24573838.606
 92  6 11  4 39 30.0040000  0  5G 3G23G21G17G28
  -6936692.945 7  -5330359.94425  22900422.677
 -19627597.840 8 -15307173.15829  21919432.533
 -10521599.764 6  -8240286.69025  23859642.763
 -15934713.914 8 -12432705.44029  21987106.693
 -11364079.647 6  -8858909.49125  24557149.609
 92  6 11  4 40  0.0040000  0  5G 3G23G21G17G28
  -6855861.183 7  -5267374.18925  22915806.078
 -19636179.993 8 -15313860.54429  21917798.454
 -10595904.335 6  -8298186.27325  23845503.202
 -15898191.394 8 -12404246.33029  21994060.229
 -11451537.190 6  -8927058.18325  24540508.819
 92  6 11  4 40 30.0040000  0  5G 3G23G21G17G28
  -6774556.707 7  -5204020.05325  22931277.437
 -19644321.028 8 -15320204.18529  21916250.116
 -10669919.008 6  -8355859.97625  23831418.832
 -15861363.880 8 -12375549.56729  22001070.036
 -11538776.180 6  -8995036.59125  24523906.943
 92  6 11  4 41  0.0040000  0  5G 3G23G21G17G28
  -6692784.010 7  -5140301.09725  22946837.265
 -19652023.069 8 -15326205.76129  21914788.328
 -10743651.227 6  -8413313.59525  23817389.744
 -15824218.776 8 -12346605.33029  22008131.588
 -11625798.734 6  -9062846.30725  24507350.844
 92  6 11  4 41 30.0040000  0  5G 3G23G21G17G28
  -6610551.206 7  -5076223.65625  22962487.001
 -19659302.485 8 -15331878.02529  21913401.188
 -10817112.604 6  -8470556.17425  23803409.762
 -15786760.908 8 -12317417.38129  22015261.342
 -11712589.752 6  -9130475.64125  24490832.130
 92  6 11  4 42  0.0040000  0  5G 3G23G21G17G28
  -6527860.527 7  -5011789.36125  22978217.921
 -19666154.094 8 -15337216.92829  21912098.290
 -10890315.321 6  -8527597.19425  23789478.587
 -15749013.165 8 -12288003.55529  22022443.110
 -11799125.501 6  -9197906.06525  24474365.130
 92  6 11  4 42 30.0040000  0  5G 3G23G21G17G28
  -6444714.196 7  -4947000.01525  22994040.547
 -19672560.695 8 -15342209.06429  21910877.295
 -10963259.578 6  -8584436.82825  23775597.686
 -15710998.241 8 -12258381.54329  22029680.100
 -11885402.671 6  -9265134.98925  24457945.497
 92  6 11  4 43  0.0040000  0  5G 3G23G21G17G28
  -6361113.932 7  -4881856.96525  23009953.441
 -19678523.146 8 -15346855.10329  21909743.120
 -11035928.587 6  -8641061.97225  23761768.650
 -15672732.432 8 -12228564.03929  22036962.508
 -11971416.283 6  -9332158.52025  24441579.527
 92  6 11  4 43 30.0050000  0  5G 3G23G21G17G28
  -6277053.633 7  -4816355.48725  23025949.257
 -19684037.170 8 -15351151.74229  21908694.746
 -11108314.457 6  -8697466.48525  23747995.645
 -15634228.392 8 -12198560.89029  22044286.948
 -12057162.454 6  -9398973.70525  24425263.892
 92  6 11  4 44  0.0050000  0  5G 3G23G21G17G28
  -6192536.870 7  -4750498.28525  23042031.534
 -19689091.764 8 -15355090.35029  21907730.404
 -11180402.580 6  -8753638.95525  23734277.831
 -15595489.124 8 -12168374.46129  22051660.673
 -12142653.356 6  -9465589.94225  24408996.313
 92  6 11  4 44 30.0050000  0  5G 3G23G21G17G28
  -6107558.468 7  -4684281.35025  23058201.829
 -19693677.239 8 -15358663.44529  21906858.128
 -11252186.553 6  -8809574.45625  23720616.499
 -15556499.286 8 -12137992.77729  22059079.157
 -12227901.560 6  -9532017.06125  24392774.154
 92  6 11  4 45  0.0050000  0  5G 3G23G21G17G28
  -6022112.273 7  -4617699.95925  23074459.754
 -19697788.269 8 -15361866.81729  21906079.387
 -11323660.827 7  -8865268.63725  23707019.262
 -15517236.307 8 -12107398.25129  22066548.906
 -12312897.091 6  -9598247.31025  24376598.522
 92  6 11  4 45 30.0050000  0  5G 3G23G21G17G28
  -5936196.706 7  -4550752.78425  23090809.445
 -19701416.369 8 -15364693.89029  21905385.937
 -11394828.245 7  -8920723.70625  23693473.290
 -15477675.259 8 -12076571.47629  22074078.074
 -12397641.434 6  -9664281.84825  24360473.585
 92  6 11  4 46  0.0050000  0  5G 3G23G21G17G28
  -5849819.788 7  -4483446.10925  23107247.515
 -19704568.738 8 -15367150.25229  21904786.502
 -11465701.200 6  -8975949.30625  23679983.079
 -15437813.774 8 -12045510.59529  22081667.230
 -12482132.365 6  -9730118.88025  24344395.865
 92  6 11  4 46 30.0050000  0  5G 3G23G21G17G28
  -5762986.626 7  -4415783.92725  23123770.667
 -19707260.860 8 -15369247.98829  21904274.067
 -11536283.396 7  -9030948.33026  23666553.786
 -15397652.929 8 -12014216.42729  22089307.141
 -12566361.767 6  -9795752.16025  24328364.134
 92  6 11  4 47  0.0050000  0  5G 3G23G21G17G28
  -5675706.886 7  -4347773.78225  23140381.297
 -19709512.628 8 -15371002.59129  21903844.734
 -11606582.274 7  -9085726.61526  23653179.804
 -15357187.669 8 -11982685.04829  22097008.869
 -12650320.602 6  -9861174.59625  24312388.464
 92  6 11  4 47 30.0050000  0  5G 3G23G21G17G28
  -5587989.096 7  -4279422.28725  23157071.493
 -19711333.249 8 -15372421.24329  21903500.962
 -11676608.886 7  -9140292.77325  23639853.280
 -15316423.109 8 -11950920.43829  22104764.860
 -12734020.961 6  -9926395.61825  24296459.651
 92  6 11  4 48  0.0050000  0  5G 3G23G21G17G28
  -5499829.912 7  -4210726.83225  23173848.359
 -19712720.370 8 -15373502.10229  21903235.645
 -11746358.671 7  -9194643.19726  23626577.631
 -15275361.226 8 -11918924.17029  22112580.569
 -12817456.164 6  -9991410.03125  24280580.574
 92  6 11  4 48 30.0050000  0  5G 3G23G21G17G28
  -5411232.009 7  -4141689.58225  23190711.804
 -19713671.322 8 -15374243.07629  21903054.091
 -11815819.318 7  -9248768.29526  23613362.569
 -15234003.559 8 -11886697.40629  22120446.254
 -12900641.337 6 -10056229.63625  24264752.911
 92  6 11  4 49  0.0050000  0  5G 3G23G21G17G28
  -5322196.362 7  -4072311.17825  23207651.907
 -19714172.636 8 -15374633.70029  21902960.496
 -11884982.899 7  -9302661.92826  23600199.942
 -15192355.148 8 -11854244.08729  22128373.965
 -12983580.054 6 -10120857.14825  24248975.074
 92  6 11  4 49 30.0050000  0  5G 3G23G21G17G28
  -5232722.603 7  -4002591.39125  23224675.891
 -19714222.085 8 -15374672.21129  21902948.894
 -11953834.635 7  -9356312.56326  23587096.373
 -15150437.792 8 -11821581.19629  22136352.282
 -13066283.953 6 -10185301.71825  24233231.503
 92  6 11  4 50  0.0050000  0  5G 3G23G21G17G28
  -5142809.837 7  -3932529.53425  23241786.336
 -19713819.653 8 -15374358.61029  21903028.069
 -12022359.177 7  -9409708.27626  23574057.679
 -15108268.950 8 -11788722.36429  22144374.848
 -13148731.106 6 -10249546.22925  24217539.886
 92  6 11  4 50 30.0050000  0  5G 3G23G21G17G28
  -5052453.174 7  -3862121.80025  23258981.952
 -19712974.063 8 -15373699.68629  21903188.158
 -12090562.802 7  -9462853.87726  23561081.073
 -15065850.500 8 -11755669.03029  22152443.522
 -13230892.069 7 -10313567.74725  24201913.054
 92  6 11  4 51  0.0050000  0  5G 3G23G21G17G28
  -4961658.282 7  -3791372.55925  23276262.379
 -19711704.905 8 -15372710.71329  21903428.592
 -12158462.985 7  -9515763.05226  23548159.299
 -15023188.589 8 -11722425.97429  22160564.540
 -13312749.129 7 -10377352.41825  24186334.429
 92  6 11  4 51 30.0050000  0  5G 3G23G21G17G28
  -4870426.866 7  -3720283.16425  23293621.741
 -19710020.372 8 -15371398.07929  21903747.421
 -12226071.414 7  -9568444.87226  23535290.527
 -14980272.943 8 -11688985.20529  22168732.176
 -13394290.263 6 -10440890.94325  24170814.084
 92  6 11  4 52  0.0050000  0  5G 3G23G21G17G28
  -4778752.137 7  -3648848.35425  23311063.576
 -19707908.589 8 -15369752.51629  21904151.242
 -12293400.424 7  -9620908.98726  23522478.807
 -14937086.327 8 -11655333.28729  22176950.327
 -13475497.465 7 -10504169.24725  24155358.283
 92  6 11  4 52 30.0050000  0  5G 3G23G21G17G28
  -4686633.564 7  -3577067.70925  23328592.262
 -19705379.264 8 -15367781.59229  21904632.498
 -12360450.434 7  -9673155.67726  23509719.820
 -14893624.752 8 -11621467.12129  22185221.211
 -13556388.323 7 -10567201.03625  24139970.027
 92  6 11  4 53  0.0050000  0  5G 3G23G21G17G28
  -4594083.640 7  -3504950.89025  23346210.645
 -19702428.234 8 -15365482.08629  21905193.650
 -12427205.461 7  -9725172.52526  23497018.752
 -14849901.617 8 -11587397.14329  22193539.163
 -13636995.718 7 -10630011.98025  24124628.717
 92  6 11  4 53 30.0050000  0  5G 3G23G21G17G28
  -4501107.935 7  -3432502.30525  23363897.320
 -19699046.038 8 -15362846.59029  21905835.326
 -12493665.584 7  -9776959.58326  23484374.346
 -14805925.168 8 -11553129.77029  22201910.117
 -13717330.688 7 -10692610.62425  24109340.981
 92  6 11  4 54  0.0050000  0  5G 3G23G21G17G28
  -4407710.819 7  -3359725.39625  23381674.174
 -19695236.924 8 -15359878.42829  21906563.162
 -12559829.162 7  -9828515.57626  23471781.234
 -14761703.371 8 -11518671.21729  22210323.583
 -13797404.133 7 -10755005.46925  24094105.888
 92  6 11  4 54 30.0050000  0  5G 3G23G21G17G28
  -4313888.264 7  -3286616.93025  23399528.494
 -19690989.166 8 -15356568.47529  21907373.021
 -12625675.682 7  -9879824.48426  23459249.579
 -14717217.532 8 -11484006.93129  22218788.043
 -13877202.948 7 -10817186.34425  24078918.881
 92  6 11  4 55  0.0050000  0  5G 3G23G21G17G28
  -4219629.387 7  -3213168.46125  23417465.346
 -19686267.911 8 -15352889.56429  21908270.240
 -12691207.004 7  -9930887.78426  23446781.571
 -14672427.142 8 -11449105.30829  22227312.282
 -13956701.004 7 -10879132.83625  24063792.163
 92  6 11  4 55 30.0050000  0  5G 3G23G21G17G28
  -4124939.823 7  -3139384.41325  23435485.301
 -19681085.431 8 -15348851.22729  21909255.298
 -12756445.503 7  -9981722.94626  23434366.775
 -14627317.550 8 -11413954.96129  22235896.239
 -14035883.755 7 -10940833.66125  24048725.074
 92  6 11  4 56  0.0050000  0  5G 3G23G21G17G28
  -4029826.505 7  -3065270.21825  23453578.945
 -19675462.149 8 -15344469.41929  21910326.307
 -12821390.908 7 -10032329.74426  23422004.803
 -14581889.005 8 -11378556.08129  22244542.793
 -14114752.823 7 -11002290.02725  24033717.913
 92  6 11  4 56 30.0050000  0  5G 3G23G21G17G28
  -3934292.161 7  -2990827.90225  23471759.769
 -19669398.905 8 -15339744.77629  21911478.619
 -12886043.496 7 -10082708.30926  23409703.120
 -14536148.289 8 -11342913.97329  22253246.248
 -14193303.711 7 -11063498.48825  24018768.493
 92  6 11  4 57  0.0050000  0  5G 3G23G21G17G28
  -3838336.524 7  -2916057.27425  23490022.256
 -19662911.573 8 -15334689.69829  21912711.336
 -12950408.591 7 -10132862.87626  23397455.668
 -14490114.910 8 -11307043.79129  22262003.486
 -14271539.979 7 -11124461.76125  24003877.591
 92  6 11  4 57 30.0050000  0  5G 3G23G21G17G28
  -3741961.257 7  -2840959.71525  23508361.130
 -19656021.699 8 -15329320.94129  21914023.857
 -13014476.498 7 -10182785.88126  23385263.049
 -14443826.951 8 -11270975.25029  22270815.915
 -14349462.659 7 -11185180.66925  23989052.435
 92  6 11  4 58  0.0050000  0  5G 3G23G21G17G28
  -3645166.225 6  -2765535.05725  23526779.150
 -19648722.523 8 -15323633.25529  21915413.575
 -13078242.482 7 -10232473.61926  23373131.318
 -14397309.408 8 -11234727.80629  22279666.808
 -14427069.303 7 -11245653.36225  23974283.009
 92  6 11  4 58 30.0050000  0  5G 3G23G21G17G28
  -3547944.908 6  -2689778.20925  23545276.794
 -19640998.341 8 -15317614.40329  21916882.618
 -13141698.619 7 -10281919.91326  23361054.329
 -14350559.832 8 -11198299.56129  22288563.808
 -14504349.245 7 -11305871.46025  23959575.941
 92  6 11  4 59  0.0050000  0  5G 3G23G21G17G28
  -3450299.085 6  -2613690.57625  23563863.866
 -19632854.527 8 -15311268.58029  21918431.735
 -13204845.898 7 -10331125.52526  23349034.780
 -14303584.226 8 -11161695.19029  22297500.741
 -14581297.710 7 -11365831.27325  23944935.156
 92  6 11  4 59 30.0050000  0  5G 3G23G21G17G28
  -3352230.042 6  -2537273.24125  23582526.007
 -19624280.473 8 -15304587.49029  21920065.275
 -13267668.439 7 -10380078.12526  23337081.754
 -14256374.470 8 -11124908.36029  22306486.031
 -14657910.943 7 -11425529.84725  23930353.191
 92  6 11  5  0  0.0050000  0  5G 3G23G21G17G28
  -3253742.580 6  -2460529.78025  23601264.325
 -19615265.277 8 -15297562.63829  21921780.417
 -13330161.277 7 -10428773.81526  23325191.536
 -14208911.992 8 -11087924.60729  22315516.679
 -14734193.700 7 -11484970.91525  23915841.048
 92  6 11  5  0 30.0050000  0  5G 3G23G21G17G28
  -3154833.503 6  -2383457.81825  23620086.854
 -19605811.968 8 -15290196.41629  21923577.463
 -13392306.644 7 -10477198.71926  23313364.723
 -14161175.444 8 -11050727.30529  22324602.309
 -14810151.069 7 -11544158.44325  23901386.614
 92  6 11  5  1  0.0050000  0  5G 3G23G21G17G28
  -3055512.763 6  -2306065.06425  23638985.801
 -19595927.367 8 -15282494.13029  21925458.151
 -13454116.557 7 -10525362.24226  23301601.827
 -14113160.729 8 -11013313.23329  22333738.005
 -14885791.312 7 -11603098.84425  23886992.289
 92  6 11  5  1 30.0050000  0  5G 3G23G21G17G28
  -2955791.264 6  -2228360.01425  23657968.869
 -19585614.432 8 -15274458.05729  21927423.830
 -13515596.734 7 -10573268.84426  23289904.764
 -14064862.221 8 -10975678.02429  22342926.074
 -14961117.342 7 -11661794.43425  23872656.394
 92  6 11  5  2  0.0050000  0  5G 3G23G21G17G28
  -2855672.684 6  -2150345.55125  23677015.313
 -19574876.784 8 -15266091.05529  21929466.916
 -13576764.113 7 -10620931.70126  23278264.843
 -14016285.733 8 -10937826.21729  22352173.472
 -15036127.358 7 -11720243.76225  23858381.416
 92  6 11  5  2 30.0050000  0  5G 3G23G21G17G28
  -2755153.215 6  -2072018.74225  23696145.010
 -19563725.867 8 -15257402.03629  21931586.539
 -13637625.031 7 -10668355.73926  23266680.952
 -13967426.586 8 -10899754.15728  22361468.388
 -15110803.065 7 -11778432.58425  23844171.643
 92  6 11  5  3  0.0050000  0  5G 3G23G21G17G28
  -2654230.058 6  -1993377.38225  23715349.385
 -19552146.483 8 -15248379.14829  21933788.484
 -13698192.382 7 -10715551.04026  23255158.459
 -13918293.669 8 -10861468.75629  22370819.004
 -15185119.333 7 -11836341.32925  23830030.133
 92  6 11  5  3 30.0050000  0  5G 3G23G21G17G28
  -2552906.791 6  -1914424.19025  23734628.888
 -19540143.863 8 -15239026.44229  21936074.881
 -13758462.346 7 -10762514.62226  23243690.438
 -13868904.307 8 -10822983.52828  22380217.588
 -15259069.914 7 -11893965.14425  23815956.107
 92  6 11  5  4  0.0050000  0  5G 3G23G21G17G28
  -2451181.587 6  -1835157.82325  23753990.145
 -19527728.442 8 -15229352.09229  21938438.625
 -13818434.481 7 -10809246.09826  23232277.279
 -13819255.091 8 -10784295.82028  22389665.787
 -15332648.083 7 -11951298.72725  23801953.161
 92  6 11  5  4 30.0050000  0  5G 3G23G21G17G28
  -2349056.391 6  -1755579.80325  23773418.705
 -19514898.999 8 -15219355.14229  21940880.345
 -13878100.612 7 -10855739.14526  23220920.062
 -13769338.888 8 -10745400.09628  22399166.450
 -15405842.537 7 -12008333.31325  23788027.171
 92  6 11  5  5  0.0050000  0  5G 3G23G21G17G28
  -2246532.213 6  -1675690.92325  23792934.864
 -19501646.151 8 -15209028.25029  21943401.090
 -13937452.135 7 -10901987.04326  23209628.678
 -13719160.434 8 -10706299.98428  22408712.591
 -15478655.963 7 -12065071.01125  23774173.732
 92  6 11  5  5 30.0050000  0  5G 3G23G21G17G28
  -2143609.019 6  -1595491.05225  23812516.858
 -19487977.183 8 -15198377.11729  21946002.539
 -13996471.022 7 -10947975.76326  23198396.085
 -13668707.656 8 -10666986.12128  22418312.095
 -15551101.837 7 -12121522.32225  23760385.857
 92  6 11  5  6  0.0050000  0  5G 3G23G21G17G28
  -2040290.746 6  -1514983.34625  23832181.354
 -19473892.183 8 -15187401.80529  21948682.054
 -14055153.848 7 -10993702.58426  23187231.634
 -13617980.803 8 -10627458.69728  22427968.081
 -15623188.550 7 -12177693.71025  23746670.742
 92  6 11  5  6 30.0050000  0  5G 3G23G21G17G28
  -1936580.022 6  -1434169.86325  23851913.064
 -19459377.596 8 -15176091.74129  21951443.862
 -14113493.938 7 -11039162.35726  23176126.062
 -13566993.728 8 -10587728.53028  22437670.624
 -15694932.898 7 -12233598.39725  23733016.395
 92  6 11  5  7  0.0050000  0  5G 3G23G21G17G28
  -1832477.628 6  -1353051.14325  23871728.296
 -19444445.823 8 -15164456.59229  21954286.284
 -14171491.748 7 -11084355.40726  23165091.601
 -13515750.470 8 -10547798.70328  22447419.965
 -15766340.356 7 -12289240.51325  23719429.411
 92  6 11  5  7 30.0050000  0  5G 3G23G21G17G28
  -1727984.636 6  -1271628.05525  23891606.845
 -19429099.664 8 -15152498.53529  21957203.954
 -14229147.922 7 -11129282.25126  23154118.837
 -13464244.540 8 -10507664.21628  22457225.187
 -15837397.594 7 -12344609.76426  23705904.664
 92  6 11  5  8  0.0050000  0  5G 3G23G21G17G28
  -1623097.463 6  -1189897.88525  23911558.872
 -19413347.705 8 -15140224.27329  21960202.058
 -14286468.848 7 -11173947.86526  23143210.019
 -13412466.363 8 -10467317.58428  22467075.078
 -15908087.131 7 -12399692.47625  23692455.524
 92  6 11  5  8 30.0050000  0  5G 3G23G21G17G28
  -1517819.873 6  -1107863.41325  23931600.718
 -19397202.465 8 -15127643.54729  21963274.392
 -14343472.399 7 -11218366.18026  23132364.757
 -13360410.461 8 -10426754.55628  22476981.989
 -15978398.068 7 -12454480.18025  23679076.207
 92  6 11  5  9  0.0050000  0  5G 3G23G21G17G28
  -1412156.424 6  -1025528.25725  23951709.087
 -19380674.405 8 -15114764.54029  21966419.664
 -14400169.540 7 -11262545.72526  23121573.548
 -13308071.848 8 -10385971.19928  22486941.035
 -16048309.155 7 -12508956.31225  23665774.145
 92  6 11  5  9 30.0050000  0  5G 3G23G21G17G28
  -1306108.239 6   -942893.38625  23971889.976
 -19363748.723 8 -15101575.68929  21969639.765
 -14456564.223 7 -11306489.59526  23110844.575
 -13255454.943 8 -10344971.00828  22496953.113
 -16117829.179 7 -12563127.70826  23652541.846
 92  6 11  5 10  0.0050000  0  5G 3G23G21G17G28
  -1199671.096 6   -859955.42325  23992138.798
 -19346416.102 8 -15088069.73829  21972940.720
 -14512654.195 7 -11350196.01226  23100171.964
 -13202567.042 8 -10303759.63628  22507016.816
 -16186966.168 7 -12617000.65426  23639383.116
 92  6 11  5 10 30.0050000  0  5G 3G23G21G17G28
  -1092848.995 6   -776717.45825  24012470.483
 -19328658.529 8 -15074232.65729  21976318.721
 -14568425.585 7 -11393654.18426  23089555.923
 -13149423.234 8 -10262348.88528  22517131.754
 -16255719.747 7 -12670574.82326  23626302.511
 92  6 11  5 11  0.0050000  0  5G 3G23G21G17G28
   -985642.535 6   -693179.96825  24032874.357
 -19310467.103 8 -15060057.52429  21979783.003
 -14623858.708 7 -11436848.80426  23079006.736
 -13096023.084 8 -10220738.36128  22527292.530
 -16324093.385 7 -12723852.96626  23613292.298
 92  6 11  5 11 30.0050000  0  5G 3G23G21G17G28
   -878056.976 6   -609347.18925  24053344.126
 -19291848.801 8 -15045549.75629  21983323.252
 -14678953.372 7 -11479779.66226  23068524.193
 -13042365.057 8 -10178926.89328  22537502.532
 -16392100.839 7 -12776845.75626  23600350.317
 92  6 11  5 12  0.0050000  0  5G 3G23G21G17G28
   -770095.594 6   -525221.48825  24073889.143
 -19272820.306 8 -15030722.31929  21986945.554
 -14733704.044 7 -11522442.48226  23058103.077
 -12988433.817 8 -10136902.54628  22547764.487
 -16459728.536 7 -12829542.62126  23587482.596
 92  6 11  5 12 30.0050000  0  5G 3G23G21G17G28
   -661765.306 6   -440808.31525  24094504.012
 -19253402.207 8 -15015591.33229  21990636.899
 -14788110.974 7 -11564837.45826  23047752.503
 -12934229.573 8 -10094665.46428  22558082.415
 -16526960.660 7 -12881931.26226  23574683.976
 92  6 11  5 13  0.0050000  0  5G 3G23G21G17G28
   -553068.841 6   -356109.84725  24115183.276
 -19233609.736 8 -15000168.61429  21994405.470
 -14842198.683 7 -11606983.68326  23037462.067
 -12879751.739 8 -10052215.19928  22568446.300
 -16593794.907 7 -12934009.84926  23561967.050
 92  6 11  5 13 30.0050000  0  5G 3G23G21G17G28
   -444004.873 6   -271124.96025  24135940.426
 -19213447.069 8 -14984457.43529  21998241.584
 -14895977.064 7 -11648888.85626  23027225.743
 -12825012.485 8 -10009561.21928  22578865.077
 -16660220.200 7 -12985769.77126  23549329.119
 92  6 11  5 14  0.0050000  0  5G 3G23G21G17G28
   -334570.399 6   -185851.40225  24156765.329
 -19192917.459 8 -14968460.31029  22002150.368
 -14949434.785 7 -11690544.17826  23017054.175
 -12770016.583 8  -9966707.25928  22589328.583
 -16726212.966 7 -13037192.65126  23536769.853
 92  6 11  5 14 30.0050000  0  5G 3G23G21G17G28
   -224766.486 6   -100289.97425  24177658.945
 -19172006.740 8 -14952166.22629  22006128.884
 -15002568.145 7 -11731946.74426  23006940.646
 -12714774.844 8  -9923661.74628  22599841.375
 -16791761.757 7 -13088269.57426  23524298.547
 92  6 11  5 15  0.0050000  0  5G 3G23G21G17G28
   -114598.021 6    -14444.46925  24198627.689
 -19150702.793 8 -14935565.72629  22010184.416
 -15055383.783 7 -11773101.75826  22996890.614
 -12659276.485 8  -9880416.26928  22610402.884
 -16856887.008 7 -13139016.46326  23511903.718
 92  6 11  5 15 30.0050000  0  5G 3G23G21G17G28
     -4070.020 6     71681.18525  24219662.027
 -19129010.102 8 -14918662.34529  22014310.820
 -15107857.262 7 -11813990.11627  22986907.375
 -12603510.216 8  -9836962.03028  22621015.327
 -16921591.719 7 -13189435.67326  23499590.372
 92  6 11  5 16  0.0050000  0  5G 3G23G21G17G28
    106812.949 6    158083.42925  24240765.527
 -19106930.225 8 -14901457.23029  22018510.552
 -15159985.000 7 -11854609.08027  22976985.174
 -12547463.011 8  -9793288.87828  22631680.564
 -16985874.302 7 -13239525.94526  23487358.000
 92  6 11  5 16 30.0050000  0  5G 3G23G21G17G28
    218055.009 6    244765.51125  24261932.584
 -19084444.628 8 -14883935.98629  22022790.509
 -15211768.570 7 -11894959.86727  22967134.654
 -12491131.588 8  -9749394.27928  22642400.332
 -17049746.387 7 -13289296.36226  23475204.624
 92  6 11  5 17  0.0050000  0  5G 3G23G21G17G28
    329659.845 6    331730.27525  24283163.736
 -19061563.709 8 -14866106.68129  22027144.965
 -15263204.524 7 -11935039.80227  22957344.241
 -12434510.489 8  -9705273.97028  22653173.225
 -17113215.850 7 -13338753.04826  23463123.018
 92  6 11  5 17 30.0050000  0  5G 3G23G21G17G28
    441631.988 6    418981.25925  24304474.872
 -19038293.254 8 -14847973.86029  22031570.831
 -15314283.274 7 -11974841.37327  22947621.102
 -12377615.616 8  -9660940.33128  22663999.929
 -17176255.537 7 -13387874.85126  23451131.080
 92  6 11  5 18  0.0050000  0  5G 3G23G21G17G28
    553974.110 6    506520.46125  24325851.483
 -19014622.135 8 -14829528.81329  22036076.412
 -15365014.967 7 -12014372.51427  22937971.623
 -12320459.103 8  -9616402.85428  22674878.139
 -17238856.124 7 -13436654.50026  23439217.537
 92  6 11  5 18 30.0050000  0  5G 3G23G21G17G28
    666686.187 6    594348.00925  24347302.084
 -18990544.251 8 -14810766.81929  22040659.789
 -15415405.046 7 -12053637.46827  22928382.701
 -12263048.037 8  -9571667.03628  22685805.214
 -17301025.488 7 -13485098.12426  23427385.449
 92  6 11  5 19  0.0050000  0  5G 3G23G21G17G28
    779765.593 6    682461.73825  24368818.158
 -18966062.678 8 -14791690.26529  22045318.893
 -15465449.169 7 -12092632.85327  22918855.267
 -12205377.360 8  -9526728.82628  22696779.507
 -17362742.301 7 -13533189.12526  23415644.137
 92  6 11  5 19 30.0050000  0  5G 3G23G21G17G28
    893205.833 6    770856.63625  24390408.222
 -18941167.464 8 -14772291.39229  22050053.546
 -15515154.214 7 -12131364.00227  22909400.832
 -12147450.956 8  -9481591.33928  22707801.736
 -17424001.637 7 -13580923.65126  23403986.347
 92  6 11  5 20  0.0050000  0  5G 3G23G21G17G28
   1007006.782 6    859532.65525  24412060.013
 -18915848.611 8 -14752562.41529  22054874.508
 -15564519.448 7 -12169830.37227  22900005.456
 -12089253.968 8  -9436243.06628  22718872.502
 -17484810.032 7 -13628306.79526  23392412.500
 92  6 11  5 20 30.0050000  0  5G 3G23G21G17G28
   1121162.435 6    948485.04425  24433783.034
 -18890118.247 8 -14732512.77729  22059769.909
 -15613545.162 7 -12208032.18427  22890674.026
 -12030777.557 8  -9390677.03728  22730002.087
 -17545176.444 7 -13675345.52926  23380925.652
 92  6 11  5 21  0.0050000  0  5G 3G23G21G17G28
   1235669.312 6   1037711.10625  24455574.888
 -18863990.764 8 -14712153.69029  22064743.646
 -15662219.977 7 -12245960.58227  22881415.476
 -11972023.549 8  -9344894.65828  22741184.705
 -17605093.061 7 -13722033.78626  23369524.665
 92  6 11  5 21 30.0050000  0  5G 3G23G21G17G28
   1350526.139 6   1127209.89625  24477429.518
 -18837478.580 8 -14691494.82129  22069786.844
 -15710536.758 7 -12283609.97927  22872218.473
 -11912991.490 8  -9298895.65928  22752414.871
 -17664570.775 7 -13768380.03926  23358206.900
 92  6 11  5 22  0.0050000  0  5G 3G23G21G17G28
   1465729.248 6   1216978.48225  24499350.433
 -18810599.821 8 -14670550.33029  22074901.424
 -15758492.446 7 -12320978.00827  22863092.580
 -11853679.567 8  -9252678.58427  22763703.646
 -17723605.516 7 -13814381.09326  23346974.966
 92  6 11  5 22 30.0050000  0  5G 3G23G21G17G28
   1581273.856 6   1307013.15225  24521345.516
 -18783368.084 8 -14649330.78129  22080085.645
 -15806079.823 7 -12358059.06227  22854036.240
 -11794094.392 8  -9206248.58927  22775042.126
 -17782194.535 7 -13860034.86026  23335823.645
 92  6 11  5 23  0.0050000  0  5G 3G23G21G17G28
   1697155.208 6   1397310.25925  24543391.773
 -18755782.335 8 -14627835.39529  22085333.722
 -15853303.614 7 -12394856.77527  22845050.830
 -11734239.290 8  -9159608.25527  22786432.321
 -17840332.802 7 -13905337.37426  23324760.314
 92  6 11  5 23 30.0050000  0  6G 3G11G23G21G17G28
   1813373.694 6   1487870.03225  24565507.463
  -2225562.79415  -1763203.25133  26703366.334
 -18727835.617 8 -14606058.72429  22090653.929
 -15900174.780 7 -12431379.71627  22836131.015
 -11674105.715 7  -9112750.89527  22797873.481
 -17898011.164 7 -13950281.53326  23313784.043
 92  6 11  5 24  0.0050000  0  6G 3G11G23G21G17G28
   1929928.671 6   1578691.98325  24587683.921
  -2323776.016 5  -1839732.94424  26684671.846
 -18699515.712 8 -14583991.27629  22096039.280
 -15946708.816 7 -12467639.97927  22827277.365
 -11613694.986 8  -9065677.61627  22809370.791
 -17955220.020 7 -13994859.84026  23302899.478
 92  6 11  5 24 30.0050000  0  6G 3G11G23G21G17G28
   2046819.275 6   1669775.56525  24609929.091
  -2422011.826 5  -1916280.23824  26665988.181
 -18670809.134 8 -14561622.50929  22101500.390
 -15992916.670 7 -12503646.08427  22818483.583
 -11553009.285 8  -9018390.07527  22820915.859
 -18011964.079 7 -14039075.96826  23292099.365
 92  6 11  5 25  0.0050000  0  6G 3G11G23G21G17G28
   2164044.385 6   1761119.66825  24632235.118
  -2520267.102 5  -1992842.77424  26647285.538
 -18641706.560 8 -14538945.19329  22107043.732
 -16038804.852 7 -12539403.06827  22809749.249
 -11492050.053 8  -8970889.37127  22832516.598
 -18068232.120 7 -14082921.18826  23281394.616
 92  6 11  5 25 30.0050000  0  6G 3G11G23G21G17G28
   2281606.487 6   1852726.38425  24654613.546
  -2618535.698 5  -2069415.73424  26628588.472
 -18612203.242 8 -14515955.59829  22112656.926
 -16084363.092 7 -12574902.96227  22801081.770
 -11430822.673 8  -8923179.71327  22844170.550
 -18124015.108 7 -14126388.42726  23270777.016
 92  6 11  5 26  0.0050000  0  6G 3G11G23G21G17G28
   2399503.140 6   1944593.83025  24677048.245
  -2716815.339 5  -2145997.20624  26609884.870
 -18582295.037 8 -14492650.48029  22118348.966
 -16129573.903 7 -12610132.13727  22792477.996
 -11369334.018 8  -8875266.46127  22855870.970
 -18179313.367 7 -14169477.95926  23260255.170
 92  6 11  5 26 30.0050000  0  6G 3G11G23G21G17G28
   2517728.467 6   2036717.36925  24699542.183
  -2815108.064 5  -2222589.02124  26591181.568
 -18551990.384 8 -14469036.46329  22124114.244
 -16174416.159 7 -12645074.15227  22783944.853
 -11307586.061 8  -8827151.17927  22867619.237
 -18234127.790 7 -14212190.48226  23249821.613
 92  6 11  5 27  0.0050000  0  6G 3G11G23G21G17G28
   2636269.143 6   2129086.63525  24722097.818
  -2913422.922 5  -2299197.99024  26572463.516
 -18521312.348 8 -14445131.48529  22129951.533
 -16218886.541 7 -12679726.38527  22775482.761
 -11245591.542 8  -8778843.73727  22879417.749
 -18288462.564 7 -14254529.23226  23239482.821
 92  6 11  5 27 30.0050000  0  6G 3G11G23G21G17G28
   2755122.026 6   2221699.11325  24744715.840
  -3011758.515 5  -2375823.03624  26553753.889
 -18490271.590 8 -14420943.88829  22135860.353
 -16262986.033 7 -12714089.59027  22767092.590
 -11183349.696 8  -8730343.56127  22891262.729
 -18342329.761 7 -14296503.65026  23229231.957
 92  6 11  5 28  0.0050000  0  6G 3G11G23G21G17G28
   2874291.197 6   2314558.16825  24767397.358
  -3110106.882 5  -2452458.15324  26535036.946
 -18458866.251 8 -14396472.18029  22141836.416
 -16306709.082 7 -12748159.49427  22758769.841
 -11120854.859 8  -8681646.26027  22903154.716
 -18395722.334 7 -14338108.23526  23219070.402
 92  6 11  5 28 30.0050000  0  6G 3G11G23G21G17G28
   2993778.072 6   2407664.73325  24790135.296
  -3208461.984 5  -2529098.38324  26516324.231
 -18427096.066 8 -14371716.17829  22147881.371
 -16350069.945 7 -12781947.13027  22750518.864
 -11058102.531 8  -8632748.34427  22915095.210
 -18448637.461 7 -14379340.78326  23209003.072
 92  6 11  5 29  0.0050000  0  6G 3G11G23G21G17G28
   3113582.604 6   2501018.77925  24812928.187
  -3306819.797 5  -2605740.67724  26497610.046
 -18394961.111 8 -14346675.94129  22153993.959
 -16393088.289 7 -12815467.87227  22742330.272
 -10995097.158 8  -8583653.25627  22927086.099
 -18501064.740 7 -14420193.20126  23199026.788
 92  6 11  5 29 30.0050000  0  6G 3G11G23G21G17G28
   3233700.876 6   2594617.36925  24835790.870
  -3405179.865 5  -2682384.74725  26478888.817
 -18362461.111 8 -14321351.27629  22160180.746
 -16435774.996 7 -12848730.19327  22734206.316
 -10931844.723 7  -8534365.59627  22939119.528
 -18553002.832 7 -14460664.41426  23189142.721
 92  6 11  5 30  0.0050000  0  6G 3G11G23G21G17G28
   3354127.022 6   2688455.83725  24858704.667
  -3503544.078 5  -2759032.19224  26460170.675
 -18329596.023 8 -14295742.10529  22166434.657
 -16478132.116 7 -12881735.67627  22726150.234
 -10868349.975 8  -8484889.17027  22951203.862
 -18604439.982 7 -14500745.28826  23179353.987
 92  6 11  5 30 30.0050000  0  6G 3G11G23G21G17G28
   3474862.561 6   2782535.30725  24881679.802
  -3601906.038 5  -2835677.77224  26441455.381
 -18296372.231 8 -14269853.45829  22172757.040
 -16520156.260 7 -12914481.71927  22718154.259
 -10804593.427 8  -8435208.73127  22963338.232
 -18655368.452 7 -14540429.79526  23169661.247
 92  6 11  5 31  0.0050000  0  6G 3G11G23G21G17G28
   3595912.840 6   2876860.21425  24904710.847
  -3700256.319 5  -2912314.30325  26422735.621
 -18262796.606 8 -14243690.61929  22179149.454
 -16561830.615 7 -12946955.17427  22710223.549
 -10740562.960 8  -8385314.87327  22975522.187
 -18705773.972 7 -14579706.81626  23160070.647
 92  6 11  5 31 30.0050000  0  6G 3G11G23G21G17G28
   3717274.762 6   2971427.76324  24927808.088
  -3798593.569 5  -2988940.56625  26404025.933
 -18228870.231 8 -14217254.47529  22185599.249
 -16603143.557 7 -12979147.03527  22702360.293
 -10676250.156 8  -8335200.99627  22987761.064
 -18755664.468 7 -14618582.51226  23150579.158
 92  6 11  5 32  0.0050000  0  6G 3G11G23G21G17G28
   3838940.360 6   3066232.07324  24950962.138
  -3896921.284 5  -3065559.46125  26385318.584
 -18194597.304 8 -14190548.31929  22192125.941
 -16644087.363 7 -13011051.28927  22694568.957
 -10611657.424 8  -8284868.98627  23000052.795
 -18805038.975 7 -14657056.13126  23141180.724
 92  6 11  5 32 30.0050000  0  6G 3G11G23G21G17G28
   3960904.661 6   3161269.13224  24974171.861
  -3995240.124 5  -3142171.48825  26366600.143
 -18159981.790 8 -14163575.19329  22198709.623
 -16684671.803 7 -13042675.49327  22686846.423
 -10546788.056 7  -8234321.41027  23012396.809
 -18853905.410 7 -14695133.85926  23131881.282
 92  6 11  5 33  0.0050000  0  6G 3G11G23G21G17G28
   4083164.035 6   3256535.98723  24997437.584
  -4093548.971 5  -3218775.74825  26347895.012
 -18125002.505 8 -14136318.58029  22205368.673
 -16724904.096 7 -13074025.29327  22679188.315
 -10481657.265 7  -8183570.14727  23024791.698
 -18902264.747 7 -14732816.45126  23122680.981
 92  6 11  5 33 30.0050000  0  6G 3G11G23G21G17G28
   4205715.690 6   3352030.73524  25020754.392
  -4191846.432 5  -3295371.09225  26329192.190
 -18089643.098 8 -14108765.77429  22212095.356
 -16764780.350 7 -13105097.68027  22671601.587
 -10416271.454 7  -8132620.15827  23037228.858
 -18950112.370 7 -14770100.29826  23113575.954
 92  6 11  5 34  0.0050000  0  6G 3G11G23G21G17G28
   4328559.774 6   3447753.33424  25044133.557
  -4290127.928 5  -3371953.94725  26310484.541
 -18053900.713 8 -14080914.55829  22218896.088
 -16804305.305 7 -13135896.31727  22664081.203
 -10350627.498 7  -8081469.02227  23049725.617
 -18997437.788 8 -14806977.21226  23104571.688
 92  6 11  5 34 30.0050000  0  6G 3G11G23G21G17G28
   4451679.780 6   3543690.89124  25067559.250
  -4388405.137 5  -3448533.49325  26291787.055
 -18017793.567 8 -14052779.10729  22225767.122
 -16843510.392 7 -13166445.69827  22656617.060
 -10284735.595 7  -8030124.68627  23062262.548
 -19044269.124 8 -14843469.14226  23095659.907
 92  6 11  5 35  0.0050000  0  6G 3G11G23G21G17G28
   4575081.265 5   3639847.82724  25091045.291
  -4486668.020 5  -3525101.95825  26273082.913
 -17981324.701 8 -14024361.80029  22232708.576
 -16882374.705 7 -13196729.56827  22649226.667
 -10218590.700 7  -7978583.20227  23074849.244
 -19090593.852 8 -14879566.30326  23086843.701
 92  6 11  5 35 30.0050000  0  6G 3G11G23G21G17G28
   4698762.121 5   3736222.43724  25114579.299
  -4584914.296 5  -3601657.44525  26254401.136
 -17944515.839 8 -13995679.55629  22239711.578
 -16920891.073 7 -13226742.29227  22641896.231
 -10152185.980 7  -7926839.27926  23087485.706
 -19136409.341 8 -14915266.66226  23078125.496
 92  6 11  5 36  0.0050000  0  6G 3G11G23G21G17G28
   4822718.579 5   3832811.79224  25138177.942
  -4683143.078 5  -3678199.21925  26235698.584
 -17907390.885 8 -13966750.98629  22246777.596
 -16959074.200 7 -13256495.34127  22634629.682
 -10085517.128 7  -7874889.57827  23100173.972
 -19181727.962 8 -14950579.84526  23069500.377
 92  6 11  5 36 30.0050000  0  6G 3G11G23G21G17G28
   4946954.362 5   3929618.84924  25161813.159
  -4781345.820 5  -3754720.80525  26217012.220
 -17869953.022 8 -13937578.62029  22253900.365
 -16996906.130 7 -13285974.72827  22627429.087
 -10018580.807 7  -7822731.38526  23112911.854
 -19226533.413 8 -14985493.15826  23060974.639
 92  6 11  5 37  0.0050000  0  6G 3G11G23G21G17G28
   5071468.912 6   4026643.00224  25185508.455
  -4879518.696 6  -3831219.13924  26198333.021
 -17832196.374 8 -13908157.84629  22261085.701
 -17034368.434 7 -13315166.08627  22620301.071
  -9951371.003 7  -7770360.13326  23125700.041
 -19270804.593 7 -15019990.13227  23052548.103
 92  6 11  5 37 30.0050000  0  6G 3G11G23G21G17G28
   5196268.193 5   4123889.17524  25209250.729
  -4977651.203 6  -3907685.93825  26179653.943
 -17794111.519 8 -13878481.31129  22268331.565
 -17071459.900 7 -13344068.51427  22613243.597
  -9883879.144 7  -7717769.08026  23138541.621
 -19314539.307 7 -15054069.08227  23044224.335
 92  6 11  5 38  0.0050000  0  6G 3G11G23G21G17G28
   5321348.090 6   4221353.97224  25233055.419
  -5075742.350 6  -3984120.52325  26160994.500
 -17755694.560 8 -13848545.99429  22275644.342
 -17108173.756 7 -13372676.66827  22606257.713
  -9816114.545 7  -7664965.48726  23151438.722
 -19357739.705 7 -15087731.67827  23036007.264
 92  6 11  5 38 30.0050000  0  6G 3G11G23G21G17G28
   5446707.276 6   4319036.33524  25256913.952
  -5173789.282 6  -4060520.68325  26142334.938
 -17716928.511 8 -13818338.65529  22283020.706
 -17144500.355 7 -13400983.06927  22599345.549
  -9748080.009 7  -7611951.53626  23164386.039
 -19400400.367 7 -15120973.72327  23027888.584
 92  6 11  5 39  0.0050000  0  6G 3G11G23G21G17G28
   5572337.056 6   4416929.63324  25280819.883
  -5271795.675 6  -4136889.25225  26123680.622
 -17677824.611 8 -13787868.07429  22290459.996
 -17180454.315 8 -13428999.11627  22592500.088
  -9679794.263 7  -7558741.83826  23177380.603
 -19442545.203 7 -15153813.79627  23019868.147
 92  6 11  5 39 30.0050000  0  6G 3G11G23G21G17G28
   5698232.741 6   4515030.15624  25304776.987
  -5369761.642 6  -4213226.27925  26105033.471
 -17638391.184 8 -13757140.70929  22297965.120
 -17216042.573 8 -13456730.19527  22585727.206
  -9611264.692 7  -7505342.19526  23190421.605
 -19484182.359 7 -15186258.29827  23011944.962
 92  6 11  5 40  0.0050000  0  6G 3G11G23G21G17G28
   5824393.739 5   4613337.29124  25328779.391
  -5467683.191 6  -4289528.74125  26086404.938
 -17598616.758 8 -13726147.63129  22305531.612
 -17251270.437 8 -13484180.47027  22579026.425
  -9542484.318 7  -7451747.10526  23203510.544
 -19525291.117 7 -15218291.04727  23004122.747
 92  6 11  5 40 30.0050000  0  6G 3G11G23G21G17G28
   5950819.456 5   4711850.82124  25352842.802
  -5565555.809 6  -4365793.06425  26067778.502
 -17558491.363 8 -13694881.07629  22313169.184
 -17286141.488 7 -13511352.70227  22572384.014
  -9473449.765 7  -7397953.96926  23216645.201
 -19565850.686 7 -15249895.87127  22996402.312
 92  6 11  5 41  0.0050000  0  6G 3G11G23G21G17G28
   6077511.188 5   4810571.60924  25376950.403
  -5663373.516 6  -4442014.62825  26049170.175
 -17518027.939 8 -13663351.12429  22320871.632
 -17320652.075 7 -13538244.07727  22565823.505
  -9404161.352 7  -7343962.99326  23229826.596
 -19605849.112 7 -15281063.41627  22988792.260
 92  6 11  5 41 30.0050000  0  6G 3G11G23G21G17G28
   6204460.304 5   4909492.87424  25401099.705
  -5761140.414 6  -4518196.53725  26030569.582
 -17477221.530 8 -13631553.84929  22328634.038
 -17354813.214 7 -13564863.13427  22559321.517
  -9334606.477 7  -7289764.37926  23243066.570
 -19645277.201 7 -15311786.56427  22981288.335
 92  6 11  5 42  0.0050000  0  6G 3G11G23G21G17G28
   6331662.126 5   5008611.16224  25425316.040
  -5858856.090 6  -4594338.54625  26011969.109
 -17436072.609 8 -13599489.72929  22336464.078
 -17388622.416 8 -13591207.94227  22552890.219
  -9264792.035 7  -7235363.52726  23256351.333
 -19684135.468 7 -15342065.67227  22973894.854
 92  6 11  5 42 30.0050000  0  6G 3G11G23G21G17G28
   6459117.052 5   5107926.64724  25449562.774
  -5956515.287 6  -4670436.59525  25993383.925
 -17394594.478 8 -13567169.09229  22344356.984
 -17422071.869 7 -13617272.42027  22546519.899
  -9194715.832 7  -7180758.74426  23269687.630
 -19722436.321 7 -15371910.46327  22966606.599
 92  6 11  5 43  0.0050000  0  6G 3G11G23G21G17G28
   6586819.553 5   5207435.04124  25473862.362
  -6054118.854 6  -4746491.25825  25974814.480
 -17352797.387 8 -13534599.91129  22352312.516
 -17455172.381 7 -13643065.03327  22540223.718
  -9124368.331 7  -7125942.47926  23283074.953
 -19760194.659 7 -15401332.49727  22959423.152
 92  6 11  5 43 30.0050000  0  6G 3G11G23G21G17G28
   6714762.883 5   5307131.00723  25498208.598
  -6151668.371 5  -4822503.77625  25956246.355
 -17310662.091 8 -13501767.20929  22360330.465
 -17487927.257 8 -13668588.29527  22533992.202
  -9053753.534 7  -7070917.97426  23296511.141
 -19797407.481 8 -15430329.48227  22952342.654
 92  6 11  5 44  0.0050000  0  6G 3G11G23G21G17G28
   6842942.874 5   5407011.49324  25522602.800
  -6249163.440 6  -4898473.89525  25937695.887
 -17268199.351 8 -13468679.33929  22368407.294
 -17520339.217 8 -13693844.37827  22527824.901
  -8982886.520 7  -7015696.93626  23309996.675
 -19834082.173 7 -15458907.12427  22945359.318
 92  6 11  5 44 30.0050000  0  6G 3G11G23G21G17G28
   6971362.711 5   5507078.89524  25547042.810
  -6346596.056 5  -4974395.38125  25919159.389
 -17225409.968 8 -13435336.95229  22376552.235
 -17552420.348 8 -13718842.65527  22521718.099
  -8911765.282 7  -6960277.80326  23323530.985
 -19870212.260 8 -15487060.42527  22938486.126
 92  6 11  5 45  0.0050000  0  6G 3G11G23G21G17G28
   7100013.888 5   5607326.48523  25571527.610
  -6443969.596 5  -5050270.83625  25900624.811
 -17182292.585 8 -13401738.97829  22384758.334
 -17584173.065 8 -13743585.02327  22515676.741
  -8840409.010 7  -6904675.52826  23337108.676
 -19905800.247 8 -15514791.29427  22931713.365
 92  6 11  5 45 30.0050000  0  6G 3G11G23G21G17G28
   7228888.378 5   5707748.06624  25596048.175
  -6541286.974 5  -5126102.45725  25882105.371
 -17138868.773 8 -13367902.24929  22393021.814
 -17615594.425 8 -13768069.19727  22509698.760
  -8768831.916 7  -6848901.18926  23350728.997
 -19940851.624 8 -15542104.04127  22925045.471
 92  6 11  5 46  0.0050000  0  6G 3G11G23G21G17G28
   7357984.762 5   5808342.58524  25620611.939
  -6638545.270 5  -5201888.15725  25863596.515
 -17095160.052 8 -13333843.48729  22401339.046
 -17646687.439 8 -13792297.54527  22503781.007
  -8697034.033 7  -6792954.76926  23364392.817
 -19975374.454 8 -15569004.93827  22918473.931
 92  6 11  5 46 30.0050000  0  6G 3G11G23G21G17G28
   7487300.400 5   5909107.82123  25645223.941
  -6735741.363 5  -5277625.30425  25845097.641
 -17051168.680 8 -13299564.48329  22409709.191
 -17677437.616 8 -13816258.73027  22497928.578
  -8625013.309 7  -6736834.71926  23378096.750
 -20009362.360 8 -15595488.97627  22912005.429
 92  6 11  5 47  0.0050000  0  6G 3G11G23G21G17G28
   7616838.650 5   6010046.72623  25669876.025
  -6832867.488 6  -5353307.93325  25826622.032
 -17006890.332 8 -13265061.86329  22418137.916
 -17707820.938 8 -13839934.00227  22492148.400
  -8552756.309 7  -6680530.59826  23391845.862
 -20042801.888 7 -15621545.75227  22905642.184
 92  6 11  5 47 30.0050000  0  6G 3G11G23G21G17G28
   7746599.145 5   6111158.76024  25694568.850
  -6929918.813 6  -5428932.23225  25808151.069
 -16962321.600 8 -13230332.99129  22426616.616
 -17737833.145 8 -13863320.10527  22486435.255
  -8480251.272 7  -6624033.16926  23405644.260
 -20075682.661 8 -15647167.11127  22899386.714
 92  6 11  5 48  0.0050000  0  6G 3G11G23G21G17G28
   7876581.318 6   6212443.42424  25719299.929
  -7026890.724 6  -5504494.73925  25789696.954
 -16917447.378 8 -13195366.06829  22435158.213
 -17767483.663 8 -13886424.39427  22480791.962
  -8407503.190 7  -6567346.35726  23419487.296
 -20107992.563 8 -15672343.65327  22893238.361
 92  6 11  5 48 30.0050000  0  6G 3G11G23G21G17G28
   8006782.245 5   6313898.64424  25744080.474
  -7123781.402 6  -5579993.90525  25771261.427
 -16872264.741 8 -13160158.82229  22443756.711
 -17796765.985 8 -13909241.75427  22475225.445
  -8334492.895 7  -6510455.21326  23433380.278
 -20139719.273 7 -15697065.74327  22887199.252
 92  6 11  5 49  0.0050000  0  6G 3G11G23G21G17G28
   8137202.612 5   6415524.85824  25768899.182
  -7220584.887 6  -5655425.11625  25752843.557
 -16826765.047 8 -13124704.51829  22452414.357
 -17825687.491 8 -13931777.95227  22469716.909
  -8261213.770 7  -6453354.61026  23447325.904
 -20170854.720 8 -15721327.14027  22881277.151
 92  6 11  5 49 30.0050000  0  6G 3G11G23G21G17G28
   8267842.080 5   6517321.64824  25793759.292
  -7317296.429 6  -5730784.67625  25734436.480
 -16780955.677 8 -13089008.91229  22461130.793
 -17854258.246 7 -13954040.83727  22464276.005
  -8187668.690 7  -6396046.79726  23461318.897
 -20201387.012 8 -15745118.52927  22875466.454
 92  6 11  5 50  0.0050000  0  6G 3G11G23G21G17G28
   8398690.808 5   6619281.68725  25818661.822
  -7413921.120 6  -5806076.57025  25716050.209
 -16734861.095 8 -13053091.04729  22469904.189
 -17882487.104 8 -13976037.29728  22458908.761
  -8113862.671 7  -6338535.58926  23475367.201
 -20231321.363 7 -15768443.98827  22869768.029
 92  6 11  5 50 30.0050000  0  6G 3G11G23G21G17G28
   8529745.842 5   6721402.38424  25843600.328
  -7510456.529 6  -5881298.92225  25697678.507
 -16688479.947 8 -13016949.88629  22478727.201
 -17910358.118 8 -13997754.92728  22453606.722
  -8039795.794 7  -6280821.10726  23489458.796
 -20260664.403 8 -15791308.69827  22864186.643
 92  6 11  5 51  0.0050000  0  6G 3G11G23G21G17G28
   8661003.981 5   6823681.30524  25868569.682
  -7606900.783 6  -5956450.18725  25679325.063
 -16641812.860 8 -12980585.91029  22487608.223
 -17937881.707 8 -14019201.83028  22448367.668
  -7965502.016 7  -6222929.88326  23503597.848
 -20289423.773 8 -15813718.60727  22858711.353
 92  6 11  5 51 30.0050000  0  6G 3G11G23G21G17G28
   8792461.428 5   6926115.66624  25893587.063
  -7703252.515 6  -6031529.38025  25660987.688
 -16594857.934 8 -12943997.66029  22496549.413
 -17965054.472 8 -14040375.37628  22443197.448
  -7890986.702 7  -6164866.04426  23517776.532
 -20317611.218 8 -15835682.83727  22853355.201
 92  6 11  5 52  0.0050000  0  6G 3G11G23G21G17G28
   8924116.541 5   7028703.93724  25918630.645
  -7799508.280 6  -6106533.80425  25642675.465
 -16547594.469 8 -12907168.96829  22505538.330
 -17991875.028 8 -14061274.46328  22438093.121
  -7816254.379 7  -6106633.08526  23531997.247
 -20345246.389 7 -15857216.72127  22848088.448
 92  6 11  5 52 30.0050000  0  6G 3G11G23G21G17G28
   9055971.463 5   7131447.91824  25943738.084
  -7895660.788 6  -6181457.78825  25624378.082
 -16500002.349 8 -12870084.19329  22514595.030
 -18018346.337 8 -14081901.40128  22433054.480
  -7741301.188 7  -6048227.96526  23546261.642
 -20372332.486 8 -15878322.77727  22842933.816
 92  6 11  5 53  0.0050000  0  6G 3G11G23G21G17G28
   9188027.193 5   7234348.43424  25968868.816
  -7991703.779 6  -6256296.41125  25606100.246
 -16452089.607 8 -12832749.59329  22523711.689
 -18044474.881 8 -14102261.26528  22428082.691
  -7666112.022 7  -5989639.02826  23560572.295
 -20398861.648 7 -15898994.83327  22837886.570
 92  6 11  5 53 30.0050000  0  6G 3G11G23G21G17G28
   9320283.945 5   7337405.47123  25994030.097
  -8087632.060 6  -6331045.62525  25587845.643
 -16403867.053 8 -12795173.57729  22532889.775
 -18070255.002 8 -14122349.63528  22423176.048
  -7590668.160 7  -5930851.59626  23574920.182
 -20424836.178 7 -15919234.71427  22832943.382
 92  6 11  5 54  0.0050000  0  6G 3G11G23G21G17G28
   9452742.906 5   7440620.27223  26019240.215
  -8183438.912 6  -6405700.27525  25569618.352
 -16355352.486 8 -12757370.01629  22542119.126
 -18095681.308 8 -14142162.31028  22418339.796
  -7514953.302 7  -5871853.02626  23589335.343
 -20450242.372 8 -15939031.72427  22828111.657
 92  6 11  5 54 30.0060000  0  6G 3G11G23G21G17G28
   9585408.914 5   7543996.31123  26044475.485
  -8279122.111 6  -6480258.58625  25551409.527
 -16306558.493 8 -12719348.72729  22551406.966
 -18120748.698 8 -14161695.30528  22413568.689
  -7438946.634 7  -5812627.03126  23603798.350
 -20475054.748 8 -15958366.02527  22823389.566
 92  6 11  5 55  0.0060000  0  6G 3G11G23G21G17G28
   9718260.814 5   7647517.09623  26069763.308
  -8374682.304 6  -6554720.96325  25533223.457
 -16257503.724 8 -12681124.23029  22560740.255
 -18145462.245 8 -14180952.58928  22408867.584
  -7362667.707 7  -5753188.91026  23618312.712
 -20499262.746 8 -15977229.37227  22818781.996
 92  6 11  5 55 30.0060000  0  6G 3G11G23G21G17G28
   9851295.297 5   7751180.29723  26095081.351
  -8470125.049 6  -6629091.88025  25515057.893
 -16208178.897 8 -12642689.31029  22570125.917
 -18169823.370 8 -14199935.26928  22404228.805
  -7286119.479 6  -5693540.95426  23632881.037
 -20522866.639 8 -15995621.99527  22814291.345
 92  6 11  5 56  0.0060000  0  6G 3G11G23G21G17G28
   9984509.641 5   7854983.62223  26120426.885
  -8565448.005 6  -6703369.46825  25496919.280
 -16158559.962 8 -12604025.21129  22579567.581
 -18193829.698 8 -14218641.49728  22399662.456
  -7209301.243 7  -5633682.59326  23647498.887
 -20545850.801 7 -16013531.72727  22809914.585
 92  6 11  5 56 30.0060000  0  6G 3G11G23G21G17G28
  10117906.094 5   7958928.77823  26145811.301
  -8660643.288 6  -6777547.58425  25478804.741
 -16108623.525 8 -12565113.70629  22589071.151
 -18217479.218 7 -14237069.69628  22395163.261
  -7132225.299 7  -5573623.38526  23662167.552
 -20568205.850 8 -16030951.22127  22805662.868
 92  6 11  5 57  0.0060000  0  6G 3G11G23G21G17G28
  10251482.825 5   8063014.49623  26171221.920
  -8755707.852 6  -6851623.80925  25460711.306
 -16058371.880 8 -12525956.57029  22598635.041
 -18240769.782 7 -14255218.20228  22390730.260
  -7054909.475 7  -5513377.27426  23676876.300
 -20589944.573 8 -16047890.46827  22801523.064
 92  6 11  5 57 30.0060000  0  6G 3G11G23G21G17G28
  10385234.462 5   8167236.53823  26196680.595
  -8850641.576 6  -6925598.04725  25442648.841
 -16007823.546 8 -12486568.26628  22608251.813
 -18263700.611 7 -14273086.42228  22386365.702
  -6977358.204 7  -5452947.73926  23691638.950
 -20611082.117 7 -16064361.26527  22797503.687
 92  6 11  5 58  0.0060000  0  6G 3G11G23G21G17G28
  10519161.177 5   8271594.83323  26222162.445
  -8945438.866 6  -6999466.06325  25424613.956
 -15956996.046 8 -12446962.41728  22617924.617
 -18286274.617 7 -14290676.54728  22382069.616
  -6899582.187 7  -5392343.08926  23706438.444
 -20631613.672 8 -16080359.86327  22793596.761
 92  6 11  5 58 30.0060000  0  6G 3G11G23G21G17G28
  10653257.268 5   8376085.23523  26247688.423
  -9040100.290 6  -7073228.15525  25406603.684
 -15905919.799 8 -12407162.73928  22627643.468
 -18308501.704 7 -14307996.33728  22377845.720
  -6821587.800 6  -5331568.17226  23721272.894
 -20651543.631 8 -16095889.66927  22789801.988
 92  6 11  5 59  0.0060000  0  6G 3G11G23G21G17G28
  10787525.291 5   8480709.48723  26273239.405
  -9134617.624 6  -7146877.97425  25388610.741
 -15854600.527 8 -12367173.69928  22637408.698
 -18330376.315 8 -14325041.45128  22373678.095
  -6743364.982 7  -5270615.32726  23736164.755
 -20670875.365 7 -16110953.33127  22786126.143
 92  6 11  5 59 30.0060000  0  6G 3G11G23G21G17G28
  10921970.367 5   8585471.79023  26298826.241
  -9228980.780 6  -7220407.72025  25370649.515
 -15803021.950 8 -12326982.60528  22647223.483
 -18351890.863 8 -14341805.98428  22369583.080
  -6664897.783 6  -5209472.01926  23751093.550
 -20689600.897 8 -16125544.64227  22782560.172
 92  6 11  6  0  0.0060000  0  6G 3G11G23G21G17G28
  11056583.453 5   8690364.97323  26324433.854
  -9323193.360 6  -7293820.09225  25352723.245
 -15751171.667 8 -12286579.79428  22657091.302
 -18373052.440 8 -14358295.51028  22365556.957
  -6586191.457 7  -5148142.44826  23766071.121
 -20707720.799 8 -16139664.03327  22779113.698
 92  6 11  6  0 30.0060000  0  6G 3G11G23G21G17G28
  11191356.655 5   8795382.91823  26350079.809
  -9417257.932 6  -7367117.06825  25334823.267
 -15699045.492 8 -12245961.98828  22667007.897
 -18393864.541 8 -14374512.71428  22361594.330
  -6507248.156 7  -5086628.19826  23781091.833
 -20725247.304 8 -16153321.01827  22775775.958
 92  6 11  6  1  0.0060000  0  6G 3G11G23G21G17G28
  11326292.319 5   8900527.48823  26375764.648
  -9511166.333 6  -7440292.44725  25316953.328
 -15646626.559 8 -12205116.07828  22676986.369
 -18414320.150 8 -14390452.14528  22357706.142
  -6428069.440 7  -5024930.46326  23796164.858
 -20742177.590 8 -16166513.44227  22772553.879
 92  6 11  6  1 30.0060000  0  6G 3G11G23G21G17G28
  11461401.336 5   9005807.06223  26401477.577
  -9604902.666 6  -7513333.71225  25299120.473
 -15593892.877 8 -12164024.89128  22687019.523
 -18434408.484 8 -14406105.37028  22353881.090
  -6348638.359 7  -4963036.08826  23811279.854
 -20758486.184 8 -16179221.41527  22769451.717
 92  6 11  6  2  0.0060000  0  5G11G23G21G17G28
  -9698462.757 6  -7586237.60425  25281319.307
 -15540857.398 8 -12122698.53728  22697112.336
 -18454133.663 8 -14421475.63928  22350129.397
  -6268955.536 7  -4900945.62526  23826441.288
 -20774163.418 8 -16191437.42427  22766468.422
 92  6 11  6  2 30.0060000  0  5G11G23G21G17G28
  -9791843.204 6  -7659001.54925  25263543.982
 -15487525.746 8 -12081141.41028  22707261.990
 -18473492.168 8 -14436560.19428  22346443.539
  -6189018.730 7  -4838657.16826  23841650.329
 -20789207.652 8 -16203160.20527  22763607.532
 92  6 11  6  3  0.0060000  0  5G11G23G21G17G28
  -9885045.537 6  -7731626.71425  25245805.113
 -15433900.703 8 -12039355.65028  22717465.276
 -18492483.426 8 -14451358.57628  22342831.370
  -6108822.285 7  -4776166.41026  23856913.542
 -20803612.734 8 -16214384.90727  22760865.930
 92  6 11  6  3 30.0060000  0  5G11G23G21G17G28
  -9978068.451 6  -7804112.03525  25228108.124
 -15379983.804 8 -11997342.47228  22727725.973
 -18511098.375 7 -14465863.74928  22339288.153
  -6028346.436 7  -4713457.96126  23872228.350
 -20817378.005 7 -16225111.07227  22758245.864
 92  6 11  6  4  0.0060000  0  5G11G23G21G17G28
 -10070902.203 6  -7876449.97625  25210444.592
 -15325776.321 8 -11955102.87528  22738042.491
 -18529330.516 8 -14480070.61928  22335816.916
  -5947590.656 6  -4650531.39026  23887593.523
 -20830502.841 8 -16235338.18527  22755748.233
 92  6 11  6  4 30.0060000  0  5G11G23G21G17G28
 -10163544.627 6  -7948638.86025  25192806.993
 -15271271.704 8 -11912631.73328  22748414.920
 -18547179.863 8 -14493979.18728  22332423.775
  -5866556.132 7  -4587387.63526  23903018.175
 -20842987.778 7 -16245066.69627  22753371.808
 92  6 11  6  5  0.0060000  0  5G11G23G21G17G28
 -10255998.235 6  -8020680.61525  25175219.698
 -15216481.224 8 -11869937.84528  22758840.802
 -18564656.335 8 -14507597.18228  22329095.479
  -5785246.793 7  -4524029.70326  23918488.905
 -20854845.150 7 -16254306.17627  22751114.941
 92  6 11  6  5 30.0060000  0  5G11G23G21G17G28
 -10348264.362 6  -8092576.25325  25157657.646
 -15161424.501 8 -11827036.48528  22769313.872
 -18581770.398 8 -14520932.79928  22325836.975
  -5703680.111 7  -4460471.20726  23934011.019
 -20866085.556 7 -16263064.90827  22748975.592
 92  6 11  6  6  0.0060000  0  5G11G23G21G17G28
 -10440350.078 6  -8164331.30925  25140136.726
 -15106118.228 8 -11783940.68228  22779844.592
 -18598541.940 8 -14534001.53728  22322648.502
  -5621889.737 6  -4396738.44626  23949569.918
 -20876709.801 7 -16271343.51927  22746953.312
 92  6 11  6  6 30.0060000  0  5G11G23G21G17G28
 -10532256.112 6  -8235946.39125  25122648.662
 -15050578.246 8 -11740662.75628  22790409.728
 -18614965.514 8 -14546799.10828  22319524.335
  -5539872.722 6  -4332829.10826  23965179.541
 -20886711.050 8 -16279136.68127  22745050.859
 92  6 11  6  7  0.0060000  0  5G11G23G21G17G28
 -10623987.568 6  -8307425.41125  25105190.788
 -14994818.609 8 -11697213.67828  22801022.860
 -18631046.495 8 -14559329.71228  22316462.524
  -5457636.946 7  -4268749.31025  23980832.725
 -20896092.317 7 -16286446.75727  22743265.505
 92  6 11  6  7 30.0060000  0  5G11G23G21G17G28
 -10715533.272 6  -8378759.70225  25087772.187
 -14938832.377 8 -11653588.01628  22811676.615
 -18646781.687 8 -14571590.89728  22313468.137
  -5375183.650 7  -4204499.97926  23996521.404
 -20904828.832 8 -16293254.39627  22741603.246
 92  6 11  6  8  0.0060000  0  5G11G23G21G17G28
 -10806879.684 6  -8449938.69825  25070388.601
 -14882602.170 8 -11609772.26128  22822375.578
 -18662162.481 8 -14583575.90128  22310542.373
  -5292504.802 7  -4140074.88726  24012253.133
 -20912913.253 8 -16299553.93627  22740064.111
 92  6 11  6  8 30.0060000  0  5G11G23G21G17G28
 -10898030.382 6  -8520965.18025  25053044.768
 -14826132.737 8 -11565770.07828  22833122.568
 -18677194.711 8 -14595289.26228  22307682.563
  -5209588.981 6  -4075465.15926  24028026.983
 -20920370.288 8 -16305364.59127  22738646.423
 92  6 11  6  9  0.0060000  0  5G11G23G21G17G28
 -10988983.373 6  -8591837.62225  25035738.889
 -14769415.972 8 -11521575.18028  22843914.497
 -18691893.139 8 -14606742.53628  22304882.411
  -5126433.093 6  -4010668.41225  24043854.826
 -20927213.780 8 -16310697.16727  22737344.124
 92  6 11  6  9 30.0060000  0  5G11G23G21G17G28
 -11079726.152 6  -8662546.27725  25018466.946
 -14712441.630 8 -11477179.57028  22854755.682
 -18706248.353 8 -14617928.37628  22302151.272
  -5043029.832 6  -3945678.86025  24059725.958
 -20933448.946 8 -16315555.72727  22736158.505
 92  6 11  6 10  0.0060000  0  5G11G23G21G17G28
 -11170248.456 6  -8733083.06125  25001242.130
 -14655209.069 8 -11432582.74328  22865647.562
 -18720236.707 8 -14628828.33028  22299489.894
  -4959353.144 6  -3880476.22625  24075648.026
 -20939076.116 8 -16319940.53927  22735089.415
 92  6 11  6 10 30.0060000  0  5G11G23G21G17G28
 -11260547.223 6  -8803445.71225  24984057.337
 -14597715.488 8 -11387782.53728  22876587.918
 -18733848.438 8 -14639434.83928  22296898.578
  -4875392.947 6  -3815052.69125  24091629.152
 -20944072.992 8 -16323834.20027  22734136.944
 92  6 11  6 11  0.0060000  0  5G11G23G21G17G28
 -11350619.569 6  -8873631.93825  24966920.451
 -14539954.817 8 -11342774.20528  22887579.388
 -18747086.198 8 -14649749.92028  22294383.589
  -4791172.515 6  -3749426.41725  24107655.248
 -20948418.484 8 -16327220.28027  22733309.817
 92  6 11  6 11 30.0060000  0  5G11G23G21G17G28
 -11440464.027 6  -8943640.55325  24949819.389
 -14481927.975 8 -11297558.46828  22898621.884
 -18759946.339 8 -14659770.76428  22291934.105
  -4706705.911 6  -3683608.28025  24123724.873
 -20952107.678 8 -16330094.97027  22732608.213
 92  6 11  6 12  0.0060000  0  5G11G23G21G17G28
 -11530078.997 6  -9013470.35325  24932770.042
 -14423625.004 8 -11252127.55828  22909717.023
 -18772437.823 8 -14669504.37328  22289556.901
  -4621995.689 6  -3617600.29625  24139844.174
 -20955127.957 8 -16332448.41827  22732032.641
 92  6 11  6 12 30.0060000  0  5G11G23G21G17G28
 -11619463.356 6  -9083120.48125  24915762.996
 -14365032.040 8 -11206470.70428  22920865.615
 -18784580.409 8 -14678966.13028  22287244.182
  -4537060.793 6  -3551417.27125  24156007.214
 -20957489.747 8 -16334288.77027  22731584.991
 92  6 11  6 13  0.0060000  0  5G11G23G21G17G28
 -11708611.943 6  -9152586.86925  24898794.593
 -14306150.386 8 -11160588.87928  22932070.418
 -18796386.416 8 -14688165.60928  22285000.175
  -4451901.251 6  -3485059.26525  24172212.795
 -20959220.207 7 -16335637.15827  22731254.080
 92  6 11  6 13 30.0060000  0  5G11G23G21G17G28
 -11797515.128 6  -9221862.03625  24881874.427
 -14246982.873 8 -11114484.31328  22943328.914
 -18807844.850 8 -14697094.29228  22282818.496
  -4366494.747 6  -3418508.74925  24188465.864
 -20960329.164 8 -16336501.26827  22731039.849
 92  6 11  6 14  0.0060000  0  5G11G23G21G17G28
 -11886173.259 6  -9290946.27525  24865005.525
 -14187537.429 8 -11068163.17428  22954640.413
 -18818958.446 8 -14705754.25828  22280704.929
  -4280843.008 6  -3351767.10325  24204768.697
 -20960808.849 8 -16336875.06427  22730951.470
 92  6 11  6 14 30.0060000  0  5G11G23G21G17G28
 -11974580.051 6  -9359834.66025  24848181.112
 -14127840.056 8 -11021645.71328  22966002.038
 -18829713.416 8 -14714134.77028  22278657.976
  -4194942.050 6  -3284831.30625  24221110.804
 -20960653.041 8 -16336753.64527  22730982.139
 92  6 11  6 15  0.0060000  0  5G11G23G21G17G28
 -12062728.086 6  -9428521.38225  24831409.043
 -14067904.376 8 -10974942.58828  22977406.922
 -18840097.733 8 -14722226.45528  22276680.485
  -4108789.081 6  -3217699.14025  24237508.492
 -20959840.885 8 -16336120.79527  22731134.463
 92  6 11  6 15 30.0060000  0  5G11G23G21G17G28
 -12150618.079 6  -9497007.04225  24814688.419
 -14007743.155 8 -10928063.68928  22988855.307
 -18850095.896 8 -14730017.22628  22274775.214
  -4022398.324 6  -3150381.69425  24253945.033
 -20958345.524 8 -16334955.57627  22731421.544
 92  6 11  6 16  0.0060000  0  5G11G23G21G17G28
 -12238252.225 6  -9565293.36225  24798006.287
 -13947376.275 8 -10881024.54928  23000342.274
 -18859711.806 8 -14737510.12728  22272949.028
  -3935783.259 7  -3082889.42125  24270430.501
 -20956159.892 8 -16333252.49227  22731836.247
 92  6 11  6 16 30.0060000  0  5G11G23G21G17G28
 -12325630.992 6  -9633380.65925  24781379.738
 -13886810.698 8 -10833830.57128  23011869.144
 -18868956.756 8 -14744713.97828  22271192.814
  -3848943.792 7  -3015222.31825  24286955.840
 -20953296.727 8 -16331021.43627  22732381.390
 92  6 11  6 17  0.0060000  0  5G11G23G21G17G28
 -12412762.340 6  -9701275.17925  24764801.185
 -13826035.515 8 -10786473.30228  23023430.701
 -18877850.639 8 -14751644.26428  22269495.899
  -3761892.395 6  -2947390.11325  24303519.014
 -20949772.149 8 -16328275.00927  22733052.355
 92  6 11  6 17 30.0060000  0  5G11G23G21G17G28
 -12499658.024 7  -9768986.11325  24748262.984
 -13765062.396 8 -10738961.75528  23035032.459
 -18886413.854 8 -14758316.88128  22267866.587
  -3674633.654 6  -2879396.30225  24320124.998
 -20945605.625 8 -16325028.37527  22733844.617
 92  6 11  6 18  0.0060000  0  5G11G23G21G17G28
 -12586306.952 6  -9836504.72825  24731773.679
 -13703870.254 8 -10691279.55328  23046680.715
 -18894659.304 8 -14764741.87028  22266296.664
  -3587136.937 6  -2811217.01925  24336774.691
 -20940808.731 8 -16321290.52527  22734758.084
 92  6 11  6 18 30.0060000  0  5G11G23G21G17G28
 -12672698.974 6  -9903823.15825  24715334.890
 -13642424.156 8 -10643399.46828  23058374.030
 -18902582.001 8 -14770915.39228  22264787.508
  -3499389.440 6  -2742842.35225  24353472.202
 -20935378.531 8 -16317059.19027  22735792.338
 92  6 11  6 19  0.0060000  0  5G11G23G21G17G28
 -12758828.002 7  -9970936.67925  24698948.114
 -13580714.475 7 -10595313.99028  23070114.532
 -18910165.661 8 -14776824.70128  22263346.766
  -3411394.799 6  -2674275.14925  24370215.431
 -20929314.769 8 -16312334.18027  22736946.599
 92  6 11  6 19 30.0060000  0  5G11G23G21G17G28
 -12844698.197 6 -10037848.47125  24682602.110
 -13518759.818 8 -10547037.63228  23081905.309
 -18917410.973 8 -14782470.37428  22261969.309
  -3323161.220 6  -2605521.76125  24387004.018
 -20922631.030 8 -16307126.08027  22738216.280
 92  6 11  6 20  0.0060000  0  5G11G23G21G17G28
 -12930298.819 7 -10104550.18725  24666314.356
 -13456560.342 8 -10498570.50928  23093742.105
 -18924302.834 8 -14787840.63428  22260656.668
  -3234693.719 6  -2536586.02025  24403838.924
 -20915325.712 8 -16301433.61028  22739608.247
 92  6 11  6 20 30.0060000  0  5G11G23G21G17G28
 -13015617.481 7 -10171032.22425  24650082.393
 -13394126.355 8 -10449920.65328  23105622.670
 -18930822.975 8 -14792921.25228  22259417.776
  -3145998.003 6  -2467472.44825  24420716.790
 -20907383.604 7 -16295244.95628  22741117.702
 92  6 11  6 21  0.0060000  0  5G11G23G21G17G28
 -13100645.550 7 -10237287.84025  24633899.416
 -13331474.724 7 -10401101.16128  23117543.468
 -18936962.500 8 -14797705.26429  22258246.457
  -3057064.765 6  -2398173.86225  24437644.061
 -20898804.740 8 -16288560.12227  22742751.601
 92  6 11  6 21 30.0060000  0  5G11G23G21G17G28
 -13185386.944 6 -10303320.04025  24617774.150
 -13268633.958 8 -10352134.36928  23129504.737
 -18942732.975 8 -14802201.71529  22257151.764
  -2967891.939 6  -2328688.58925  24454608.537
 -20889588.473 7 -16281378.62327  22744504.367
 92  6 11  6 22  0.0060000  0  5G11G23G21G17G28
 -13269835.540 7 -10369124.12825  24601702.066
 -13205598.380 8 -10303015.69928  23141496.705
 -18948139.841 8 -14806414.84829  22256121.228
  -2878472.592 6  -2259011.21225  24471627.365
 -20879726.345 7 -16273693.81727  22746380.079
 92  6 11  6 22 30.0060000  0  5G11G23G21G17G28
 -13353987.666 7 -10434697.18325  24585691.710
 -13142352.648 8 -10253733.32928  23153534.452
 -18953189.067 8 -14810349.28529  22255159.434
  -2788809.823 6  -2189144.10325  24488694.160
 -20869213.492 8 -16265501.98627  22748384.791
 92  6 11  6 23  0.0060000  0  5G11G23G21G17G28
 -13437842.894 7 -10500038.87125  24569730.909
 -13078885.021 8 -10204278.01228  23165607.993
 -18957877.861 8 -14814002.85929  22254265.902
  -2698915.985 6  -2119096.99725  24505797.709
 -20858048.007 8 -16256801.60027  22750506.242
 92  6 11  6 23 30.0060000  0  5G11G23G21G17G28
 -13521403.345 7 -10565150.88725  24553832.436
 -13015193.788 8 -10154648.48928  23177731.630
 -18962220.572 8 -14817386.78229  22253442.912
  -2608809.507 6  -2048884.17025  24522936.454
 -20846229.880 8 -16247592.66627  22752753.007
 92  6 11  6 24  0.0060000  0  5G11G23G21G17G28
 -13604661.911 7 -10630027.68225  24537987.025
 -12951246.702 8 -10104819.60128  23189899.247
 -18966229.247 8 -14820510.40929  22252678.831
  -2518494.908 6  -1978509.10325  24540131.890
 -20833755.084 8 -16237872.04327  22755129.612
 92  6 11  6 24 30.0060000  0  5G11G23G21G17G28
 -13687614.269 7 -10694665.87125  24522204.271
 -12887048.386 8 -10054794.94328  23202116.029
 -18969893.413 8 -14823365.59529  22251980.644
  -2427971.780 6  -1907971.60025  24557354.847
 -20820617.979 8 -16227635.32227  22757629.221
 92  6 11  6 25  0.0060000  0  5G11G23G21G17G28
 -13770264.623 7 -10759068.67825  24506473.501
 -12822617.878 8 -10004589.33428  23214378.170
 -18973220.679 8 -14825958.24829  22251348.892
  -2337226.646 6  -1837261.14225  24574620.134
 -20806828.438 8 -16216890.22227  22760252.045
 92  6 11  6 25 30.0060000  0  5G11G23G21G17G28
 -13852610.885 7 -10823234.58525  24490805.568
 -12757966.625 8  -9954211.72728  23226678.625
 -18976226.192 8 -14828300.18429  22250773.560
  -2246248.262 6  -1766368.97825  24591932.609
 -20792389.742 8 -16205639.27727  22762997.874
 92  6 11  6 26  0.0060000  0  5G11G23G21G17G28
 -13934644.618 7 -10887156.96025  24475195.135
 -12693103.577 8  -9903669.12328  23239020.781
 -18978903.317 8 -14830386.25029  22250266.941
  -2155018.917 6  -1695281.16825  24609297.128
 -20777293.459 7 -16193875.92927  22765874.743
 92  6 11  6 26 30.0060000  0  5G11G23G21G17G28
 -14016355.765 7 -10950827.93125  24459646.279
 -12628041.021 8  -9852971.00928  23251401.460
 -18981228.203 8 -14832197.82529  22249823.188
  -2063529.262 6  -1623990.50825  24626707.425
 -20761539.740 7 -16181600.28427  22768872.008
 92  6 11  6 27  0.0060000  0  5G11G23G21G17G28
 -14097742.079 7 -11014245.83225  24444154.564
 -12562775.520 8  -9802114.77328  23263823.870
 -18983203.810 8 -14833737.24529  22249446.619
  -1971782.276 6  -1552499.35725  24644167.338
 -20745132.417 7 -16168815.34927  22771995.276
 92  6 11  6 27 30.0060000  0  5G11G23G21G17G28
 -14178802.462 7 -11077409.73525  24428735.578
 -12497306.932 8  -9751100.29828  23276280.906
 -18984833.229 8 -14835006.91429  22249139.571
  -1879796.523 6  -1480822.25325  24661664.005
 -20728068.424 8 -16155518.70627  22775245.296
 92  6 11  6 28  0.0060000  0  5G11G23G21G17G28
 -14259535.616 7 -11140318.64125  24413369.026
 -12431633.196 7  -9699925.94028  23288779.553
 -18986104.537 8 -14835997.53329  22248897.429
  -1787578.954 6  -1408964.40825  24679216.914
 -20710352.973 8 -16141714.43527  22778612.775
 92  6 11  6 28 30.0060000  0  5G11G23G21G17G28
 -14339946.941 7 -11202976.79625  24398067.469
 -12365752.559 8  -9648590.38828  23301313.336
 -18987019.481 8 -14836710.46129  22248722.260
  -1695152.549 6  -1336943.86225  24696805.707
 -20692001.804 8 -16127414.81527  22782106.616
 92  6 11  6 29  0.0060000  0  5G11G23G21G17G28
 -14420045.907 7 -11265391.54425  24382827.909
 -12299685.924 8  -9597109.88828  23313889.300
 -18987598.836 8 -14837161.89029  22248617.842
  -1602535.167 6  -1264774.55325  24714427.208
 -20673028.225 8 -16112630.17527  22785712.100
 92  6 11  6 29 30.0060000  0  5G11G23G21G17G28
 -14499831.908 7 -11327562.39825  24367643.272
 -12233447.430 7  -9545495.47428  23326492.395
 -18987849.461 8 -14837357.17029  22248563.940
  -1509731.552 6  -1192460.08125  24732090.200
 -20653437.333 8 -16097364.54727  22789441.998
 92  6 11  6 30  0.0060000  0  5G11G23G21G17G28
 -14579305.326 7 -11389489.71525  24352515.654
 -12167049.234 8  -9493756.62227  23339129.037
 -18987771.260 8 -14837296.23429  22248580.638
  -1416745.490 6  -1120003.41525  24749785.390
 -20633235.356 8 -16081622.73427  22793286.416
 92  6 11  6 30 30.0060000  0  5G11G23G21G17G28
 -14658469.023 7 -11451175.67825  24337459.687
 -12100503.013 8  -9441902.44328  23351792.930
 -18987379.951 8 -14836991.28729  22248656.695
  -1323581.325 6  -1047408.00425  24767519.613
 -20612419.060 7 -16065402.20727  22797247.784
 92  6 11  6 31  0.0060000  0  5G11G23G21G17G28
 -14737320.302 7 -11512618.19025  24322450.428
 -12033801.363 8  -9389927.09927  23364478.978
 -18986687.499 8 -14836451.70229  22248784.977
  -1230231.887 6   -974668.24025  24785276.140
 -20590984.657 7 -16048700.07527  22801327.300
 92  6 11  6 31 30.0060000  0  5G11G23G21G17G28
 -14815852.194 7 -11573811.85825  24307508.202
 -11966924.715 8  -9337815.43227  23377206.757
 -18985690.822 8 -14835675.06729  22248975.345
  -1136693.546 6   -901781.20125  24803075.508
 -20568917.959 7 -16031505.22427  22805529.011
 92  6 11  6 32  0.0060000  0  5G11G23G21G17G28
 -14894045.795 7 -11634741.90525  24292623.956
 -11899840.272 8  -9285541.87327  23389977.166
 -18984379.756 8 -14834653.44529  22249227.800
  -1042947.245 6   -828732.14125  24820915.648
 -20546199.226 7 -16013802.31127  22809849.979
 92  6 11  6 32 30.0060000  0  5G11G23G21G17G28
 -14971874.977 7 -11695387.99625  24277817.447
 -11832513.127 8  -9233079.14627  23402788.617
 -18982732.170 8 -14833369.59529  22249538.505
   -948969.473 6   -755502.80225  24838805.133
 -20522811.454 7 -15995578.07827  22814299.049
 92  6 11  6 33  0.0060000  0  5G11G23G21G17G28
 -15049337.371 7 -11755748.26625  24263073.804
 -11764937.368 7  -9180422.67727  23415644.736
 -18980741.198 8 -14831818.16629  22249917.353
   -854754.619 6   -682088.66625  24856729.424
 -20498768.609 8 -15976843.37227  22818876.820
 92  6 11  6 33 30.0060000  0  5G11G23G21G17G28
 -15126428.012 7 -11815818.87525  24248404.959
 -11697129.958 8  -9127585.76527  23428552.001
 -18978396.830 8 -14829991.37929  22250362.395
   -760295.617 6   -608484.27125  24874703.121
 -20474076.418 7 -15957602.70627  22823573.369
 92  6 11  6 34  0.0060000  0  5G11G23G21G17G28
 -15203151.105 7 -11875603.07925  24233807.914
 -11629107.031 8  -9074580.87327  23441493.592
 -18975695.071 8 -14827886.09329  22250877.858
   -665599.990 6   -534695.52725  24892725.205
 -20448748.878 7 -15937866.93727  22828391.723
 92  6 11  6 34 30.0060000  0  5G11G23G21G17G28
 -15279505.879 7 -11935100.26125  24219272.327
 -11560881.099 7  -9021417.81427  23454477.933
 -18972631.352 8 -14825498.77129  22251459.665
   -570674.924 6   -460727.97525  24910787.191
 -20422793.464 7 -15917641.94027  22833330.264
 92  6 11  6 35  0.0060000  0  5G11G23G21G17G28
 -15355491.430 7 -11994309.75525  24204817.534
 -11492461.177 8  -8968103.58627  23467497.769
 -18969207.734 8 -14822830.99229  22252111.834
   -475524.894 6   -386585.12925  24928894.895
 -20396210.484 7 -15896927.93927  22838391.750
 92  6 11  6 35 30.0060000  0  5G11G23G21G17G28
 -15431108.799 7 -12053232.36325  24190425.757
 -11423861.726 7  -8914649.48727  23480552.742
 -18965427.612 8 -14819885.44029  22252834.423
   -380175.930 6   -312287.25125  24947036.896
 -20368991.449 7 -15875718.32727  22843568.956
 92  6 11  6 36  0.0060000  0  5G11G23G21G17G28
 -15506360.993 7 -12111870.39325  24176104.581
 -11355085.992 8  -8861057.98427  23493640.421
 -18961297.902 8 -14816667.45929  22253615.323
   -284646.374 6   -237848.74025  24965219.368
 -20341130.815 8 -15854008.73527  22848872.555
 92  6 11  6 36 30.0060000  0  5G11G23G21G17G28
 -15581238.815 7 -12170216.71526  24161858.623
 -11286141.039 8  -8807334.66927  23506760.598
 -18956830.108 8 -14813186.05929  22254467.333
   -188921.269 6   -163257.73925  24983432.360
 -20312624.729 7 -15831796.21927  22854295.381
 92  6 11  6 37  0.0060000  0  5G11G23G21G17G28
 -15655732.978 7 -12228264.12425  24147682.008
 -11217030.552 7  -8753482.34827  23519912.284
 -18952025.172 8 -14809441.94629  22255381.100
    -92992.448 6    -88508.02025  25001693.018
 -20283463.923 7 -15809073.50727  22859844.059
 92  6 11  6 37 30.0060000  0  5G11G23G21G17G28
 -15729839.900 7 -12286009.71926  24133579.770
 -11147756.912 8  -8699502.87227  23533092.209
 -18946894.854 8 -14805444.27329  22256355.306
      3147.420 6    -13593.96625  25019980.208
 -20253648.622 7 -15785840.80927  22865520.060
 92  6 11  6 38  0.0060000  0  5G11G23G21G17G28
 -15803564.042 7 -12343457.08426  24119547.685
 -11078318.565 7  -8645395.05627  23546306.281
 -18941461.407 8 -14801210.41229  22257392.648
     99505.153 6     61489.96625  25038317.883
 -20223200.372 7 -15762114.92127  22871312.920
 92  6 11  6 38 30.0060000  0  5G11G23G21G17G28
 -15876903.684 7 -12400604.83026  24105593.635
 -11008706.151 8  -8591151.67827  23559553.361
 -18935730.108 8 -14796744.45829  22258481.134
    196074.276 6    136738.62525  25056693.962
 -20192140.714 7 -15737912.62227  22877224.857
 92  6 11  6 39  0.0060000  0  5G11G23G21G17G28
 -15949859.653 7 -12457453.62026  24091711.805
 -10938900.864 8  -8536757.91227  23572838.573
 -18929691.580 8 -14792039.10629  22259632.337
    292830.191 6    212132.81225  25075108.144
 -20160470.293 7 -15713234.37627  22883247.417
 92  6 11  6 39 30.0060000  0  5G11G23G21G17G28
 -16022434.836 7 -12514005.66826  24077902.795
 -10868901.568 8  -8482212.99727  23586156.703
 -18923338.448 8 -14787088.60229  22260841.580
    389762.575 6    287664.41625  25093555.573
 -20128189.907 8 -15688080.85227  22889392.833
 92  6 11  6 40  0.0060000  0  5G11G23G21G17G28
 -16094631.458 7 -12570262.76126  24064163.756
 -10798722.558 7  -8427528.03327  23599510.779
 -18916657.422 8 -14781882.59629  22262110.961
    486858.469 6    363323.54825  25112034.510
 -20095298.319 8 -15662451.06927  22895653.039
 92  6 11  6 40 30.0060000  0  5G11G23G21G17G28
 -16166452.582 7 -12626227.26026  24050495.049
 -10728381.232 8  -8372716.66927  23612896.062
 -18909649.804 8 -14776422.11929  22263446.087
    584112.072 6    439105.58325  25130534.553
 -20061792.210 7 -15636342.43527  22902030.914
 92  6 11  6 41  0.0060000  0  5G11G23G21G17G28
 -16237882.259 7 -12681886.70126  24036902.669
 -10657876.103 8  -8317777.57827  23626313.963
 -18902306.979 8 -14770700.43229  22264843.749
    681550.642 6    515031.60125  25149077.736
 -20027635.440 7 -15609726.77927  22908527.956
 92  6 11  6 41 30.0060000  0  5G11G23G21G17G28
 -16308917.074 7 -12737238.49226  24023389.134
 -10587228.684 8  -8262727.62227  23639758.096
 -18894640.071 8 -14764726.21329  22266300.231
    779195.932 6    591118.77425  25167662.710
 -19992839.339 7 -15582612.94727  22915150.312
 92  6 11  6 42  0.0060000  0  5G11G23G21G17G28
 -16379564.987 7 -12792288.80526  24009938.256
 -10516451.431 8  -8207576.53627  23653226.272
 -18886683.602 8 -14758526.36229  22267815.982
    877042.775 6    667363.01725  25186280.871
 -19957428.065 7 -15555019.77227  22921889.136
 92  6 11  6 42 30.0060000  0  5G11G23G21G17G28
 -16449812.258 7 -12847026.89426  23996573.358
 -10445523.576 8  -8152308.09827  23666724.188
 -18878441.059 8 -14752103.59129  22269385.725
    975105.715 6    743775.57825  25204942.471
 -19921405.010 7 -15526949.86927  22928742.542
 92  6 11  6 43  0.0060000  0  5G11G23G21G17G28
 -16519652.056 7 -12901447.51226  23983283.438
 -10374441.424 7  -8096919.43227  23680248.275
 -18869900.657 8 -14745448.72629  22271011.140
   1073382.877 6    820355.16625  25223636.120
 -19884775.609 8 -15498407.48127  22935715.624
 92  6 11  6 43 30.0060000  0  5G11G23G21G17G28
 -16589085.851 7 -12955551.75326  23970068.257
 -10303214.374 7  -8041417.77227  23693804.441
 -18861069.617 8 -14738567.38129  22272691.387
   1171868.114 6    897096.85325  25242383.222
 -19847560.358 8 -15469408.58427  22942795.643
 92  6 11  6 44  0.0060000  0  5G11G23G21G17G28
 -16658106.203 7 -13009333.83426  23956938.217
 -10231832.358 7  -7985795.46527  23707386.268
 -18851929.901 8 -14731445.51229  22274427.335
   1270552.235 6    973993.48825  25261159.103
 -19809738.619 7 -15439937.11627  22949994.439
 92  6 11  6 44 30.0060000  0  5G11G23G21G17G28
 -16726707.218 7 -13062789.15126  23943879.977
 -10160300.688 8  -7930056.54027  23720998.524
 -18842457.837 8 -14724064.68129  22276229.867
   1369432.740 5   1051043.18525  25279980.853
 -19771300.280 7 -15409985.19027  22957305.718
 92  6 11  6 45  0.0060000  0  5G11G23G21G17G28
 -16794888.633 7 -13115917.51626  23930905.889
 -10088625.538 7  -7874205.77927  23734638.961
 -18832656.615 8 -14716427.35129  22278098.923
   1468503.424 5   1128241.00825  25298827.306
 -19732233.830 7 -15379543.80627  22964741.111
 92  6 11  6 45 30.0060000  0  5G11G23G21G17G28
 -16862656.887 7 -13168723.92626  23918011.695
 -10016815.779 7  -7818250.11327  23748303.352
 -18822540.972 8 -14708545.04029  22280022.721
   1567749.803 6   1205575.76725  25317721.396
 -19692546.819 7 -15348618.88627  22972292.223
 92  6 11  6 46  0.0060000  0  5G11G23G21G17G28
 -16930010.043 7 -13221206.89226  23905190.921
  -9944869.470 7  -7762188.06527  23761992.295
 -18812097.480 8 -14700407.22629  22282011.365
   1667153.204 6   1283032.91325  25336638.780
 -19652250.810 7 -15317219.40027  22979959.595
 92  6 11  6 46 30.0060000  0  5G11G23G21G17G28
 -16996942.771 7 -13273362.25426  23892459.275
  -9872775.982 7  -7706011.36026  23775713.946
 -18801342.179 8 -14692026.47229  22284055.589
   1766713.234 6   1360612.01325  25355576.490
 -19611364.336 7 -15285359.80727  22987743.886
 92  6 11  6 47  0.0060000  0  5G11G23G21G17G28
 -17063450.977 7 -13325186.80626  23879801.677
  -9800527.027 7  -7649713.47426  23789459.790
 -18790280.203 8 -14683406.74429  22286161.511
   1866429.548 6   1438313.01725  25374557.459
 -19569896.675 7 -15253047.35027  22995634.513
 92  6 11  6 47 30.0060000  0  5G11G23G21G17G28
 -17129535.496 7 -13376681.20926  23867227.152
  -9728132.989 7  -7593302.53526  23803237.292
 -18778910.391 8 -14674547.15229  22288326.792
   1966298.285 6   1516132.77325  25393559.475
 -19527870.170 7 -15220299.42427  23003629.559
 92  6 11  6 48  0.0060000  0  5G11G23G21G17G28
 -17195192.408 7 -13427842.43926  23854732.942
  -9655586.412 8  -7536772.76427  23817043.214
 -18767240.243 8 -14665453.52329  22290546.995
   2066327.236 6   1594077.20725  25412592.099
 -19485277.953 7 -15187110.69027  23011737.176
 92  6 11  6 48 30.0060000  0  5G11G23G21G17G28
 -17260413.754 7 -13478664.22826  23842324.562
  -9582885.532 7  -7480122.72426  23830875.128
 -18755278.275 8 -14656132.50029  22292821.521
   2166537.529 6   1672163.18125  25431656.710
 -19442098.323 7 -15153464.22327  23019953.528
 92  6 11  6 49  0.0060000  0  5G11G23G21G17G28
 -17325195.868 7 -13529143.78526  23829994.998
  -9510035.480 7  -7423356.48226  23844739.300
 -18743008.407 8 -14646571.55929  22295157.624
   2266935.065 6   1750394.97525  25450771.567
 -19398310.710 7 -15119344.01927  23028284.640
 92  6 11  6 49 30.0060000  0  5G11G23G21G17G28
 -17389536.815 7 -13579279.55726  23817749.045
  -9437035.180 8  -7366473.12726  23858632.283
 -18730440.530 8 -14636778.39929  22297549.278
   2367516.237 6   1828769.73825  25469912.746
 -19353899.999 7 -15084738.27927  23036736.779
 92  6 11  6 50  0.0060000  0  5G11G23G21G17G28
 -17453424.151 7 -13629061.88226  23805592.791
  -9363877.329 7  -7309467.02826  23872552.246
 -18717561.122 8 -14626742.51029  22299999.602
   2468293.434 5   1907297.47225  25489087.982
 -19308849.639 7 -15049634.11327  23045311.113
 92  6 11  6 50 30.0060000  0  5G11G23G21G17G28
 -17516852.237 7 -13678486.33326  23793523.656
  -9290573.433 7  -7252347.17026  23886505.936
 -18704354.365 8 -14616451.51029  22302511.173
   2569262.313 5   1985974.45825  25508293.076
 -19263173.177 7 -15014042.08727  23054005.064
 92  6 11  6 51  0.0060000  0  5G11G23G21G17G28
 -17579821.394 7 -13727553.18526  23781539.873
  -9217126.552 7  -7195115.82626  23900480.672
 -18690824.640 8 -14605908.86429  22305086.150
   2670413.359 5   2064793.29525  25527548.266
 -19216885.601 7 -14977973.85527  23062807.810
 92  6 11  6 51 30.0060000  0  5G11G23G21G17G28
 -17642316.381 7 -13776250.56526  23769649.654
  -9143538.987 7  -7137774.87426  23914480.949
 -18676968.834 8 -14595112.12629  22307721.716
   2771763.456 5   2143767.39625  25546829.688
 -19169994.608 7 -14941435.42727  23071733.621
 92  6 11  6 52  0.0060000  0  5G11G23G21G17G28
 -17704323.990 7 -13824568.14126  23757849.943
  -9069808.896 7  -7080322.88426  23928512.226
 -18662768.531 8 -14584046.95729  22310424.255
   2873318.968 5   2222901.54225  25566163.064
 -19122511.046 7 -14904435.27027  23080768.646
 92  6 11  6 52 30.0060000  0  5G11G23G21G17G28
 -17765839.358 7 -13872502.17526  23746139.780
  -8995932.376 8  -7022756.83226  23942570.993
 -18648240.909 8 -14572726.72529  22313186.962
   2975072.586 5   2302189.91325  25585522.132
 -19074425.317 7 -14866965.88627  23089919.901
 92  6 11  6 53  0.0060000  0  5G11G23G21G17G28
 -17826866.547 7 -13920055.81826  23734526.959
  -8921904.764 7  -6965072.90126  23956657.941
 -18633401.335 8 -14561163.42429  22316012.866
   3077018.473 5   2381628.28925  25604921.612
 -19025734.755 7 -14829025.20627  23099187.715
 92  6 11  6 53 30.0060000  0  5G11G23G21G17G28
 -17887405.901 7 -13967229.29526  23723007.883
  -8847722.754 7  -6907268.79926  23970771.900
 -18618249.781 8 -14549357.01929  22318896.629
   3179150.561 5   2461211.68424  25624349.122
 -18976433.830 7 -14790608.92127  23108564.833
 92  6 11  6 54  0.0060000  0  5G11G23G21G17G28
 -17947455.552 7 -14014021.21526  23711580.934
  -8773372.260 7  -6849333.34526  23984923.633
 -18602793.108 8 -14537312.84629  22321837.024
   3281457.450 5   2540931.17825  25643822.411
 -18926513.562 7 -14751710.03527  23118063.488
 92  6 11  6 54 30.0060000  0  5G11G23G21G17G28
 -18007012.466 7 -14060429.16126  23700248.719
  -8698835.950 7  -6791253.11626  23999110.382
 -18587036.310 8 -14525034.80829  22324835.128
   3383945.601 5   2620792.05925  25663332.844
 -18875968.976 7 -14712324.67027  23127684.577
 92  6 11  6 55  0.0060000  0  5G11G23G21G17G28
 -18066075.185 7 -14106452.06126  23689005.603
  -8624104.254 7  -6733020.62626  24013326.330
 -18570966.903 8 -14512513.21129  22327892.831
   3486610.527 5   2700790.52825  25682865.252
 -18824810.036 7 -14672460.57727  23137419.408
 92  6 11  6 55 30.0060000  0  5G11G23G21G17G28
 -18124639.583 8 -14152086.62526  23677864.655
  -8549184.216 7  -6674641.36226  24027583.590
 -18554590.738 8 -14499752.56829  22331008.634
   3589451.722 5   2780926.52125  25702434.895
 -18773044.477 7 -14632123.80527  23147270.078
 92  6 11  6 56  0.0060000  0  5G11G23G21G17G28
 -18182701.378 7 -14197329.55526  23666813.526
  -8474082.879 7  -6616120.88726  24041875.776
 -18537905.407 8 -14486751.00929  22334186.105
   3692470.342 6   2861200.69325  25722041.951
 -18720692.593 7 -14591330.13927  23157233.531
 92  6 11  6 56 30.0060000  0  5G11G23G21G17G28
 -18240256.402 8 -14242177.61526  23655862.197
  -8398811.429 7  -6557467.80226  24056199.380
 -18520891.851 8 -14473493.69529  22337425.062
   3795675.065 5   2941619.76825  25741676.168
 -18667763.554 7 -14550086.75027  23167301.071
 92  6 11  6 57  0.0060000  0  5G11G23G21G17G28
 -18297303.955 7 -14286630.22026  23645007.732
  -8323399.122 7  -6498704.98226  24070549.815
 -18503542.384 8 -14459974.62529  22340723.679
   3899067.446 5   3022185.21825  25761359.192
 -18614265.769 7 -14508400.16427  23177485.111
 92  6 11  6 57 30.0060000  0  5G11G23G21G17G28
 -18353839.482 7 -14330683.86826  23634251.418
  -8247865.749 7  -6439847.78926  24084926.572
 -18485850.071 8 -14446188.40029  22344090.798
   4002661.407 5   3102907.65525  25781070.576
 -18560206.514 7 -14466276.08927  23187769.911
 92  6 11  6 58  0.0060000  0  5G11G23G21G17G28
 -18409865.023 7 -14374340.12826  23623586.811
  -8172215.823 7  -6380899.84726  24099319.968
 -18467798.703 8 -14432122.39829  22347526.779
   4106458.870 5   3183788.71825  25800820.933
 -18505577.988 7 -14423708.40727  23198165.664
 92  6 11  6 58 30.0060000  0  5G11G23G21G17G28
 -18465383.562 7 -14417601.30526  23613021.615
  -8096455.521 7  -6321865.83726  24113736.628
 -18449399.253 8 -14417785.16629  22351028.535
   4210447.555 6   3264818.86525  25820608.495
 -18450370.749 7 -14380689.77927  23208672.430
 92  6 11  6 59  0.0060000  0  5G11G23G21G17G28
 -18520387.067 7 -14460461.15626  23602557.839
  -8020585.431 7  -6262746.25726  24128174.512
 -18430676.962 8 -14403196.37529  22354590.429
   4314619.851 6   3345991.91425  25840432.301
 -18394575.328 7 -14337212.85127  23219290.000
 92  6 11  6 59 30.0060000  0  5G11G23G21G17G28
 -18574873.817 7 -14502918.37126  23592189.817
  -7944604.389 7  -6203540.28426  24142632.423
 -18411656.722 8 -14388375.39829  22358209.134
   4418958.707 6   3427294.90825  25860295.740
 -18338183.172 7 -14293270.93027  23230021.191
 92  6 11  7  0  0.0060000  0  5G11G23G21G17G28
 -18628842.683 7 -14544972.00026  23581914.910
  -7868506.673 7  -6144243.38426  24157112.609
 -18392352.451 8 -14373333.10529  22361884.140
   4523449.154 6   3508716.05425  25880171.530
 -18281202.001 7 -14248870.03027  23240864.714
 92  6 11  7  0 30.0060000  0  5G11G23G21G17G28
 -18682293.043 7 -14586621.61426  23571744.781
  -7792294.979 7  -6084857.61826  24171614.709
 -18372788.073 8 -14358088.14129  22365606.483
   4628073.610 5   3590241.35024  25900076.730
 -18223653.922 7 -14204027.37327  23251815.773
 92  6 11  7  1  0.0060000  0  5G11G23G21G17G28
 -18735221.299 7 -14627864.41426  23561674.362
  -7715969.075 7  -6025382.86426  24186140.343
 -18352951.580 8 -14342631.13629  22369385.547
   4732835.868 5   3671874.31125  25920010.230
 -18165543.712 7 -14158746.70227  23262872.029
 92  6 11  7  1 30.0060000  0  5G11G23G21G17G28
 -18787631.738 7 -14668703.68626  23551697.779
  -7639508.435 7  -5965803.19526  24200691.490
 -18332819.924 8 -14326944.13129  22373212.637
   4837735.491 5   3753614.16325  25939975.958
 -18106879.767 7 -14113034.54927  23274035.491
 92  6 11  7  2  0.0060000  0  5G11G23G21G17G28
 -18839524.477 7 -14709139.57626  23541825.853
  -7562897.894 7  -5906106.70326  24215271.536
 -18312373.202 8 -14311011.60629  22377103.644
   4942782.116 5   3835468.53025  25959970.856
 -18047668.620 7 -14066896.00727  23285303.580
 92  6 11  7  2 30.0060000  0  5G11G23G21G17G28
 -18890895.682 7 -14749169.08526  23532048.782
  -7486142.774 7  -5846297.52526  24229873.648
 -18291610.416 8 -14294832.81029  22381053.199
   5047983.046 5   3917443.23725  25979983.652
 -17987901.333 7 -14020324.12827  23296678.305
 92  6 11  7  3  0.0060000  0  5G11G23G21G17G28
 -18941738.157 8 -14788786.56726  23522376.428
  -7409233.830 7  -5786368.44526  24244509.845
 -18270519.344 8 -14278398.19129  22385069.399
   5153349.764 5   3999546.93824  26000033.771
 -17927575.041 7 -13973316.63727  23308156.669
 92  6 11  7  3 30.0060000  0  5G11G23G21G17G28
 -18992046.798 7 -14827988.09226  23512802.346
  -7332169.241 7  -5726318.07626  24259174.943
 -18249112.894 8 -14261717.83629  22389141.270
   5258896.173 5   4081790.94424  26020129.789
 -17866692.009 7 -13925875.33727  23319742.029
 92  6 11  7  4  0.0060000  0  5G11G23G21G17G28
 -19041815.410 8 -14866768.83026  23503328.544
  -7254974.688 7  -5666166.51426  24273865.852
 -18227407.348 8 -14244804.41129  22393269.472
   5364626.268 5   4164178.11024  26040239.957
 -17805257.793 7 -13878004.53527  23331435.883
 92  6 11  7  4 30.0060000  0  5G11G23G21G17G28
 -19091034.154 8 -14905121.06626  23493963.777
  -7177658.589 7  -5605920.27526  24288577.927
 -18205414.135 8 -14227666.84429  22397455.204
   5470543.668 5   4246711.35923  26060402.859
 -17743271.983 7 -13829703.92227  23343230.078
 92  6 11  7  5  0.0060000  0  5G11G23G21G17G28
 -19139694.477 8 -14943038.19226  23484703.668
  -7100203.424 7  -5545565.56826  24303318.723
 -18183122.297 8 -14210296.56529  22401699.666
   5576656.219 5   4329396.45424  26080592.082
 -17680728.575 7 -13780968.80027  23355131.389
 92  6 11  7  5 30.0070000  0  5G11G23G21G17G28
 -19187791.080 8 -14980516.05326  23475552.473
  -7022619.389 7  -5485110.39526  24318078.824
 -18160534.714 8 -14192695.84429  22405998.420
   5682971.336 5   4412239.30324  26100817.610
 -17617611.986 7 -13731787.05127  23367140.805
 92  6 11  7  6  0.0070000  0  5G11G23G21G17G28
 -19235324.742 8 -15017555.25526  23466508.214
  -6944923.810 7  -5424568.44326  24332865.728
 -18137648.034 8 -14174862.05129  22410350.837
   5789458.106 5   4495215.87725  26121087.657
 -17553941.159 7 -13682173.42827  23379258.476
 92  6 11  7  6 30.0070000  0  5G11G23G21G17G28
 -19282303.697 8 -15054162.20726  23457567.204
  -6867107.549 7  -5363932.42126  24347675.265
 -18114454.736 8 -14156789.35329  22414766.420
   5896096.400 5   4578310.61125  26141375.722
 -17489722.208 7 -13632132.73927  23391477.957
 92  6 11  7  7  0.0070000  0  5G11G23G21G17G28
 -19328729.131 7 -15090337.85326  23448730.402
  -6789168.911 7  -5303201.00426  24362503.150
 -18090949.044 8 -14138473.20629  22419238.094
   6002871.384 5   4661511.68525  26161687.321
 -17424957.588 7 -13581666.79727  23403801.855
 92  6 11  7  7 30.0070000  0  5G11G23G21G17G28
 -19374594.992 8 -15126077.48126  23440006.111
  -6711113.712 7  -5242378.72826  24377358.346
 -18067131.902 8 -14119914.37829  22423770.717
   6109770.658 5   4744809.83525  26182036.813
 -17359641.578 7 -13530771.22927  23416230.441
 92  6 11  7  8  0.0070000  0  5G11G23G21G17G28
 -19419898.691 8 -15161379.03526  23431382.312
  -6632929.613 7  -5181456.02026  24392232.219
 -18043000.328 8 -14101110.53829  22428365.935
   6216784.590 5   4828197.12125  26202405.642
 -17293779.012 7 -13479449.77427  23428764.314
 92  6 11  7  8 30.0070000  0  5G11G23G21G17G28
 -19464633.256 8 -15196237.13626  23422872.643
  -6554613.491 7  -5120430.52126  24407138.679
 -18018563.150 8 -14082068.56829  22433011.669
   6323928.118 6   4911685.49325  26222787.542
 -17227353.582 7 -13427689.71327  23441405.333
 92  6 11  7  9  0.0070000  0  5G11G23G21G17G28
 -19508789.802 8 -15230644.83026  23414467.062
  -6476169.419 7  -5059305.31626  24422063.697
 -17993829.429 8 -14062795.51729  22437717.302
   6431228.964 6   4995296.54125  26243203.618
 -17160352.896 7 -13375481.39127  23454157.575
 92  6 11  7  9 30.0070000  0  5G11G23G21G17G28
 -19552359.171 8 -15264594.96926  23406177.471
  -6397594.656 6  -4998078.23226  24437020.583
 -17968790.137 8 -14043284.39929  22442483.102
   6538704.924 5   5079043.80125  26263661.426
 -17092778.277 7 -13322825.86427  23467015.074
 92  6 11  7 10  0.0070000  0  5G11G23G21G17G28
 -19595330.866 8 -15298079.39226  23398000.691
  -6318875.075 7  -4936738.32826  24451994.856
 -17943432.010 8 -14023524.77329  22447310.270
   6646375.135 5   5162942.61325  26284153.139
 -17024635.966 7 -13269727.98027  23479981.787
 92  6 11  7 10 30.0070000  0  5G11G23G21G17G28
 -19637704.434 8 -15331097.74726  23389937.383
  -6240003.424 7  -4875279.86326  24467006.904
 -17917760.266 8 -14003520.80429  22452195.389
   6754237.134 5   5246990.70725  26304668.447
 -16955937.406 7 -13216196.63027  23493055.556
 92  6 11  7 11  0.0070000  0  5G11G23G21G17G28
 -19679483.323 8 -15363652.71726  23381984.489
  -6160972.998 6  -4813697.69526  24482044.943
 -17891777.784 8 -13983274.70229  22457143.073
   6862273.495 5   5331174.78325  26325228.394
 -16886706.479 7 -13162250.49127  23506225.709
 92  6 11  7 11 30.0070000  0  5G11G23G21G17G28
 -19720673.279 8 -15395748.77626  23374146.085
  -6081800.122 7  -4752004.57726  24497109.304
 -17865490.714 8 -13962791.25729  22462142.412
   6970457.305 5   5415473.68625  26345820.658
 -16816966.394 7 -13107907.59426  23519501.448
 92  6 11  7 12  0.0070000  0  5G11G23G21G17G28
 -19761279.987 8 -15427390.36026  23366419.984
  -6002500.152 7  -4690212.40026  24512203.195
 -17838917.565 8 -13942084.90029  22467196.853
   7078779.637 5   5499880.65625  26366435.467
 -16746732.634 7 -13053180.00526  23532867.785
 92  6 11  7 12 30.0070000  0  5G11G23G21G17G28
 -19801307.955 8 -15458580.97726  23358802.647
  -5923087.510 6  -4628332.41826  24527313.844
 -17812072.475 8 -13921166.64429  22472307.385
   7187236.054 5   5584391.92425  26387076.987
 -16676007.891 7 -12998069.81126  23546321.901
 92  6 11  7 13  0.0070000  0  4G11G23G21G28
 -19840756.353 8 -15489319.96826  23351298.033
  -5843591.349 6  -4566387.38126  24542442.900
 -17784944.365 8 -13900027.84329  22477469.332
 -16604783.291 7 -12942570.14026  23559875.847
 92  6 11  7 13 30.0070000  0  4G11G23G21G28
 -19879620.014 8 -15519603.32726  23343900.984
  -5764018.505 7  -4504382.57626  24557586.017
 -17757523.926 8 -13878661.25929  22482687.279
 -16533052.093 7 -12886675.73426  23573525.728
 92  6 11  7 14  0.0070000  0  4G11G23G21G28
 -19917886.442 8 -15549421.32226  23336621.543
  -5684327.910 7  -4442285.96326  24572747.691
 -17729805.201 8 -13857062.24229  22487960.839
 -16460795.696 7 -12830372.04426  23587278.047
 92  6 11  7 14 30.0070000  0  4G11G23G21G28
 -19955543.167 8 -15578764.20626  23329453.056
  -5604508.152 6  -4380088.74026  24587936.376
 -17701767.043 8 -13835214.31029  22493297.684
 -16387996.920 7 -12773645.74326  23601128.219
 92  6 11  7 15  0.0070000  0  4G11G23G21G28
 -19992580.295 8 -15607624.29326  23322404.965
  -5524556.542 6  -4317788.85025  24603154.441
 -17673396.687 8 -13813107.53629  22498695.267
 -16314654.799 7 -12716496.06426  23615089.853
 92  6 11  7 15 30.0070000  0  4G11G23G21G28
 -20028992.698 8 -15635997.59326  23315478.260
  -5444453.794 7  -4255371.10525  24618394.870
 -17644699.716 8 -13790746.25129  22504158.295
 -16240776.497 7 -12658928.55226  23629145.353
 92  6 11  7 16  0.0070000  0  5G11G23G21G17G28
 -20064781.051 8 -15663884.60026  23308664.907
  -5364207.122 7  -4192841.20725  24633663.330
 -17615676.585 8 -13768130.82029  22509679.183
      7327.75315     43951.03131  26532373.050
 -16166371.666 7 -12600950.79126  23643305.001
 92  6 11  7 16 30.0070000  0  5G11G23G21G17G28
 -20099949.148 8 -15691288.29526  23301974.049
  -5283851.245 7  -4130226.25525  24648954.664
 -17586315.023 8 -13745251.69429  22515269.833
    117085.932 5    129467.43321  26553264.388
 -16091453.963 7 -12542573.38626  23657558.573
 92  6 11  7 17  0.0070000  0  5G11G23G21G17G28
 -20134498.456 8 -15718209.83126  23295400.770
  -5203373.535 7  -4067516.30825  24664269.172
 -17556626.064 8 -13722117.40829  22520916.214
    226996.263 5    215111.35221  26574175.241
 -16016040.032 7 -12483809.29526  23671909.968
 92  6 11  7 17 30.0070000  0  5G11G23G21G17G28
 -20168427.076 8 -15744647.70226  23288943.690
  -5122764.206 7  -4004703.86625  24679610.931
 -17526619.431 8 -13698735.61229  22526625.042
    337056.524 5    300872.68222  26595126.207
 -15940138.250 7 -12424665.07626  23686353.249
 92  6 11  7 18  0.0070000  0  5G11G23G21G17G28
 -20201733.445 8 -15770600.70126  23282603.529
  -5042029.247 6  -3941793.45625  24694975.264
 -17496310.959 8 -13675118.62429  22532393.888
    447250.040 5    386737.87022  26616088.805
 -15863752.592 7 -12365143.79126  23700891.894
 92  6 11  7 18 30.0070000  0  5G11G23G21G17G28
 -20234415.806 8 -15796067.47526  23276387.033
  -4961169.724 6  -3878786.05825  24710362.232
 -17465711.940 8 -13651275.23429  22538216.817
    557559.949 5    472693.82922  26637082.282
 -15786883.162 7 -12305245.55826  23715520.147
 92  6 11  7 19  0.0070000  0  5G11G23G21G17G28
 -20266457.642 8 -15821035.12026  23270289.074
  -4880167.326 7  -3815667.23725  24725774.592
 -17434836.034 8 -13627216.07529  22544090.951
    668003.238 5    558753.52723  26658095.934
 -15709520.034 7 -12244962.63826  23730238.698
 92  6 11  7 19 30.0070000  0  5G11G23G21G17G28
 -20297863.120 8 -15845506.92126  23264311.362
  -4799050.622 7  -3752459.47125  24741212.495
 -17403696.301 8 -13602951.34229  22550017.907
    778585.365 5    644921.52423  26679144.033
 -15631656.291 7 -12184289.60326  23745055.580
 92  6 11  7 20  0.0070000  0  5G11G23G21G17G28
 -20328641.633 8 -15869490.17226  23258454.257
  -4717844.763 6  -3689182.15825  24756664.578
 -17372298.514 8 -13578485.54329  22555992.351
    889281.909 5    731178.74423  26700207.691
 -15553299.618 7 -12123232.47826  23759965.818
 92  6 11  7 20 30.0070000  0  5G11G23G21G17G28
 -20358795.948 8 -15892987.04126  23252717.549
  -4636556.856 6  -3625840.98025  24772132.669
 -17340628.460 8 -13553807.56529  22562020.428
   1000115.120 5    817542.26724  26721299.020
 -15474454.711 7 -12061794.89826  23774972.349
 92  6 11  7 21  0.0070000  0  5G11G23G21G17G28
 -20388307.981 8 -15915983.40526  23247100.847
  -4555163.637 7  -3562417.62325  24787622.436
 -17308674.692 8 -13528908.53329  22568102.198
   1111111.891 5    904033.08423  26742416.310
 -15395101.210 7 -11999961.02926  23790070.917
 92  6 11  7 21 30.0070000  0  5G11G23G21G17G28
 -20417164.910 8 -15938469.31226  23241608.559
  -4473659.525 7  -3498907.89725  24803129.381
 -17276413.368 8 -13503769.83329  22574241.408
   1222282.998 5    990659.86524  26763571.045
 -15315232.670 7 -11937725.81526  23805270.484
 92  6 11  7 22  0.0070000  0  5G11G23G21G17G28
 -20445359.742 8 -15960439.31226  23236242.844
  -4392024.149 6  -3435295.95625  24818665.945
 -17243828.356 8 -13478378.93129  22580442.315
   1333626.763 5   1077421.22124  26784767.182
 -15234856.922 7 -11875095.40426  23820566.165
 92  6 11  7 22 30.0070000  0  5G11G23G21G17G28
 -20472891.835 8 -15981892.87526  23231005.919
  -4310240.222 6  -3371568.22525  24834230.840
 -17210918.863 8 -13452735.14529  22586703.720
   1445147.119 5   1164319.93323  26805977.828
 -15153984.481 7 -11812077.92326  23835951.514
 92  6 11  7 23  0.0070000  0  5G11G23G21G17G28
 -20499755.117 8 -16002825.29927  23225893.409
  -4228297.040 6  -3307716.41125  24849824.365
 -17177690.506 8 -13426842.93429  22593029.701
   1556819.801 5   1251337.63624  26827228.916
 -15072617.604 7 -11748675.18826  23851440.232
 92  6 11  7 23 30.0070000  0  5G11G23G21G17G28
 -20525954.475 8 -16023240.38326  23220905.791
  -4146207.144 6  -3243750.24825  24865442.083
 -17144131.553 8 -13400693.09229  22599413.871
   1668630.762 5   1338463.28123  26848513.551
 -14990762.744 7 -11684892.20526  23867014.690
 92  6 11  7 24  0.0070000  0  5G11G23G21G17G28
 -20551493.256 8 -16043140.71927  23216050.743
  -4063955.453 6  -3179658.00725  24881095.236
 -17110245.823 8 -13374288.64029  22605860.099
   1780568.924 5   1425687.87323  26869810.507
 -14908417.182 7 -11620726.84026  23882682.053
 92  6 11  7 24 30.0070000  0  5G11G23G21G17G28
 -20576379.883 8 -16062532.88627  23211314.411
  -3981564.835 6  -3115457.53325  24896771.294
 -17076054.937 8 -13347646.37529  22612364.006
   1892628.482 5   1513007.06624  26891134.775
 -14825588.861 7 -11556185.32526  23898446.220
 92  6 11  7 25  0.0070000  0  5G11G23G21G17G28
 -20600625.850 8 -16081425.83827  23206698.537
  -3899059.567 6  -3051167.70125  24912473.194
 -17041571.475 8 -13320776.14529  22618928.801
   2004798.224 5   1600412.07123  26912478.919
 -14742281.340 7 -11491270.40726  23914303.292
 92  6 11  7 25 30.0070000  0  6G15G11G23G21G17G28
  -4510612.11515  -3040108.54835  26765519.097
 -20624236.593 8 -16099823.81027  23202205.218
  -3816456.596 6  -2986801.78125  24928192.661
 -17006806.692 8 -13293686.70229  22625546.210
   2117083.646 5   1687907.01023  26933848.065
 -14658508.515 7 -11425992.89526  23930239.510
 92  6 11  7 26  0.0070000  0  5G15G11G23G21G28
  -4604912.987 5  -3113589.57525  26747584.732
 -20647215.541 8 -16117729.46527  23197833.104
  -3733763.820 6  -2922365.83725  24943928.408
 -16971781.495 8 -13266394.34929  22632208.348
 -14574294.623 7 -11360371.70326  23946265.425
 92  6 11  7 26 30.0070000  0  5G15G11G23G21G28
  -4699217.094 5  -3187073.23224  26729636.847
 -20669559.977 8 -16135140.70627  23193580.189
  -3651012.916 7  -2857884.60425  24959675.996
 -16936491.532 8 -13238895.67029  22638921.571
 -14489654.505 7 -11294418.41726  23962372.465
 92  6 11  7 27  0.0070000  0  5G15G11G23G21G28
  -4793531.764 5  -3260565.24623  26711677.810
 -20691263.760 8 -16152052.74027  23189452.886
  -3568204.989 7  -2793358.91725  24975433.687
 -16900927.078 8 -13211183.11429  22645692.084
 -14404586.740 7 -11228131.85626  23978561.527
 92  6 11  7 27 30.0070000  0  5G15G11G23G21G28
  -4887844.479 5  -3334055.48923  26693737.390
 -20712323.047 8 -16168462.56627  23185441.993
  -3485349.093 7  -2728795.79725  24991202.141
 -16865086.535 8 -13183255.40429  22652512.242
 -14319097.469 7 -11161516.85726  23994827.397
 92  6 11  7 28  0.0070000  0  5G15G11G23G21G28
  -4982137.770 5  -3407530.65224  26675800.957
 -20732734.523 8 -16184367.59427  23181559.530
  -3402440.231 6  -2664191.52525  25006976.530
 -16828956.991 8 -13155102.50129  22659388.492
 -14233180.053 7 -11094568.24126  24011176.578
 92  6 11  7 28 30.0070000  0  5G15G11G23G21G28
  -5076413.989 5  -3480992.46324  26657851.004
 -20752500.797 8 -16199769.89027  23177797.645
  -3319471.360 6  -2599540.51725  25022764.171
 -16792542.495 8 -13126727.55528  22666314.507
 -14146830.795 7 -11027283.15626  24027610.811
 92  6 11  7 29  0.0070000  0  5G15G11G23G21G28
  -5170669.890 5  -3554438.59124  26639918.918
 -20771616.807 8 -16214665.47627  23174159.663
  -3236412.402 6  -2534819.26525  25038573.306
 -16755853.451 8 -13098138.68728  22673299.731
 -14060048.648 7 -10959660.72126  24044122.960
 92  6 11  7 29 30.0070000  0  5G15G11G23G21G28
  -5264904.287 6  -3627867.92424  26621992.438
 -20790086.767 8 -16229057.64326  23170644.177
  -3153249.859 7  -2470017.27325  25054396.172
 -16718902.522 8 -13069345.74928  22680330.194
 -13972855.210 6 -10891717.81426  24060717.042
 92  6 11  7 30  0.0070000  0  5G15G11G23G21G28
  -5359129.933 6  -3701290.43624  26604063.830
 -20807909.403 8 -16242945.40726  23167255.053
  -3069966.541 7  -2405121.07325  25070245.600
 -16681708.614 8 -13040363.49328  22687409.883
 -13885253.351 6 -10823456.66026  24077386.882
 92  6 11  7 30 30.0070000  0  5G15G11G23G21G28
  -5453353.964 6  -3774711.60424  26586129.585
 -20825074.955 8 -16256321.14426  23163985.666
  -2986562.152 6  -2340130.52525  25086114.185
 -16644272.379 8 -13011192.38628  22694532.262
 -13797243.376 6 -10754877.48526  24094130.800
 92  6 11  7 31  0.0070000  0  5G15G11G23G21G28
  -5547577.976 6  -3848132.79625  26568197.799
 -20841577.019 8 -16269179.88726  23160846.240
  -2903039.402 6  -2275047.89825  25102006.273
 -16606588.042 8 -12981827.96328  22701705.037
 -13708823.538 6 -10685978.93126  24110960.819
 92  6 11  7 31 30.0070000  0  5G15G11G23G21G28
  -5641782.499 6  -3921538.80825  26550272.968
 -20857408.208 8 -16281515.87026  23157834.135
  -2819405.843 6  -2209878.94825  25117925.132
 -16568639.682 8 -12952257.80828  22708923.559
 -13619982.690 7 -10616752.31726  24127868.754
 92  6 11  7 32  0.0070000  0  5G15G11G23G21G28
  -5735956.033 6  -3994920.76125  26532350.626
 -20872564.356 8 -16293325.86926  23154951.750
  -2735671.621 7  -2144631.52525  25133860.391
 -16530405.431 8 -12922464.88428  22716199.252
 -13530717.507 6 -10547195.08026  24144851.157
 92  6 11  7 32 30.0070000  0  5G15G11G23G21G28
  -5830080.818 6  -4068264.67525  26514434.579
 -20887037.130 8 -16304603.33226  23152193.900
  -2651844.309 6  -2079311.52125  25149810.518
 -16491859.845 8 -12892429.35728  22723535.384
 -13441031.196 6 -10477309.67326  24161920.830
 92  6 11  7 33  0.0070000  0  5G15G11G23G21G28
  -5924135.662 6  -4141554.07325  26496543.295
 -20900814.716 8 -16315339.11326  23149575.362
  -2567908.867 6  -2013907.27225  25165778.634
 -16452995.752 8 -12862145.64228  22730931.713
 -13350922.179 6 -10407094.90326  24179067.760
 92  6 11  7 33 30.0070000  0  5G15G11G23G21G28
  -6018130.329 6  -4214796.58825  26478654.799
 -20913904.462 8 -16325538.91726  23147082.918
  -2483881.086 6  -1948431.06925  25181773.251
 -16413813.975 8 -12831614.38628  22738389.351
 -13260410.387 6 -10336566.26526  24196292.635
 92  6 11  7 34  0.0070000  0  5G15G11G23G21G28
  -6112095.371 6  -4288016.03125  26460776.136
 -20926317.319 8 -16335211.26126  23144721.363
  -2399774.885 6  -1882893.77825  25197779.200
 -16374334.406 8 -12800851.08128  22745899.601
 -13169507.370 6 -10265732.77626  24213590.930
 92  6 11  7 34 30.0070000  0  5G15G11G23G21G28
  -6206043.277 6  -4361222.16824  26442899.182
 -20938052.295 8 -16344355.40126  23142488.599
  -2315590.230 6  -1817295.27625  25213797.711
 -16334582.122 8 -12769875.26328  22753465.134
 -13078211.181 6 -10194592.92426  24230964.053
 92  6 11  7 35  0.0070000  0  5G15G11G23G21G28
  -6299982.883 6  -4434421.74325  26425022.318
 -20949109.954 8 -16352971.75026  23140384.715
  -2231328.789 6  -1751636.99825  25229831.001
 -16294560.417 8 -12738689.51228  22761078.183
 -12986525.971 6 -10123149.93426  24248409.965
 92  6 11  7 35 30.0070000  0  5G15G11G23G21G28
  -6393911.584 6  -4507612.82825  26407148.541
 -20959481.720 8 -16361053.64226  23138411.571
  -2146981.489 7  -1685911.81925  25245878.082
 -16254254.101 8 -12707281.99128  22768747.414
 -12894440.469 6 -10051395.01726  24265928.487
 92  6 11  7 36  0.0070000  0  5G15G11G23G21G28
  -6487813.091 6  -4580782.75225  26389273.506
 -20969163.666 8 -16368598.02126  23136568.687
  -2062538.343 6  -1620111.92325  25261950.526
 -16213669.453 8 -12675657.58028  22776475.254
 -12801958.843 6  -9979331.45026  24283532.031
 92  6 11  7 36 30.0070000  0  5G15G11G23G21G28
  -6581668.472 6  -4653916.81925  26371421.555
 -20978154.457 8 -16375603.83626  23134859.600
  -1977987.683 6  -1554228.33325  25278038.408
 -16172798.966 8 -12643810.43428  22784251.961
 -12709096.429 6  -9906971.16726  24301202.338
 92  6 11  7 37  0.0070000  0  5G15G11G23G21G28
  -6675476.861 6  -4727014.17025  26353562.678
 -20986464.555 8 -16382079.23726  23133276.336
  -1893320.624 6  -1488254.04025  25294155.191
 -16131646.129 8 -12611743.27828  22792079.362
 -12615861.632 6  -9834320.70226  24318946.004
 92  6 11  7 37 30.0070000  0  5G15G11G23G21G28
  -6769220.466 6  -4800061.06025  26335728.864
 -20994094.280 8 -16388024.46826  23131825.790
  -1808523.737 6  -1422178.57525  25310292.659
 -16090223.421 8 -12579465.82728  22799961.805
 -12522245.190 6  -9761372.87726  24336759.672
 92  6 11  7 38  0.0070000  0  5G15G11G23G21G28
  -6862888.836 5  -4873049.34025  26317898.798
 -21001044.668 8 -16393440.35226  23130500.947
  -1723594.458 6  -1355999.94725  25326447.395
 -16048542.409 8 -12546987.11528  22807894.973
 -12428241.045 6  -9688122.92026  24354645.080
 92  6 11  7 38 30.0070000  0  5G15G11G23G21G28
  -6956476.038 5  -4945974.42725  26300093.164
 -21007309.890 8 -16398322.34626  23129309.422
  -1638534.792 6  -1289719.72225  25342638.796
 -16006609.626 8 -12514312.19328  22815876.258
 -12333824.101 6  -9614551.30526  24372615.839
 92  6 11  7 39  0.0070000  0  5G15G11G23G21G28
  -7049984.713 6  -5018838.25325  26282304.379
 -21012890.012 8 -16402670.49226  23128248.037
  -1553371.525 6  -1223358.63425  25358841.559
 -15964433.400 8 -12481447.57628  22823898.494
 -12238994.573 6  -9540658.18625  24390659.208
 92  6 11  7 39 30.0070000  0  5G15G11G23G21G28
  -7143404.104 5  -5091632.53825  26264510.678
 -21017779.805 8 -16406480.72826  23127317.991
  -1468142.732 7  -1156946.50825  25375063.479
 -15921999.067 8 -12448381.85628  22831979.010
 -12143762.095 6  -9466451.10325  24408780.703
 92  6 11  7 40  0.0070000  0  5G15G11G23G21G28
  -7236739.249 5  -5164361.18525  26246764.823
 -21021977.380 8 -16409751.56226  23126519.134
  -1382860.624 7  -1090492.91625  25391288.787
 -15879300.479 8 -12415110.22328  22840101.377
 -12048146.371 6  -9391945.37525  24426976.516
 92  6 11  7 40 30.0070000  0  5G15G11G23G21G28
  -7329997.845 5  -5237030.22225  26229015.640
 -21025483.325 8 -16412483.46826  23125854.884
  -1297539.248 6  -1024008.74425  25407527.765
 -15836320.990 8 -12381619.69528  22848279.445
 -11952172.536 6  -9317160.58825  24445238.703
 92  6 11  7 41  0.0070000  0  5G15G11G23G21G28
  -7423180.493 6  -5309639.98925  26211287.443
 -21028289.049 8 -16414669.73326  23125319.125
  -1212167.801 6   -957485.58825  25423776.156
 -15793031.298 8 -12347887.46228  22856517.922
 -11855862.574 6  -9242113.93825  24463568.794
 92  6 11  7 41 30.0070000  0  5G15G11G23G21G28
  -7516281.801 6  -5382186.38025  26193565.152
 -21030383.766 8 -16416301.97126  23124919.381
  -1126707.092 6   -890892.82125  25440032.522
 -15749422.747 8 -12313906.76228  22864815.787
 -11759211.918 6  -9166801.76025  24481961.121
 92  6 11  7 42  0.0070000  0  5G15G11G23G21G28
  -7609303.732 6  -5454671.04525  26175864.056
 -21031760.697 7 -16417374.92826  23124654.845
  -1041115.932 6   -824198.35925  25456323.844
 -15705512.670 8 -12279691.10728  22873173.162
 -11662207.222 6  -9091213.71725  24500419.792
 92  6 11  7 42 30.0070000  0  5G15G11G23G21G28
  -7702254.642 6  -5527100.25325  26158181.248
 -21032424.100 7 -16417891.83126  23124529.621
   -955405.642 6   -757411.07825  25472633.633
 -15661312.347 8 -12245249.26328  22881584.349
 -11564837.351 6  -9015341.14725  24518947.056
 92  6 11  7 43  0.0070000  0  6G15G11G25G23G21G28
  -7795123.389 6  -5599465.45025  26140507.523
 -21032372.204 7 -16417851.39526  23124544.311
  -1661685.08715  -1296949.11335  27124937.517
   -869571.475 6   -690527.33625  25488964.317
 -15616841.524 8 -12210596.68228  22890045.541
 -11467094.318 6  -8939177.79625  24537544.172
 92  6 11  7 43 30.0070000  0  6G15G11G25G23G21G28
  -7887915.272 6  -5671770.85025  26122846.000
 -21031617.220 8 -16417263.10626  23124685.543
  -1752008.448 6  -1367330.84525  27107743.999
   -783628.174 6   -623558.59725  25505322.762
 -15572127.273 8 -12175754.37928  22898551.343
 -11368970.536 6  -8862717.74825  24556218.034
 92  6 11  7 44  0.0070000  0  6G15G11G25G23G21G28
  -7980631.139 6  -5744016.90725  26105199.017
 -21030166.231 7 -16416132.45426  23124960.993
  -1842425.958 6  -1437785.89025  27090543.887
   -697609.049 6   -556530.70025  25521689.512
 -15527168.210 8 -12140721.33828  22907107.150
 -11270474.853 6  -8785967.90325  24574963.037
 92  6 11  7 44 30.0070000  0  6G15G11G25G23G21G28
  -8073271.088 6  -5816203.79825  26087571.490
 -21028021.358 7 -16414461.12026  23125367.631
  -1932929.904 6  -1508308.29925  27073319.971
   -611538.423 6   -489462.60025  25538069.572
 -15481940.594 8 -12105479.02428  22915717.249
 -11171626.779 6  -8708943.48025  24593773.845
 92  6 11  7 45  0.0070000  0  6G15G11G25G23G21G28
  -8165841.505 6  -5888336.56225  26069958.773
 -21025185.457 8 -16412251.32226  23125908.816
  -2023512.546 6  -1578892.04325  27056079.986
   -525404.094 6   -422344.89525  25554457.547
 -15436446.806 8 -12070029.32028  22924375.015
 -11072445.542 6  -8631659.47025  24612644.221
 92  6 11  7 45 30.0070000  0  6G15G11G25G23G21G28
  -8258355.855 6  -5960425.64125  26052353.161
 -21021662.931 7 -16409506.52326  23126582.720
  -2114167.732 6  -1649532.34225  27038828.788
   -439207.116 6   -355178.44525  25570861.381
 -15390677.122 8 -12034364.60628  22933083.687
 -10972931.216 6  -8554115.85425  24631586.907
 92  6 11  7 46  0.0070000  0  6G15G11G25G23G21G28
  -8350812.971 6  -6032470.05525  26034758.941
 -21017452.069 8 -16406225.30026  23127379.868
  -2204883.344 6  -1720219.72525  27021566.259
   -352940.041 6   -287957.41025  25587275.798
 -15344628.133 8 -11998482.26928  22941843.562
 -10873098.775 6  -8476324.40425  24650577.111
 92  6 11  7 46 30.0070000  0  6G15G11G25G23G21G28
  -8443210.935 6  -6104468.39525  26017174.735
 -21012548.916 7 -16402404.66126  23128311.773
  -2295632.507 5  -1790933.32725  27004294.796
   -266587.206 6   -220669.49225  25603714.347
 -15298305.514 8 -11962386.72328  22950661.777
 -10772953.333 6  -8398289.04225  24669637.435
 92  6 11  7 47  0.0070000  0  6G15G11G25G23G21G28
  -8535533.248 6  -6176407.89625  25999606.117
 -21006950.554 8 -16398042.30226  23129379.814
  -2386411.746 5  -1861670.24525  26987020.814
   -180136.298 6   -153305.19325  25620166.448
 -15251723.084 8 -11926088.71028  22959524.152
 -10672492.408 6  -8320007.85725  24688758.528
 92  6 11  7 47 30.0070000  0  6G15G11G25G23G21G28
  -8627759.155 6  -6248272.17325  25982057.916
 -21000648.658 7 -16393131.72426  23130578.624
  -2477224.434 5  -1932433.25125  26969745.843
    -93596.413 6    -85871.56025  25636629.131
 -15204867.712 8 -11889578.03128  22968441.239
 -10571720.180 6  -8241484.11825  24707931.995
 92  6 11  7 48  0.0070000  0  6G15G11G25G23G21G28
  -8719868.893 6  -6320045.89025  25964529.051
 -20993633.967 7 -16387665.72126  23131910.512
  -2568072.459 5  -2003223.75225  26952449.228
     -6961.810 6    -18364.08925  25653117.177
 -15157750.379 8 -11852863.21228  22977408.931
 -10470657.610 6  -8162734.11325  24727162.212
 92  6 11  7 48 30.0070000  0  6G15G11G25G23G21G28
  -8811846.486 6  -6391716.73325  25947026.267
 -20985899.894 8 -16381639.17526  23133386.660
  -2658969.580 5  -2074052.51725  26935152.162
     79772.970 6     49221.49125  25669619.402
 -15110369.060 8 -11815942.70128  22986422.791
 -10369303.426 6  -8083756.90025  24746448.970
 92  6 11  7 49  0.0070000  0  6G15G11G25G23G21G28
  -8903688.779 6  -6463282.14625  25929546.329
 -20977446.878 8 -16375052.42926  23134994.866
  -2749940.995 5  -2144939.18125  26917849.551
    166608.894 6    116885.85925  25686149.359
 -15062731.295 8 -11778822.35428  22995487.375
 -10267657.271 6  -8004552.20825  24765794.517
 92  6 11  7 49 30.0070000  0  6G15G11G25G23G21G28
  -8995411.869 6  -6534754.58625  25912088.215
 -20968277.877 8 -16367907.72926  23136736.001
  -2840977.831 5  -2215876.83625  26900525.594
    253541.127 6    184625.24225  25702686.091
 -15014838.559 8 -11741503.33728  23004604.813
 -10165729.441 6  -7925127.99325  24785194.567
 92  6 11  7 50  0.0070000  0  6G15G11G25G23G21G28
  -9087031.193 6  -6606146.20025  25894660.889
 -20958399.446 8 -16360210.25626  23138617.049
  -2932067.050 5  -2286855.42124  26883193.542
    340572.984 6    252442.22925  25719252.202
 -14966699.476 8 -11703992.34328  23013762.394
 -10063516.910 6  -7845481.92425  24804643.633
 92  6 11  7 50 30.0070000  0  6G15G11G25G23G21G28
  -9178564.077 6  -6677470.53225  25877238.720
 -20947818.189 8 -16351965.13926  23140631.984
  -3023202.480 6  -2357869.96224  26865848.990
    427689.471 6    320325.22725  25735828.147
 -14918305.050 8 -11666282.41028  23022970.969
  -9961003.437 6  -7765601.37525  24824146.061
 92  6 11  7 51  0.0070000  0  6G15G11G25G23G21G28
  -9270028.759 6  -6748741.61525  25859836.488
 -20936537.409 8 -16343174.91426  23142776.519
  -3114367.042 6  -2428907.10225  26848499.850
    514876.861 6    388263.47625  25752418.152
 -14869650.687 8 -11628369.91828  23032231.138
  -9858181.829 6  -7685480.69625  24843713.875
 92  6 11  7 51 30.0070000  0  6G15G11G25G23G21G28
  -9361429.997 6  -6819963.28925  25842447.986
 -20924557.674 8 -16333840.04826  23145056.651
  -3205542.108 6  -2499952.49825  26831153.349
    602120.037 6    456245.15225  25769019.789
 -14820727.776 8 -11590248.16828  23041540.503
  -9755043.613 6  -7605113.30125  24863336.610
 92  6 11  7 52  0.0070000  0  6G15G11G25G23G21G28
  -9452750.635 6  -6891122.15425  25825067.608
 -20911870.624 8 -16323954.02826  23147469.440
  -3296732.240 6  -2571009.60925  26813794.916
    689418.338 6    524269.73625  25785630.420
 -14771533.829 8 -11551915.20828  23050901.163
  -9651565.312 6  -7524480.91525  24883030.576
 92  6 11  7 52 30.0070000  0  6G15G11G25G23G21G28
  -9543983.806 6  -6962212.92725  25807702.429
 -20898479.027 8 -16313519.03626  23150020.584
  -3387949.315 5  -2642087.68025  26796432.136
    776763.116 6    592330.61125  25802254.211
 -14722070.509 8 -11513372.38428  23060313.987
  -9547754.784 6  -7443589.66525  24902793.855
 92  6 11  7 53  0.0070000  0  6G15G11G25G23G21G28
  -9635113.267 6  -7033222.84125  25790364.142
 -20884383.400 8 -16302535.43126  23152701.538
  -3479201.180 6  -2713192.92025  26779070.315
    864156.451 6    660429.33025  25818887.056
 -14672343.900 8 -11474624.36527  23069775.497
  -9443627.179 6  -7362451.34225  24922602.012
 92  6 11  7 53 30.0070000  0  6G15G11G25G23G21G28
  -9726119.738 6  -7104136.88925  25773048.670
 -20869581.434 8 -16291001.42526  23155519.617
  -3570495.540 5  -2784331.32525  26761702.679
    951605.873 6    728571.71125  25835525.328
 -14622351.564 8 -11435669.28327  23079289.231
  -9339203.773 6  -7281082.54225  24942470.067
 92  6 11  7 54  0.0070000  0  6G15G11G25G23G21G28
  -9816988.836 6  -7174943.98825  25755752.444
 -20854067.999 8 -16278913.05226  23158469.935
  -3661831.111 5  -2855501.84425  26744325.149
   1039126.179 6    796769.29525  25852178.979
 -14572092.608 8 -11396506.46627  23088854.858
  -9234506.958 6  -7199500.67225  24962395.054
 92  6 11  7 54 30.0070000  0  6G15G11G25G23G21G28
  -9907711.139 6  -7245636.65625  25738485.597
 -20837842.372 7 -16266269.70726  23161558.007
  -3753192.890 5  -2926692.72025  26726935.627
   1126727.588 6    865030.13125  25868846.510
 -14521561.367 8 -11357131.46927  23098469.053
  -9129566.889 6  -7117729.21425  24982366.118
 92  6 11  7 55  0.0070000  0  6G15G11G25G23G21G28
  -9998283.615 6  -7316212.54025  25721251.938
 -20820909.940 7 -16253075.61426  23164780.386
  -3844567.268 5  -2997893.39425  26709539.301
   1214417.844 5    933360.23225  25885529.931
 -14470777.261 8 -11317559.41427  23108135.591
  -9024390.166 6  -7035773.40125  25002375.975
 92  6 11  7 55 30.0070000  0  6G15G11G25G23G21G28
 -10088718.630 6  -7386681.31825  25704045.140
 -20803277.788 7 -16239336.28126  23168135.753
  -3935942.222 5  -3069094.53225  26692158.623
   1302204.182 5   1001765.14025  25902238.623
 -14419755.799 8 -11277802.43927  23117844.279
  -8918990.594 6  -6953643.90625  25022434.639
 92  6 11  7 56  0.0070000  0  6G15G11G25G23G21G28
 -10179010.518 6  -7457038.65825  25686860.347
 -20784940.339 8 -16225047.34726  23171625.817
  -4027296.569 6  -3140279.62025  26674774.798
   1390098.704 5   1070254.25225  25918966.173
 -14368497.135 8 -11237860.63027  23127597.038
  -8813352.512 6  -6871328.58225  25042541.269
 92  6 11  7 56 30.0070000  0  6G15G11G25G23G21G28
 -10269148.279 6  -7527275.80125  25669707.661
 -20765887.459 8 -16210200.95926  23175252.916
  -4118618.195 6  -3211439.37825  26657393.640
   1478121.934 5   1138843.85225  25935716.057
 -14316981.927 8 -11197718.92427  23137399.741
  -8707447.740 6  -6788805.46525  25062689.691
 92  6 11  7 57  0.0070000  0  6G15G11G25G23G21G28
 -10359142.500 6  -7597401.07325  25652585.465
 -20746120.759 8 -16194798.33226  23179011.264
  -4209914.259 6  -3282579.03525  26640020.218
   1566266.826 5   1207528.21425  25952493.643
 -14265212.519 8 -11157379.11427  23147250.712
  -8601265.628 6  -6706066.20625  25082899.120
 92  6 11  7 57 30.0070000  0  6G15G11G25G23G21G28
 -10448988.539 6  -7667410.99825  25635488.421
 -20725635.295 7 -16178835.65726  23182910.605
  -4301195.882 6  -3353707.46725  26622648.294
   1654512.308 5   1276290.94225  25969282.140
 -14213159.875 8 -11116818.63827  23157158.463
  -8494812.988 6  -6623116.14425  25103152.229
 92  6 11  7 58  0.0070000  0  6G15G11G25G23G21G28
 -10538682.770 6  -7737302.51625  25618420.307
 -20704433.321 7 -16162314.63926  23186943.533
  -4392477.016 6  -3424835.47225  26605278.559
   1742837.115 5   1345115.26524  25986090.874
 -14160820.312 8 -11076034.55427  23167118.737
  -8388086.908 6  -6539953.04325  25123466.436
 92  6 11  7 58 30.0070000  0  6G15G11G25G23G21G28
 -10628221.330 6  -7807072.77025  25601376.176
 -20682511.218 7 -16145232.47426  23191115.475
  -4483758.211 6  -3495963.59125  26587908.794
   1831233.487 5   1413995.66224  26002910.789
 -14108196.290 8 -11035028.82727  23177131.146
  -8281098.629 6  -6456585.56725  25143823.303
 92  6 11  7 59  0.0070000  0  6G15G11G25G23G21G28
 -10717602.417 6  -7876720.30025  25584369.609
 -20659869.622 7 -16127589.70126  23195426.490
  -4575034.501 6  -3567088.01125  26570548.352
   1919681.640 5   1482916.38724  26019739.369
 -14055300.678 8 -10993811.44427  23187199.196
  -8173862.051 6  -6373024.65225  25164229.966
 92  6 11  7 59 30.0070000  0  5G15G11G25G21G28
 -10806836.507 6  -7946253.34825  25567388.195
 -20636512.631 8 -16109389.46826  23199871.903
  -4666302.161 6  -3638205.52525  26553171.032
 -14002145.539 8 -10952391.86727  23197310.746
  -8066387.452 6  -6289278.27425  25184677.371
 92  6 11  8  0  0.0070000  0  5G15G11G25G21G28
 -10895943.041 6  -8015686.93625  25550435.562
 -20612439.392 7 -16090631.09926  23204448.565
  -4757544.348 6  -3709303.20325  26535814.218
 -13948744.891 8 -10910780.96127  23207474.520
  -7958671.760 6  -6205344.00625  25205182.905
 92  6 11  8  0 30.0070000  0  5G15G11G25G21G28
 -10984939.630 6  -8085034.85925  25533498.907
 -20587657.433 7 -16071320.49126  23209166.638
  -4848759.665 6  -3780379.92625  26518451.198
 -13895094.364 8 -10868975.36527  23217684.072
  -7850726.325 6  -6121230.70425  25225722.885
 92  6 11  8  1  0.0070000  0  5G15G11G25G21G28
 -11073826.140 6  -8154297.03625  25516584.976
 -20562167.703 7 -16051458.38626  23214014.312
  -4939947.271 6  -3851435.11825  26501094.894
 -13841185.673 8 -10826968.56227  23227942.460
  -7742548.513 6  -6036936.33025  25246305.227
 92  6 11  8  1 30.0070000  0  5G15G11G25G21G28
 -11162601.639 6  -8223472.72925  25499692.810
 -20535972.712 7 -16031046.72126  23219002.289
  -5031102.110 6  -3922464.86025  26483766.440
 -13787015.555 8 -10784758.07527  23238248.425
  -7634145.802 6  -5952466.77825  25266936.464
 92  6 11  8  2  0.0070000  0  5G15G11G25G21G28
 -11251240.957 6  -8292542.25925  25482819.981
 -20509070.918 8 -16010084.28726  23224121.365
  -5122228.310 6  -3993472.20225  26466415.922
 -13732571.997 8 -10742334.52727  23248610.032
  -7525517.914 6  -5867821.71325  25287606.464
 92  6 11  8  2 30.0070000  0  5G15G11G25G21G28
 -11339715.409 6  -8361483.32825  25465987.504
 -20481463.058 8 -15988571.69626  23229373.999
  -5213335.736 6  -4064464.90025  26449078.234
 -13677869.148 8 -10699708.92927  23259018.557
  -7416676.640 6  -5783010.37725  25308313.189
 92  6 11  8  3  0.0070000  0  5G15G11G25G21G28
 -11428013.475 6  -8430287.03325  25449184.766
 -20453152.725 8 -15966511.70526  23234764.597
  -5304431.298 6  -4135448.32825  26431743.934
 -13622933.855 8 -10656902.21127  23269475.557
  -7307632.888 6  -5698041.26925  25329070.939
 92  6 11  8  3 30.0070000  0  5G15G11G25G21G28
 -11516131.219 6  -8498950.14425  25432417.464
 -20424139.163 7 -15943903.74126  23240283.596
  -5395511.729 6  -4206420.08125  26414411.643
 -13567771.568 8 -10613918.61227  23279970.931
  -7198389.798 6  -5612916.81525  25349861.696
 92  6 11  8  4  0.0070000  0  5G15G11G25G21G28
 -11604064.271 6  -8567469.36425  25415680.740
 -20394423.890 7 -15920748.99926  23245936.453
  -5486580.603 6  -4277382.78625  26397081.061
 -13512392.672 8 -10570766.20527  23290509.506
  -7088939.306 6  -5527630.76325  25370687.079
 92  6 11  8  4 30.0070000  0  5G15G11G25G21G28
 -11691817.651 6  -8635848.61625  25398980.921
 -20364005.299 7 -15897046.21226  23251724.996
  -5577613.832 6  -4348317.66225  26379753.447
 -13456794.189 8 -10527442.72027  23301087.893
  -6979280.962 6  -5442182.75425  25391555.392
 92  6 11  8  5  0.0070000  0  5G15G11G25G21G28
 -11779391.764 6  -8704088.15825  25382319.746
 -20332879.617 7 -15872792.44426  23257647.995
  -5668589.008 6  -4419207.31325  26362451.854
 -13400946.249 8 -10483924.83727  23311715.865
  -6869403.087 6  -5356563.66225  25412465.526
 92  6 11  8  5 30.0070000  0  5G15G11G25G21G28
 -11866783.295 6  -8772185.36725  25365687.980
 -20301042.484 7 -15847984.30926  23263706.111
  -5759487.027 6  -4490036.83425  26345141.028
 -13344824.694 8 -10440193.74827  23322396.901
  -6759291.998 5  -5270762.87725  25433417.032
 92  6 11  8  6  0.0070000  0  5G15G11G25G21G28
 -11953991.692 6  -8840139.97925  25349088.501
 -20268497.676 7 -15822624.75126  23269902.672
  -5850300.113 6  -4560800.23025  26327861.561
 -13288418.839 8 -10396241.14327  23333130.250
  -6648952.505 6  -5184784.08925  25454412.277
 92  6 11  8  6 30.0070000  0  5G15G11G25G21G28
 -12041034.068 6  -8907965.17025  25332524.098
 -20235255.272 7 -15796721.58326  23276226.734
  -5941034.703 6  -4631502.39725  26310596.993
 -13231719.831 8 -10352060.09427  23343917.682
  -6538410.288 5  -5098647.31625  25475444.757
 92  6 11  8  7  0.0070000  0  5G15G11G25G21G28
 -12127910.343 6  -8975660.93425  25315995.131
 -20201321.522 7 -15770279.70526  23282684.503
  -6031720.879 6  -4702166.85925  26293338.391
 -13174745.881 8 -10307664.81227  23354758.807
  -6427678.498 6  -5012362.81525  25496520.136
 92  6 11  8  7 30.0070000  0  5G15G11G25G21G28
 -12214626.186 6  -9043231.68625  25299499.141
 -20166693.267 7 -15743296.68226  23289274.241
  -6122356.163 6  -4772791.60425  26276103.532
 -13117509.823 8 -10263065.27727  23365651.346
  -6316760.952 6  -4925933.58725  25517627.804
 92  6 11  8  8  0.0070000  0  5G15G11G25G21G28
 -12301183.832 6  -9110679.20825  25283024.227
 -20131377.101 7 -15715777.60126  23295992.350
  -6212946.016 6  -4843381.03225  26258863.247
 -13060029.720 8 -10218275.58927  23376589.724
  -6205680.889 6  -4839377.74225  25538762.333
 92  6 11  8  8 30.0070000  0  5G15G11G25G21G28
 -12387576.721 6  -9177998.29225  25266583.548
 -20095374.606 7 -15687723.72026  23302846.115
  -6303502.259 6  -4913944.25225  26241626.110
 -13002322.571 8 -10173309.01027  23387572.830
  -6094449.719 6  -4752704.14925  25559936.074
 92  6 11  8  9  0.0070000  0  5G15G11G25G21G28
 -12473787.935 6  -9245175.83425  25250179.415
 -20058683.141 7 -15659132.99726  23309827.382
  -6394007.786 6  -4984467.95625  26224401.834
 -12944407.026 8 -10128180.00727  23398591.642
  -5983060.486 6  -4665907.36825  25581124.596
 92  6 11  8  9 30.0070000  0  5G15G11G25G21G28
 -12559815.068 6  -9312209.96525  25233815.783
 -20021304.266 7 -15630006.63426  23316939.539
  -6484442.014 6  -5054936.12425  26207183.554
 -12886269.455 8 -10082877.99627  23409657.431
  -5871516.700 6  -4578990.16825  25602352.720
 92  6 11  8 10  0.0070000  0  5G15G11G25G21G28
 -12645634.463 6  -9379082.16525  25217477.723
 -19983233.818 7 -15600341.35226  23324186.212
  -6574800.031 6  -5125344.82925  26189996.842
 -12827897.057 8 -10037393.01927  23420762.583
  -5759814.582 6  -4491949.60525  25623606.207
 92  6 11  8 10 30.0070000  0  5G15G11G25G21G28
 -12731252.818 6  -9445797.72925  25201186.492
 -19944473.924 7 -15570138.86926  23331559.637
  -6665089.372 6  -5195700.05025  26172822.512
 -12769288.391 8  -9991723.94527  23431918.071
  -5647948.805 6  -4404781.46325  25644899.386
 92  6 11  8 11  0.0070000  0  5G15G11G25G21G28
 -12816674.213 6  -9512359.87725  25184932.134
 -19905022.793 7 -15539397.75026  23339067.700
  -6755293.874 6  -5265989.20025  26155652.019
 -12710431.875 8  -9945861.73027  23443116.518
  -5535909.048 6  -4317477.78925  25666213.730
 92  6 11  8 11 30.0070000  0  5G15G11G25G21G28
 -12901905.455 6  -9578773.77225  25168710.514
 -19864880.059 7 -15508117.71826  23346707.850
  -6845423.681 6  -5336220.14625  26138489.950
 -12651302.057 8  -9899786.54527  23454369.438
  -5423696.684 5  -4230039.57525  25687573.253
 92  6 11  8 12  0.0070000  0  5G15G11G25G21G28
 -12986953.769 6  -9645045.13725  25152526.878
 -19824045.422 7 -15476298.52926  23354477.362
  -6935480.794 6  -5406394.43725  26121362.327
 -12591909.336 8  -9853506.50227  23465670.235
  -5311305.686 5  -4142462.24625  25708954.361
 92  6 11  8 12 30.0070000  0  5G15G11G25G21G28
 -13071818.202 6  -9711173.29925  25136377.718
 -19782518.343 7 -15443939.79926  23362377.822
  -7025456.878 6  -5476505.56025  26104238.002
 -12532249.416 8  -9807018.28227  23477022.446
  -5198743.741 5  -4054751.70425  25730380.378
 92  6 11  8 13  0.0070000  0  5G15G11G25G21G28
 -13156482.842 6  -9777145.70025  25120270.079
 -19740299.584 7 -15411042.08426  23370411.871
  -7115339.321 6  -5546543.69525  26087140.988
 -12472317.849 8  -9760318.36827  23488429.998
  -5086021.815 5  -3966916.46825  25751828.700
 92  6 11  8 13 30.0070000  0  5G15G11G25G21G28
 -13240932.248 7  -9842950.40325  25104200.394
 -19697389.016 7 -15377605.28026  23378578.247
  -7205130.259 6  -5616510.53925  26070050.929
 -12412125.418 8  -9713415.15827  23499882.430
  -4973150.927 5  -3878965.18925  25773302.474
 92  6 11  8 14  0.0070000  0  5G15G11G25G21G28
 -13325145.548 6  -9908571.17825  25088174.118
 -19653791.073 7 -15343632.92426  23386876.682
  -7294827.440 6  -5686404.45825  26052980.237
 -12351705.299 8  -9666334.56627  23511380.160
  -4860145.970 5  -3790909.43025  25794802.780
 92  6 11  8 14 30.0070000  0  5G15G11G25G21G28
 -13409108.100 6  -9973996.48725  25072193.532
 -19609506.725 7 -15309125.62626  23395303.518
  -7384428.473 6  -5756223.36225  26035935.567
 -12291055.394 8  -9619074.91127  23522923.069
  -4747020.321 5  -3702759.61025  25816342.718
 92  6 11  8 15  0.0070000  0  5G15G11G25G21G28
 -13492824.330 6 -10039229.89125  25056265.438
 -19564532.405 7 -15274080.71726  23403862.923
  -7473940.047 6  -5825972.52825  26018889.338
 -12230192.771 8  -9571649.49327  23534503.392
  -4633766.094 6  -3614509.60425  25837886.433
 92  6 11  8 15 30.0070000  0  5G15G11G25G21G28
 -13576297.534 7 -10104273.95525  25040379.286
 -19518862.967 7 -15238494.14426  23412552.647
  -7563348.364 6  -5895641.22525  26001875.726
 -12169118.050 8  -9524058.82727  23546124.697
  -4520377.537 6  -3526154.93925  25859464.715
 92  6 11  8 16  0.0070000  0  5G15G11G25G21G28
 -13659548.848 7 -10169145.06825  25024538.822
 -19472505.029 7 -15202371.09626  23421373.980
  -7652642.325 6  -5965220.85525  25984897.130
 -12107815.467 8  -9476290.59127  23557791.330
  -4406861.497 6  -3437700.93025  25881067.340
 92  6 11  8 16 30.0070000  0  5G15G11G25G21G28
 -13742609.256 7 -10233867.45925  25008732.295
 -19425469.562 7 -15165720.10426  23430325.243
  -7741821.796 6  -6034711.32725  25967917.005
 -12046277.677 8  -9428339.10627  23569501.733
  -4293229.764 6  -3349156.73425  25902690.920
 92  6 11  8 17  0.0080000  0  5G15G11G25G21G28
 -13825476.803 7 -10298439.59625  24992961.683
 -19377759.685 7 -15128543.58626  23439403.619
  -7830884.050 6  -6104110.39425  25950969.468
 -11984499.912 8  -9380200.56927  23581258.904
  -4179487.303 6  -3260526.28025  25924333.298
 92  6 11  8 17 30.0080000  0  5G15G11G25G21G28
 -13908119.879 7 -10362836.77325  24977236.849
 -19329379.094 7 -15090844.46726  23448611.264
  -7919810.946 6  -6173403.99125  25934048.732
 -11922459.019 8  -9331857.04627  23593062.962
  -4065645.346 6  -3171818.32925  25946000.468
 92  6 11  8 18  0.0080000  0  5G15G11G25G21G28
 -13990526.964 7 -10427050.06925  24961553.776
 -19280329.249 7 -15052623.85526  23457942.035
  -8008620.048 6  -6242605.78225  25917151.260
 -11860148.622 8  -9283303.51827  23604920.144
  -3951701.740 5  -3083031.09925  25967687.034
 92  6 11  8 18 30.0080000  0  5G15G11G25G21G28
 -14072686.508 7 -10491070.51525  24945921.458
 -19230614.052 7 -15013884.75626  23467405.583
  -8097326.019 6  -6311727.27125  25900266.678
 -11797590.044 8  -9234556.58527  23616824.932
  -3837651.107 5  -2994160.55425  25989385.293
 92  6 11  8 19  0.0080000  0  5G15G11G25G21G28
 -14154607.755 7 -10554905.22525  24930332.250
 -19180243.610 7 -14974635.10526  23476988.539
  -8185940.872 6  -6380777.75725  25883405.931
 -11734786.401 7  -9185618.68227  23628774.270
  -3723488.997 5  -2905203.09725  26011107.355
 92  6 11  8 19 30.0080000  0  5G15G11G25G21G28
 -14236309.932 7 -10618569.27725  24914784.594
 -19129216.787 7 -14934873.93826  23486701.185
  -8274450.580 6  -6449746.24925  25866559.394
 -11671743.259 8  -9136494.16227  23640769.776
  -3609207.362 5  -2816152.51525  26032861.825
 92  6 11  8 20  0.0080000  0  5G15G11G25G21G28
 -14317810.187 7 -10682075.94325  24899272.912
 -19077532.799 7 -14894600.71326  23496534.378
  -8362838.880 6  -6518620.16025  25849742.656
 -11608476.082 8  -9087195.04526  23652812.409
  -3494801.739 5  -2727005.35625  26054622.530
 92  6 11  8 20 30.0080000  0  5G15G11G25G21G28
 -14399112.227 7 -10745428.14925  24883801.822
 -19025190.223 7 -14853814.30626  23506497.500
  -8451088.683 6  -6587386.11125  25832948.612
 -11544989.287 8  -9037724.83426  23664893.145
  -3380277.875 5  -2637766.06325  26076415.163
 92  6 11  8 21  0.0080000  0  5G15G11G25G21G28
 -14480218.317 7 -10808627.72725  24868366.978
 -18972193.869 7 -14812518.49926  23516580.750
  -8539189.475 6  -6656036.09225  25816182.299
 -11481278.672 8  -8988080.23427  23677016.932
  -3265658.525 5  -2548452.39125  26098228.063
 92  6 11  8 21 30.0080000  0  5G15G11G25G21G28
 -14561097.200 7 -10871650.20525  24852976.382
 -18918542.330 7 -14770712.09826  23526786.615
  -8627132.738 6  -6724563.22525  25799456.218
 -11417347.045 8  -8938263.34226  23689184.849
  -3150960.392 5  -2459077.27925  26120061.318
 92  6 11  8 22  0.0080000  0  5G15G11G25G21G28
 -14641713.959 7 -10934468.44025  24837636.752
 -18864232.645 7 -14728392.86526  23537126.127
  -8714927.626 6  -6792974.73325  25782742.998
 -11353189.124 8  -8888270.16026  23701390.749
  -3036188.649 5  -2369644.85225  26141905.545
 92  6 11  8 22 30.0080000  0  5G15G11G25G21G28
 -14722059.911 7 -10997075.68225  24822347.277
 -18809268.578 7 -14685563.75526  23547587.145
  -8802587.284 6  -6861280.83825  25766058.229
 -11288796.662 8  -8838094.23526  23713645.455
  -2921360.465 5  -2280168.40325  26163740.749
 92  6 11  8 23  0.0080000  0  5G15G11G25G21G28
 -14802125.947 7 -11059464.76325  24807111.224
 -18753651.620 7 -14642225.88026  23558165.651
  -8890109.883 6  -6929480.22325  25749406.917
 -11224163.941 8  -8787731.04926  23725943.181
  -2806472.047 5  -2190644.98825  26185610.669
 92  6 11  8 23 30.0080000  0  5G15G11G25G21G28
 -14881893.364 7 -11121621.18925  24791930.574
 -18697382.967 7 -14598380.17626  23568874.658
  -8977497.903 6  -6997574.71725  25732775.990
 -11159301.568 7  -8737188.94426  23738288.905
  -2691514.551 6  -2101067.78525  26207482.417
 92  6 11  8 24  0.0080000  0  5G15G11G25G21G28
 -14961382.529 7 -11183560.80925  24776806.164
 -18640461.544 7 -14554025.83926  23579707.298
  -9064748.340 6  -7065561.97425  25716173.004
 -11094208.458 7  -8686467.05826  23750672.971
  -2576490.701 5  -2011438.85025  26229379.169
 92  6 11  8 24 30.0080000  0  5G15G11G25G21G28
 -15040605.966 7 -11245293.33625  24761729.871
 -18582890.159 7 -14509165.03626  23590662.224
  -9151855.285 6  -7133437.41325  25699598.468
 -11028882.314 8  -8635563.57926  23763105.544
  -2461390.246 6  -1921750.24525  26251280.657
 92  6 11  8 25  0.0080000  0  5G15G11G25G21G28
 -15119557.047 7 -11306813.63625  24746707.961
 -18524672.271 7 -14463800.43826  23601740.365
  -9238815.791 6  -7201198.75825  25683050.074
 -10963332.937 8  -8584486.10926  23775580.958
  -2346201.084 5  -1831992.56025  26273200.492
 92  6 11  8 25 30.0080000  0  5G15G11G25G21G28
 -15198232.578 7 -11368119.24925  24731737.165
 -18465807.960 7 -14417932.15426  23612941.691
  -9325628.701 6  -7268845.13625  25666532.559
 -10897564.110 8  -8533237.66426  23788095.464
  -2230929.286 6  -1742170.43225  26295133.938
 92  6 11  8 26  0.0080000  0  5G15G11G25G21G28
 -15276644.226 7 -11429219.20525  24716815.265
 -18406291.587 7 -14371555.74926  23624270.188
  -9412280.807 6  -7336366.18925  25650038.098
 -10831555.166 8  -8481802.14326  23800654.640
  -2115569.419 6  -1652279.63825  26317092.476
 92  6 11  8 26 30.0080000  0  5G15G11G25G21G28
 -15354767.147 7 -11490094.18325  24701948.947
 -18346120.834 7 -14324669.45726  23635718.992
  -9498758.854 6  -7403751.59825  25633584.079
 -10765297.325 8  -8430172.66226  23813263.431
  -2000103.564 6  -1562306.28425  26339063.935
 92  6 11  8 27  0.0080000  0  5G15G11G25G21G28
 -15432601.409 7 -11550744.27825  24687138.540
 -18285303.288 7 -14277279.15026  23647293.469
  -9585059.299 6  -7470998.60925  25617161.958
 -10698798.902 7  -8378355.67026  23825917.341
  -1884560.989 5  -1472273.14625  26361047.477
 92  6 11  8 27 30.0080000  0  5G15G11G25G21G28
 -15510161.217 7 -11611180.46326  24672378.198
 -18223841.424 7 -14229386.80426  23658987.504
  -9671170.819 6  -7538098.45925  25600772.214
 -10632058.095 7  -8326349.86626  23838618.498
  -1768965.392 5  -1382198.69325  26383044.748
 92  6 11  8 28  0.0080000  0  5G15G11G25G21G28
 -15587449.239 7 -11671404.86826  24657667.172
 -18161729.122 7 -14180987.60126  23670804.303
  -9757082.250 6  -7605042.42325  25584430.287
 -10565057.427 8  -8274141.56426  23851371.039
  -1653314.085 5  -1292080.88425  26405051.074
 92  6 11  8 28 30.0080000  0  5G15G11G25G21G28
 -15664456.172 7 -11731410.28026  24643017.604
 -18098972.488 7 -14132086.35226  23682747.225
  -9842800.332 6  -7671835.64725  25568113.813
 -10497808.078 7  -8221739.48226  23864164.802
  -1537618.042 5  -1201928.20425  26427063.665
 92  6 11  8 29  0.0080000  0  5G15G11G25G21G28
 -15741197.390 7 -11791208.60626  24628415.133
 -18035580.878 7 -14082690.28326  23694812.732
  -9928329.344 6  -7738481.54825  25551839.460
 -10430321.795 7  -8169152.76026  23877005.963
  -1421899.603 5  -1111758.03325  26449092.534
 92  6 11  8 29 30.0080000  0  5G15G11G25G21G28
 -15817681.672 7 -11850806.73126  24613857.181
 -17971559.315 7 -14032803.35226  23706996.838
 -10013670.054 6  -7804980.79125  25535595.205
 -10362595.505 7  -8116379.03226  23889896.049
  -1306159.260 5  -1021570.84625  26471115.168
 92  6 11  8 30  0.0080000  0  5G15G11G25G21G28
 -15893889.068 7 -11910189.11226  24599358.828
 -17906911.597 7 -13982428.51926  23719296.573
 -10098826.041 6  -7871336.06025  25519394.511
 -10294628.923 7  -8063418.03126  23902828.916
  -1190382.874 5   -931355.55525  26493143.618
 92  6 11  8 30 30.0080000  0  5G15G11G25G21G28
 -15969794.944 7 -11969336.53026  24584913.359
 -17841632.694 7 -13931561.87026  23731719.043
 -10183777.488 6  -7937531.91225  25503224.755
 -10226418.842 7  -8010267.36526  23915806.572
  -1074559.633 5   -841103.71625  26515177.435
 92  6 11  8 31  0.0080000  0  5G15G11G25G21G28
 -16045406.125 7 -12028254.30426  24570524.850
 -17775721.919 7 -13880202.84226  23744262.149
 -10268511.193 6  -8003558.09425  25487105.784
 -10157956.816 7  -7956920.31226  23928834.862
   -958699.599 5   -750823.24825  26537234.785
 92  6 11  8 31 30.0080000  0  5G15G11G25G21G28
 -16120716.170 7 -12086937.45826  24556196.059
 -17709181.798 7 -13828353.38826  23756924.393
 -10353037.044 6  -8069422.40725  25471019.700
 -10089247.080 7  -7903380.24626  23941911.929
   -842804.932 5   -660515.78525  26559279.363
 92  6 11  8 32  0.0080000  0  5G15G11G25G21G28
 -16195713.330 7 -12145376.76326  24541920.932
 -17642012.043 7 -13776013.34226  23769706.165
 -10437356.658 6  -8135125.94025  25454977.925
 -10020285.468 7  -7849643.95326  23955035.854
   -726865.147 5   -570173.18625  26581352.782
 92  6 11  8 32 30.0080000  0  5G15G11G25G21G28
 -16270403.511 7 -12203576.89326  24527706.482
 -17574215.424 7 -13723184.83526  23782602.247
 -10521462.258 6  -8200662.68425  25438970.297
  -9951072.491 7  -7795711.79226  23968207.475
   -610897.975 5   -479809.19925  26603418.557
 92  6 11  8 33  0.0080000  0  5G15G11G25G21G28
 -16344781.301 7 -12261533.60026  24513554.509
 -17505789.155 7 -13669865.68126  23795627.210
 -10605355.092 6  -8266033.68125  25423005.749
  -9881610.519 7  -7741585.56326  23981424.275
   -494911.363 5   -389430.08525  26625494.434
 92  6 11  8 33 30.0080000  0  5G15G11G25G21G28
 -16418821.843 7 -12319227.51026  24499466.422
 -17436732.311 7 -13616055.17626  23808770.051
 -10689026.143 6  -8331231.88625  25407081.733
  -9811905.338 7  -7687269.80626  23994689.252
   -378891.784 5   -299025.26825  26647560.178
 92  6 11  8 34  0.0080000  0  5G15G11G25G21G28
 -16492514.351 7 -12376650.20726  24485440.992
 -17367046.354 7 -13561754.45226  23822030.591
 -10772448.768 6  -8396236.47025  25391207.243
  -9741956.084 7  -7632763.94526  24008000.007
   -262841.361 5   -208596.42425  26669648.497
 92  6 11  8 34 30.0080000  0  5G15G11G25G21G28
 -16565846.282 7 -12433791.98126  24471488.231
 -17296730.008 7 -13506962.52326  23835410.629
 -10855609.360 6  -8461036.84025  25375385.756
  -9671775.799 7  -7578078.02326  24021357.440
   -146772.877 5   -118153.54525  26691738.344
 92  6 11  8 35  0.0080000  0  5G15G11G25G21G28
 -16638821.677 7 -12490655.89926  24457599.806
 -17225789.659 7 -13451684.34526  23848910.613
 -10938524.909 6  -8525646.36025  25359604.261
  -9601376.594 7  -7523221.49426  24034750.488
    -30689.062 5    -27698.63325  26713826.603
 92  6 11  8 35 30.0080000  0  5G15G11G25G21G28
 -16711440.308 7 -12547241.81226  24443782.611
 -17154229.309 7 -13395923.05426  23862527.966
 -11021200.152 7  -8590068.58625  25343878.978
  -9530755.451 7  -7468192.03626  24048190.094
     85421.992 5     62777.46225  26735917.110
 92  6 11  8 36  0.0080000  0  5G15G11G25G21G28
 -16783713.975 7 -12603558.95426  24430029.692
 -17082058.380 7 -13339685.99926  23876260.799
 -11103654.196 6  -8654318.41025  25328183.314
  -9459905.973 7  -7412984.63726  24061671.971
    201552.652 5    153268.82325  26758030.251
 92  6 11  8 36 30.0080000  0  5G15G11G25G21G28
 -16855650.395 7 -12659613.27626  24416338.561
 -17009282.642 7 -13282977.63826  23890110.820
 -11185913.231 6  -8718416.29525  25312525.633
  -9388828.716 7  -7357599.81326  24075196.089
    317704.822 5    243776.94925  26780129.212
 92  6 11  8 37  0.0080000  0  5G15G11G25G21G28
 -16927253.999 7 -12715408.27326  24402714.252
 -16935906.512 7 -13225801.43826  23904072.665
 -11267979.067 6  -8782363.67925  25296910.343
  -9317516.459 7  -7302031.83226  24088767.363
    433880.627 5    334303.51225  26802230.782
 92  6 11  8 37 30.0080000  0  4G15G11G25G21
 -16998522.797 7 -12770942.40126  24389151.192
 -16861937.924 7 -13168163.58726  23918150.079
 -11349826.414 6  -8846140.77525  25281338.044
  -9245971.104 7  -7246282.20226  24102383.097
 92  6 11  8 38  0.0080000  0  4G15G11G25G21
 -17069460.640 7 -12826218.62126  24375652.467
 -16787383.648 7 -13110069.38126  23932336.918
 -11431439.588 6  -8909735.39825  25265806.786
  -9174197.612 7  -7190354.82526  24116040.622
 92  6 11  8 38 30.0080000  0  4G15G11G25G21
 -17140065.862 7 -12881235.66426  24362214.630
 -16712243.424 7 -13051518.55426  23946636.748
 -11512798.929 6  -8973132.24825  25250318.248
  -9102200.550 8  -7134253.22826  24129740.658
 92  6 11  8 39  0.0080000  0  5G15G11G25G21G28
 -17210334.473 7 -12935990.42426  24348845.025
 -16636526.276 7 -12992518.20726  23961043.485
 -11593895.014 6  -9036323.99425  25234892.008
  -9029985.189 7  -7077981.51326  24143482.995
    -61949.32315     21121.46831  26890663.501
 92  6 11  8 39 30.0080000  0  5G15G11G25G21G28
 -17280273.144 7 -12990488.06126  24335537.208
 -16560235.120 7 -12933070.59925  23975562.344
 -11674729.977 6  -9099312.21825  25219509.417
  -8957546.770 7  -7021536.01326  24157263.315
     54152.213 5    111589.99921  26912753.978
